     2              OBSERVATION DATA    GPS                 RINEX VERSION / TYPE
teqc 2000Feb29 Duncan Agnew 20000527 01:01:16UTC            PGM / RUN BY / DATE
                                                            COMMENT
L2: 1 -> 1; 5 -> 5; 60 -> 9                                 COMMENT
L2: 1 -> 1; 5 -> 5; 60 -> 9                                 COMMENT
L2: 1 -> 1; 5 -> 5; 60 -> 9                                 COMMENT
L2: 1 -> 1; 5 -> 5; 60 -> 9                                 COMMENT
L2: 1 -> 1; 5 -> 5; 60 -> 9                                 COMMENT
Original Marker Name: K526                                  COMMENT
Campaign Name: CSRC Post Hector                             COMMENT
4-Character Station Name: K526                              COMMENT
6-Character Antenna Code: TRMCMP                            COMMENT
Vertical Measurement Point: BPA                             COMMENT
Vertical Offset to Rinex Ref. Point: 0.0000                 COMMENT
Radial Measurement Point: RRP                               COMMENT
Radial Offset to Rinex Ref. Point: 0.0000                   COMMENT
Antenna Height from Field Measurement: 1.3200 m             COMMENT
Additional Antenna Identification Info.:                    COMMENT
Model 22020.00+GP                                           COMMENT
Original XYZ: -2416862.0510 -4702081.7660 3556547.6359      COMMENT
New XYZ position is based on association with SCEC monument COMMENT
E1D0S5B5+0011. Position of that monument is believed to be  COMMENT
valid to within 1 m horizontally; vertical accuracy         COMMENT
should be no worse than 3-times this value.                 COMMENT
                                                            COMMENT
Revised Rinex header created by UCSD GPS archive for        COMMENT
GSAC on 16-Jun-2000 (2000:168) 00:25:08 GMT                 COMMENT
For assistance contact dagnew@ucsd.edu                      COMMENT
or anderson@python.ucsd.edu                                 COMMENT
                                                            COMMENT
K526 1950                                                   MARKER NAME
K526                                                        MARKER NUMBER
-Unknown- SAN BERNARDINO COUNTY                             OBSERVER / AGENCY
13568 TRIMBLE 4000 SSI NP 7.29; SP 3.07                     REC # / TYPE / VERS
41613 TR GEOD L1/L2 GP                                      ANT # / TYPE
 -2416858.9290 -4702076.9151  3556539.3951                  APPROX POSITION XYZ
        1.3200        0.0000        0.0000                  ANTENNA: DELTA H/E/N
     1     1     0                                          WAVELENGTH FACT L1/2
     7    C1    L1    L2    P1    P2    S1    S2            # / TYPES OF OBSERV
     0                                                      INTERVAL
  2000     5     9    19     5   45.000000                  TIME OF FIRST OBS
  2000     5    10     0    32    0.000000                  TIME OF LAST OBS
                                                            END OF HEADER
 00  5  9 19  5 45.0000000  0  7G 4G 5G 6G10G17G24G30
  24521521.6174      44812.70755
         8.5004
  20512478.0864      18886.28457
        21.0004
  22878573.8834     -20598.41856
        17.2504
  21214531.1884      -6209.66658
        32.2504
  24500243.1254     -29185.48055
        10.7504
  21562757.1254      32449.22358
        30.2504
  20985427.4614      -7448.87856
        18.5004
 00  5  9 19  6  0.0000000  0  7G 4G 5G 6G10G17G24G30
  24532145.1954     100636.16045
        10.2504
  20516955.8444      42416.45446
        19.5004
  22873634.4064     -46554.88246
        16.2504
  21212304.0864     -17912.35348
        32.0004
  24493265.7114     -65850.58045
        11.2504
  21570447.5634      72862.99848
        30.5004
  20982756.1724     -21486.45246
        18.5004
 00  5  9 19  6 15.0000000  0  7G 4G 5G 6G10G17G24G30
  24542744.3364     156338.00845
        11.2504
  20521437.5234      65968.23646      9792.07557                  20521443.2074
        19.2504         28.2504
  22868675.5634     -72612.67946     -9480.79756                  22868683.4534
        15.5004         13.2504
  21210083.3054     -29583.76648      -604.60057                  21210090.1994
        30.7504         27.7504
  24486275.2114    -102583.93845
        10.5004
  21578125.9384     113212.73148      8380.44056                  21578132.7234
        30.2504         24.2504
  20980088.0864     -35507.09946        -0.11257                  20980093.3954
        18.0004         29.2504
 00  5  9 19  6 30.0000000  0  7G 4G 5G 6G10G17G24G30
  24553334.3524     211985.84245
        11.5004
  20525936.3594      89609.16947     28213.57047                  20525942.2074
        22.5004         28.0004
  22863710.7274     -98704.08146    -29811.71846                  22863718.7234
        16.0004         12.7504
  21207881.0864     -41155.99748     -9621.88347                  21207887.9924
        32.2504         28.5004
  24479285.2894    -139317.85745
        11.2504
  21585804.9454     153565.68248     39824.24746                  21585812.0044
        30.5004         24.2504
  20977436.2194     -49442.97046    -10859.23247                  20977442.0784
        17.7504         28.7504
 00  5  9 19  6 45.0000000  0  7G 4G 5G 6G10G17G24G30
  24563918.3594     267607.40345
        11.0004
  20530457.1954     113367.31047     46726.38347                  20530463.1844
        26.5004         27.7504
  22858744.4304    -124800.96046    -50146.92046                  22858752.5204
        16.0004         13.7504
  21205703.2424     -52600.72248    -18539.82447                  21205710.1024
        31.7504         29.0004
  24472299.9844    -176024.14445
        10.0004
  21593489.7424     193949.79648     71292.35046                  21593496.3634
        30.5004         24.2504
  20974805.6804     -63265.81546    -21630.28147                  20974811.4924
        18.0004         29.2504
 00  5  9 19  7  0.0000000  0  7G 4G 5G 6G10G17G24G30
  24574499.3594     323209.15145     34655.98755                  24574512.4064
        11.2504          9.0004
  20535001.9774     137249.09947     65335.53947                  20535007.7894
        20.2504         28.0004
  22853778.7974    -150896.69446    -70481.21646                  22853786.5474
        15.2504         13.2504
  21203550.7274     -63911.30948    -27353.23947                  21203557.4654
        32.2504         28.7504
  24465321.5164    -212696.06245    -22856.97155                  24465336.5314
        10.5004         10.5004
  21601181.8594     234371.38748    102789.65546                  21601188.3284
        30.7504         24.2504
  20972198.1254     -76968.83046    -32307.94847                  20972203.6094
        18.0004         29.2504
 00  5  9 19  7 15.0000000  0  7G 4G 5G 6G10G17G24G30
  24585077.9924     378800.18246     77973.64645                  24585093.1024
        12.5004          9.0004
  20539571.8134     161263.81046     84048.27047                  20539577.7074
        19.0004         28.2504
  22848814.8754    -176981.88646    -90807.28646                  22848822.6254
        16.0004         13.2504
  21201425.6484     -75078.20448    -36054.68347                  21201432.5314
        31.2504         28.7504
  24458351.8284    -249324.23245    -51398.28445                  24458366.6214
        10.0004         10.5004
  21608882.4924     274839.38848    134323.12646                  21608889.2894
        30.5004         24.2504
  20969615.2194     -90542.44646    -42884.78747                  20969620.4104
        18.0004         29.2504
 00  5  9 19  7 30.0000000  0  7G 4G 5G 6G10G17G24G30
  24595655.6094     434385.95246    121287.19745                  24595667.0274
        12.7504          9.0004
  20544167.7814     185416.87547    102868.82347                  20544173.4414
        22.7504         28.2504
  22843853.8914    -203050.90346   -111120.77046                  22843861.2074
        15.5004         13.0004
  21199329.2894     -86095.65448    -44639.67547                  21199336.3244
        31.5004         28.2504
  24451390.4534    -285902.99945    -79901.10045                  24451405.2344
        10.7504         10.7504
  21616593.3594     315359.20848    165896.97646                  21616600.4534
        30.0004         24.0004
  20967057.8984    -103981.00346    -53356.38747                  20967063.2074
        18.0004         29.0004
 00  5  9 19  7 45.0000000  0  7G 4G 5G 6G10G17G24G30
  24606230.4614     489959.72445    164591.42445                  24606241.9734
        11.5004         10.0004
  20548788.9924     209701.66747    121792.01047                  20548794.8404
        24.0004         28.0004
  22838894.9534    -229110.28646   -131426.73446                  22838902.7734
        15.2504         13.2504
  21197259.8754     -96969.97048    -53113.13947                  21197266.8054
        31.2504         28.0004
  24444438.2974    -322438.75745   -108370.39345                  24444453.1844
        11.0004         10.5004
  21624312.5234     355924.06648    197505.91446                  21624319.4534
        30.2504         24.0004
  20964525.1414    -117290.73246    -63727.59947                  20964530.3674
        17.7504         29.0004
 00  5  9 19  8  0.0000000  0  7G 4G 5G 6G10G17G24G30
  24616804.7734     545524.33445    207888.51345                  24616817.7974
        11.2504          9.5004
  20553435.8594     234121.02448    140820.05547                  20553441.8134
        28.5004         27.7504
  22833938.9224    -255156.99046   -151722.81946                  22833946.3794
        16.2504         13.2504
  21195218.2584    -107698.01148    -61472.62947                  21195225.0084
        30.5004         27.5004
  24437493.9694    -358928.44545   -136803.79545                  24437507.2854
        11.2504         10.7504
  21632040.9924     396536.66048    229152.05746                  21632047.8754
        30.0004         24.0004
  20962017.4694    -130468.36646    -73995.88047                  20962022.6374
        17.7504         29.2504
 00  5  9 19  8 15.0000000  0  7G 4G 5G 6G10G17G24G30
  24627375.7814     601076.89445    251176.13845                  24627388.6054
        11.7504          9.0004
  20558107.9774     258672.39047    159950.96147                  20558113.8834
        24.5004         27.7504
  22828983.7424    -281193.43346   -172010.95346                  22828991.1764
        14.5004         12.7504
  21193204.0554    -118282.02948    -69719.88147                  21193210.9734
        29.7504         27.2504
  24430559.1024    -395374.48646   -165203.16545                  24430572.9224
        12.7504         11.5004
  21639777.8204     437194.19048    260833.20646                  21639784.7034
        29.7504         23.7504
  20959534.6254    -143516.31846    -84163.10747                  20959539.8984
        18.0004         29.2504
 00  5  9 19  8 30.0000000  0  7G 4G 5G 6G10G17G24G30
  24637945.5944     656622.75545    294458.63845                  24637957.1414
        10.0004          8.7504
  20562805.8594     283360.93248    179188.75747                  20562811.8594
        28.7504         28.2504
  22824032.2504    -307214.31046   -192286.88246                  22824039.4734
        14.2504         13.0004
  21191218.5314    -128716.56148    -77850.64847                  21191225.5084
        30.2504         27.2504
  24423632.5394    -431771.45146   -193564.30745                  24423645.4694
        12.5004         11.5004
  21647524.3134     477901.69248    292553.29946                  21647531.1564
        30.5004         23.7504
  20957077.4694    -156429.08546    -94224.99347                  20957082.6254
        18.0004         29.5004
 00  5  9 19  8 45.0000000  0  7G 4G 5G 6G10G17G24G30
  24648514.4694     712162.92245    337736.69945                  24648525.4534
         9.2504          7.7504
  20567530.6564     308187.90946    198534.42947                  20567536.6214
        19.5004         28.7504
  22819084.1644    -333218.15046   -212549.57546                  22819091.4344
        15.0004         12.7504
  21189261.5164    -139000.02148    -85863.69447                  21189268.5394
        30.7504         27.7504
  24416716.7664    -468117.86246   -221886.05645                  24416729.6604
        13.5004         11.7504
  21655280.3674     518660.24848    324313.17746                  21655286.8014
        30.2504         23.5004
  20954646.2584    -169205.05146   -104180.28647                  20954651.5204
        18.2504         29.7504
 00  5  9 19  9  0.0000000  0  7G 4G 5G 6G10G17G24G30
  24659082.8364     767698.58445    381011.18445                  24659096.3634
         9.7504          8.7504
  20572281.4924     333154.42247    217988.83347                  20572287.5274
        20.5004         28.7504
  22814139.2194    -359203.67046   -232798.00046                  22814146.1604
        14.2504         12.7504
  21187333.8284    -149131.00548    -93757.93747                  21187340.8634
        30.7504         28.0004
  24409809.6724    -504412.36846   -250167.35945                  24409823.3524
        12.7504         11.7504
  21663046.4774     559470.95448    356113.69246                  21663053.1914
        30.2504         23.5004
  20952241.2344    -181842.67046   -114027.77547                  20952246.6134
        18.0004         29.5004
 00  5  9 19  9 15.0000000  0  7G 4G 5G 6G10G17G24G30
  24669648.5164     823228.43045    424281.20445                  24669663.3204
         8.0004          7.7504
  20577058.7504     358259.38147    237551.10747                  20577064.6334
        26.7504         28.5004
  22809197.7274    -385171.90446   -253032.93446                  22809203.9964
        14.2504         12.2504
  21185434.7114    -159110.48048   -101534.12047                  21185441.6524
        30.7504         27.7504
  24402912.1024    -540655.97846   -278409.01445                  24402925.5234
        12.0004         10.7504
  21670822.1724     600332.49848    387953.81946                  21670828.9574
        30.5004         23.5004
  20949862.6564    -194342.91746   -123768.22147                  20949868.2344
        18.0004         29.5004
 00  5  9 19  9 30.0000000  0  7G 4G 5G 6G10G17G24G30
  24680214.6484     878749.29344    467544.13145                  24680228.8324
         6.7504          7.2504
  20581861.7114     383499.47748    257218.68447                  20581867.7114
        29.5004         28.7504
  22804258.5314    -411125.86146   -273256.76746                  22804264.7664
        14.2504         13.0004
  21183563.8204    -168941.37948   -109194.53147                  21183570.6294
        31.0004         27.7504
  24396024.3984    -576851.83645   -306613.43045                  24396038.0314
        11.0004         11.0004
  21678606.8444     641241.25748    419830.73146                  21678613.6644
        30.5004         23.5004
  20947509.5474    -206708.69346   -133403.88147                  20947514.8914
        18.2504         29.5004
 00  5  9 19  9 45.0000000  0  7G 4G 5G 6G10G17G24G30
  24690778.8984     934264.89045    510802.94145                  24690791.5944
         8.5004          7.0004
  20586691.4144     408878.71147    276994.68647                  20586697.4144
        26.0004         28.7504
  22799323.0944    -437061.34946   -293466.20846                  22799329.8444
        14.2504         12.7504
  21181722.0784    -178619.40648   -116735.82147                  21181728.6764
        31.2504         27.2504
  24389146.0704    -612995.60545   -334777.29445                  24389161.4494
        10.0004          9.7504
  21686401.2894     682201.23448    451747.55046                  21686408.1094
        29.7504         23.2504
  20945182.7034    -218935.63846   -142931.36447                  20945187.6724
        18.2504         29.5004
 00  5  9 19 10  0.0000000  0  7G 4G 5G 6G10G17G24G30
  24701344.3204     989783.45045    554064.14145                  24701356.6414
         8.5004          7.7504
  20591548.9454     434405.23248    296885.45147                  20591554.9344
        31.2504         28.5004
  22794392.7894    -462970.09346   -313654.78446                  22794399.7194
        14.5004         13.0004
  21179911.1724    -188136.15148   -124151.43747                  21179917.8874
        31.7504         27.5004
  24382279.2424    -649078.90345   -362894.01545                  24382293.5554
         9.2504         10.0004
  21694206.9694     723220.47348    483710.55746                  21694213.7894
        29.7504         23.2504
  20942884.0474    -231015.23546   -152344.02747                  20942889.1914
        18.0004         29.7504
 00  5  9 19 10 15.0000000  0  7G 4G 5G 6G10G17G24G30
  24711907.3444    1045294.79645    597319.70845                  24711922.9104
         8.5004          6.7504
  20596432.5234     460069.10148    316883.23847                  20596438.5354
        31.0004         28.2504
  22789465.6174    -488861.91546   -333830.20646                  22789472.5234
        15.0004         13.0004
  21178129.2114    -197501.35848   -131448.97347                  21178135.9494
        31.7504         27.7504
  24375423.1724    -685111.47445   -390971.19545                  24375437.4144
         9.0004          9.2504
  21702022.2734     764288.78348    515711.79146                  21702029.0234
        29.7504         23.2504
  20940611.5474    -242957.24046   -161649.47647                  20940616.8444
        18.0004         29.5004
 00  5  9 19 10 30.0000000  0  7G 4G 5G 6G10G17G24G30
  24722470.6884    1100803.54645    640573.26645                  24722481.0514
        10.2504          7.2504
  20601343.2274     485874.83748    336991.57447                  20601349.2034
        30.7504         28.0004
  22784542.4454    -514732.21046   -353988.85146                  22784549.5864
        13.2504         12.7504
  21176376.5944    -206710.20048   -138624.66647                  21176383.2504
        31.7504         27.7504
  24368576.1954    -721088.73345   -419005.33445                  24368590.4964
         8.7504          9.2504
  21709847.1174     805410.62648    547754.74146                  21709854.2704
        29.5004         23.0004
  20938366.1804    -254756.94446   -170844.04547                  20938371.4414
        18.0004         29.5004
 00  5  9 19 10 45.0000000  0  7G 4G 5G 6G10G17G24G30
  24733032.2814    1156307.19445    683822.83945                  24733042.0944
        10.0004          7.0004
  20606280.5164     511819.98247    357208.54647                  20606286.5394
        26.2504         28.0004
  22779623.7034    -540583.15546   -374132.39646                  22779630.8324
        14.2504         13.0004
  21174653.6334    -215764.77948   -145680.15747                  21174660.1844
        32.0004         27.7504
  24361739.9224    -757012.80045   -446997.95345                  24361755.6994
         7.7504          9.5004
  21717682.5234     846583.34948    579837.33546                  21717689.4064
        29.7504         23.2504
  20936147.4614    -266416.34546   -179929.28647                  20936152.5354
        18.0004         29.7504
 00  5  9 19 11  0.0000000  0  7G 4G 5G 6G10G17G24G30
  24743594.2274    1211807.54345    727069.85845                  24743606.2664
        11.0004          7.2504
  20611244.7424     537906.57347    377535.73047                  20611250.6844
        23.2504         28.2504
  22774707.8204    -566412.54046   -394259.17246                  22774715.0434
        14.0004         13.0004
  21172960.2344    -224662.78148   -152613.63747                  21172967.1884
        31.5004         27.7504
  24354914.2894    -792881.55345   -474947.51145                  24354927.2664
         9.0004          9.2504
  21725527.3834     887808.81748    611961.03646                  21725534.3364
        30.0004         23.2504
  20933955.7814    -277933.07546   -188903.35047                  20933960.8914
        18.0004         29.7504
 00  5  9 19 11 15.0000000  0  7G 4G 5G 6G10G17G24G30
  24754155.7664    1267308.16645    770317.06245                  24754166.2934
        11.7504          8.0004
  20616236.4694     564138.14547    397975.89247                  20616242.4574
        23.7504         28.2504
  22769797.5314    -592216.65146   -414366.22046                  22769804.2344
        13.0004         12.2504
  21171297.5474    -233400.43148   -159422.17147                  21171304.3914
        31.7504         27.7504
  24348099.3204    -828691.25445   -502851.04745                  24348113.0944
         9.0004          9.5004
  21733382.8284     929090.50248    644128.53746                  21733389.9574
        29.2504         23.2504
  20931792.2504    -289303.32546   -197763.27747                  20931797.4414
        18.0004         29.5004
 00  5  9 19 11 30.0000000  0  7G 4G 5G 6G10G17G24G30
  24764715.4144    1322803.32245    813560.04445                  24764727.9104
        10.5004          7.2504
  20621254.7814     590508.94847    418524.54447                  20621260.8054
        23.7504         28.5004
  22764890.9064    -618001.00846   -434457.89046                  22764898.4804
        14.0004         12.7504
  21169664.4144    -241983.06048   -166109.91247                  21169671.1294
        31.5004         27.5004
  24341296.1094    -864447.22145   -530712.67945                  24341309.8484
         9.5004          9.5004
  21741248.2344     970422.51648    676335.25746                  21741255.1884
        29.7504         23.5004
  20929655.1804    -300532.49346   -206513.27647                  20929660.6644
        18.0004         29.5004
 00  5  9 19 11 45.0000000  0  7G 4G 5G 6G10G17G24G30
  24775275.3524    1378295.12745    856800.43345                  24775287.9184
         9.7504          6.5004
  20626299.9064     617021.16746    439183.37747                  20626305.8594
        19.7504         28.7504
  22759988.4924    -643763.30946   -454532.38246                  22759995.4694
        14.5004         13.0004
  21168060.9694    -250408.32248   -172675.02247                  21168067.6484
        30.7504         27.0004
  24334502.8834    -900147.31245   -558530.78745                  24334516.5864
        10.0004         10.0004
  21749123.6804    1011806.89648    708582.78346                  21749130.7624
        29.0004         23.2504
  20927545.9304    -311618.08946   -215151.38947                  20927551.3324
        18.2504         30.0004
 00  5  9 19 12  0.0000000  0  7G 4G 5G 6G10G17G24G30
  24785834.5004    1433786.08945    900040.08045                  24785842.3674
         9.0004          6.0004
  20631372.4924     643677.36946    459954.40747                  20631378.4694
        18.5004         29.0004
  22755091.2344    -669500.82746   -474587.55946                  22755098.4574
        13.7504         13.0004
  21166488.1414    -258673.32348   -179115.25647                  21166494.7854
        31.0004         26.7504
  24327720.0554    -935788.72345   -586303.19245                  24327733.8404
        10.5004         10.0004
  21757009.2114    1053246.02848    740872.98446                  21757016.4224
        28.2504         23.2504
  20925464.3204    -322557.31846   -223675.45847                  20925469.5234
        18.5004         30.0004
 00  5  9 19 12 15.0000000  0  6G 5G 6G10G17G24G30
  20636472.3054     670476.96346    480837.18147                  20636478.0824
        18.0004         29.0004
  22750198.2504    -695214.03946   -494623.79846                  22750205.5084
        14.7504         13.5004
  21164946.0004    -266778.47348   -185430.93547                  21164952.3634
        32.0004         26.7504
  24320948.5164    -971371.84245   -614030.13645                  24320963.0864
        10.0004         10.0004
  21764904.8134    1094739.10048    773205.19946                  21764912.3404
        28.2504         23.0004
  20923410.1884    -333350.36446   -232085.61447                  20923415.3204
        18.2504         29.7504
 00  5  9 19 12 30.0000000  0  6G 5G 6G10G17G24G30
  20641598.7344     697416.66246    501829.12847                  20641604.4414
        18.2504         29.2504
  22745309.1174    -720906.07446   -514643.55246                  22745317.7464
        14.2504         13.5004
  21163433.5634    -274726.79948   -191624.42047                  21163439.7274
        32.5004         26.7504
  24314187.5944   -1006899.70345   -641714.06645                  24314201.5314
        10.5004          9.7504
  21772810.2424    1136282.70048    805576.79046                  21772817.7934
        28.7504         23.0004
  20921383.7194    -344000.23546   -240384.20647                  20921388.9924
        18.2504         29.7504
 00  5  9 19 12 45.0000000  0  6G 5G 6G10G17G24G30
  20646752.8134     724500.49846    522933.38747                  20646758.7194
        18.7504         29.2504
  22740424.9924    -746572.60946   -534643.41046                  22740432.1684
        14.0004         13.5004
  21161951.7504    -282514.00048   -197692.34747                  21161957.9144
        32.2504         27.2504
  24307437.8444   -1042368.10745   -669351.64445                  24307452.2384
        10.5004         10.0004
  21780726.1954    1177880.90848    837990.94146                  21780733.5234
        28.0004         23.0004
  20919385.1094    -354502.53146   -248567.80647                  20919390.3014
        18.2504         29.7504
 00  5  9 19 13  0.0000000  0  6G 5G 6G10G17G24G30
  20651933.2274     751725.40047    544147.57047                  20651939.1914
        22.5004         28.7504
  22735545.0314    -772216.49046   -554625.61046                  22735552.0784
        15.2504         13.7504
  21160499.7894    -290142.88148   -203636.90147                  21160506.0824
        32.2504         27.2504
  24300699.2664   -1077779.81345   -696945.06545                  24300712.8984
        10.7504          9.7504
  21788651.8914    1219530.46148    870445.09446                  21788659.3954
        28.0004         23.0004
  20917414.1644    -364860.10246   -256638.63247                  20917419.2274
        18.2504         29.5004
 00  5  9 19 13 15.0000000  0  6G 5G 6G10G17G24G30
  20657142.1094     779097.59547    565476.52747                  20657148.2154
        27.0004         28.7504
  22730670.4774    -797831.18046   -574585.11246                  22730676.6414
        14.2504         13.2504
  21159079.5554    -297606.79248   -209452.91347                  21159085.8484
        32.2504         27.7504
  24293972.9534   -1113128.34545   -724489.25045                  24293985.5084
        11.5004         10.2504
  21796588.5474    1261237.45548    902944.00346                  21796596.0394
        28.5004         23.0004
  20915472.0004    -375066.23246   -264591.45147                  20915477.2274
        18.0004         29.7504
 00  5  9 19 13 30.0000000  0  6G 5G 6G10G17G24G30
  20662377.7504     806611.26247    586915.71847                  20662383.7734
        27.2504         28.7504
  22725800.8054    -823422.41446   -594526.27046                  22725808.4384
        15.2504         14.0004
  21157689.5164    -304911.31248   -215144.72747                  21157695.7034
        31.7504         28.0004
  24287257.0234   -1148419.26845   -751988.53745                  24287271.2544
        11.5004          9.2504
  21804535.0164    1302995.97448    935483.07046                  21804542.6374
        28.2504         23.0004
  20913557.6334    -385126.43946   -272430.57147                  20913563.0594
        18.2504         29.7504
 00  5  9 19 13 45.0000000  0  6G 5G 6G10G17G24G30
  20667640.5234     834267.51147    608466.01547                  20667646.4064
        27.7504         28.7504
  22720935.0314    -848988.77946   -614448.09546                  22720941.9264
        15.5004         14.2504
  21156330.0554    -312055.06648   -220711.26647                  21156336.1954
        32.2504         28.0004
  24280552.3444   -1183651.28346   -779441.95545                  24280565.7074
        12.7504          9.5004
  21812491.5634    1344806.98448    968063.03046                  21812499.3594
        28.2504         22.7504
  20911671.3054    -395039.28646   -280154.86147                  20911676.9184
        18.2504         30.0004
 00  5  9 19 14  0.0000000  0  6G 5G 6G10G17G24G30
  20672931.2034     862070.22248    630130.44047                  20672937.1334
        29.0004         28.7504
  22716076.0864    -874526.29846   -634347.44346                  22716083.2034
        14.7504         14.0004
  21155002.0704    -319033.81648   -226149.23047                  21155008.4454
        32.0004         27.5004
  24273859.7344   -1218820.31146   -806846.26145                  24273871.8444
        12.2504          9.5004
  21820458.6884    1386674.37748   1000686.92746                  21820466.0394
        29.7504         22.7504
  20909813.8054    -404800.59846   -287761.06947                  20909819.1374
        18.5004         30.0004
 00  5  9 19 14 15.0000000  0  6G 5G 6G10G17G24G30
  20678249.4304     890016.51547    651906.74747                  20678255.3954
        27.5004         28.5004
  22711221.1094    -900037.63846   -654226.35646                  22711229.1764
        14.7504         13.7504
  21153704.6414    -325850.18348   -231460.66847                  21153711.0394
        31.7504         27.7504
  24267178.3754   -1253928.94046   -834203.55745                  24267192.9454
        12.5004          9.2504
  21828436.0634    1428594.99248   1033352.29546                  21828443.0984
        30.0004         22.7504
  20907984.6724    -414412.98246   -295251.23147                  20907989.8404
        18.7504         30.2504
 00  5  9 19 14 30.0000000  0  6G 5G 6G10G17G24G30
  20683595.0944     918108.93448    673796.91347                  20683601.1414
        28.7504         28.0004
  22706371.7504    -925520.07246   -674082.77146                  22706380.0864
        15.7504         14.2504
  21152439.2974    -332501.29848   -236643.34047                  21152445.4964
        32.0004         27.7504
  24260509.7424   -1288974.53346   -861511.67045                  24260522.2154
        12.2504          9.2504
  21836423.9924    1470571.39348   1066061.13346                  21836430.6254
        30.0004         22.5004
  20906184.5084    -423873.51946   -302623.07147                  20906189.6994
        18.7504         30.2504
 00  5  9 19 14 45.0000000  0  6G 5G 6G10G17G24G30
  20688968.7974     946346.55647    695800.22447                  20688974.7504
        23.2504         28.0004
  22701527.9454    -950974.33246   -693917.22946                  22701535.6724
        14.2504         14.0004
  21151204.6724    -338987.85448   -241697.78647                  21151210.8714
        31.5004         27.7504
  24253852.4774   -1323957.75646   -888771.21945                  24253864.6914
        12.2504          9.5004
  21844422.1414    1512602.41648   1098812.54146                  21844428.7734
        30.2504         22.5004
  20904412.8674    -433182.84346   -309877.08847                  20904418.3284
        18.7504         30.0004
 00  5  9 19 15  0.0000000  0  6G 5G 6G10G17G24G30
  20694369.3594     974727.19847    717914.97847                  20694375.4064
        24.7504         28.0004
  22696689.5164    -976402.31846   -713731.20246                  22696696.9734
        16.0004         14.0004
  21150001.2424    -345311.77448   -246625.50447                  21150007.8164
        31.5004         27.5004
  24247206.9454   -1358880.59846   -915983.69745                  24247219.4884
        12.0004          9.5004
  21852430.5634    1554685.72648   1131604.68246                  21852437.4344
        29.7504         22.5004
  20902669.6954    -442342.94646   -317014.82847                  20902675.0394
        18.5004         30.0004
 00  5  9 19 15 15.0000000  0  6G 5G 6G10G17G24G30
  20699798.3674    1003256.30347    740145.41947                  20699804.3794
        20.2504         28.0004
  22691856.7194   -1001798.43546   -733520.34946                  22691864.0004
        16.7504         14.2504
  21148830.0084    -351467.34248   -251422.03347                  21148836.7464
        31.0004         28.0004
  24240573.6884   -1393737.42445   -943144.74445                  24240585.7384
        11.7504          9.7504
  21860449.5864    1596826.81948   1164441.85146                  21860456.5744
        29.5004         22.2504
  20900956.1414    -451348.02946   -324031.77047                  20900961.2384
        18.5004         30.0004
 00  5  9 19 15 30.0000000  0  6G 5G 6G10G17G24G30
  20705254.6804    1031929.27746    762487.96747                  20705260.5514
        18.5004         28.2504
  22687029.5394   -1027167.05246   -753288.08046                  22687036.7854
        16.2504         14.7504
  21147689.8284    -357458.93048   -256090.78547                  21147696.5554
        31.0004         28.2504
  24233952.1094   -1428532.64146   -970257.79445                  24233964.0314
        12.0004          9.7504
  21868478.8914    1639020.90548   1197320.31746                  21868486.0084
        28.7504         21.7504
  20899271.1954    -460202.28946   -330931.19247                  20899276.2344
        18.5004         30.0004
 00  5  9 19 15 45.0000000  0  6G 5G 6G10G17G24G30
  20710738.6254    1060747.84747    784943.96547                  20710744.5314
        22.2504         28.2504
  22682207.4774   -1052506.26746   -773032.87446                  22682213.7704
        18.0004         14.5004
  21146581.1804    -363284.53148   -260630.19347                  21146587.7664
        31.5004         28.2504
  24227343.1094   -1463264.25145   -997321.27345                  24227354.8094
        11.5004         10.0004
  21876518.4534    1681269.50148   1230241.25546                  21876525.4654
        28.2504         22.0004
  20897615.3134    -468903.63746   -337711.46047                  20897620.3054
        18.2504         30.0004
 00  5  9 19 16  0.0000000  0  6G 5G 6G10G17G24G30
  20716250.6804    1089714.20247    807515.12447                  20716256.6564
        27.0004         28.5004
  22677391.1254   -1077813.51246   -792752.80846                  22677397.4414
        17.5004         15.0004
  21145504.7504    -368941.57648   -265038.26247                  21145511.2194
        32.0004         28.2504
  24220746.8284   -1497929.69945  -1024333.19245                  24220760.2974
        11.7504         10.5004
  21884568.7894    1723574.99448   1263206.53146                  21884576.0944
        28.5004         22.0004
  20895989.2504    -477449.46546   -344370.54047                  20895994.4774
        18.2504         30.0004
 00  5  9 19 16 15.0000000  0  6G 5G 6G10G17G24G30
  20721790.4454    1118826.30948    830199.85047                  20721796.4344
        31.2504         28.5004
  22672581.2424   -1103090.80546   -812449.35446                  22672589.0044
        15.7504         15.2504
  21144459.9224    -374431.83948   -269316.37347                  21144466.4144
        32.0004         28.2504
  24214162.0864   -1532530.87345  -1051295.02345                  24214175.3674
        11.7504         11.0004
  21892629.8754    1765935.02648   1296214.30446                  21892637.1684
        28.5004         21.7504
  20894392.1564    -485841.54646   -350909.82247                  20894397.4414
        18.2504         29.7504
 00  5  9 19 16 30.0000000  0  6G 5G 6G10G17G24G30
  20727357.8914    1148083.26848    852997.44747                  20727363.9614
        31.7504         28.2504
  22667776.6254   -1128338.83346   -832123.09546                  22667784.0944
        17.5004         15.2504
  21143446.8364    -379755.97248   -273465.03047                  21143453.2704
        31.7504         27.7504
  24207589.7424   -1567068.49646  -1078207.34045                  24207602.2854
        12.2504         11.7504
  21900700.9304    1808348.60748   1329263.80846                  21900708.3404
        28.5004         21.7504
  20892824.2894    -494080.55346   -357329.82647                  20892829.3634
        18.5004         29.7504
 00  5  9 19 16 45.0000000  0  6G 5G 6G10G17G24G30
  20732952.6484    1177483.61548    875906.78547                  20732958.5904
        32.2504         28.2504
  22662977.6414   -1153558.77446   -851774.97746                  22662984.8054
        17.5004         15.5004
  21142465.2034    -384915.11848   -277485.12947                  21142471.4384
        31.5004         28.0004
  24201029.3754   -1601543.71646  -1105071.02145                  24201041.6954
        12.2504         11.5004
  21908781.8134    1850814.19648   1362353.83446                  21908788.9884
        28.7504         21.5004
  20891285.4534    -502167.69746   -363631.48947                  20891290.4454
        18.7504         30.0004
 00  5  9 19 17  0.0000000  0  6G 5G 6G10G17G24G30
  20738575.3204    1207030.47648    898930.28647                  20738581.4144
        31.5004         28.0004
  22658184.0944   -1178747.25146   -871402.31846                  22658191.8444
        18.5004         16.0004
  21141515.2814    -389905.85748   -281373.99647                  21141521.7974
        31.2504         28.0004
  24194481.5784   -1635953.17246  -1131883.48245                  24194494.6954
        12.5004         11.7504
  21916873.5004    1893334.82848   1395486.74846                  21916880.5234
        28.7504         21.7504
  20889776.1094    -510099.49346   -369812.10747                  20889781.2894
        18.2504         29.7504
 00  5  9 19 17 15.0000000  0  6G 5G 6G10G17G24G30
  20744225.8984    1236724.03148    922068.09747                  20744231.8754
        28.2504         28.5004
  22653397.2504   -1203903.91246   -891004.87646                  22653404.3204
        19.2504         15.7504
  21140597.5704    -394727.83948   -285131.36547                  21140604.2154
        31.0004         28.0004
  24187946.1954   -1670296.55346  -1158644.43845                  24187958.9024
        12.0004         11.7504
  21924975.1954    1935910.49048   1428662.54646                  21924982.2074
        28.2504         21.7504
  20888296.2974    -517875.43546   -375871.28247                  20888301.4774
        18.2504         29.7504
 00  5  9 19 17 30.0000000  0  6G 5G 6G10G17G24G30
  20749904.1884    1266564.16547    945320.12547                  20749910.2234
        27.0004         28.5004
  22648616.2274   -1229028.55946   -910582.49946                  22648623.3444
        17.7504         16.2504
  21139712.3524    -399380.84448   -288757.06647                  21139719.2344
        31.5004         28.2504
  24181422.8364   -1704573.68045  -1185353.75546                  24181435.7074
        11.2504         12.2504
  21933087.6254    1978541.17648   1461881.22046                  21933094.9414
        28.0004         21.7504
  20886846.3834    -525495.17546   -381808.74447                  20886851.3524
        18.2504         29.7504
 00  5  9 19 17 45.0000000  0  6G 5G 6G10G17G24G30
  20755610.7504    1296551.52847    968686.87947                  20755616.7974
        25.5004         28.7504
  22643841.2344   -1254120.41346   -930134.55546                  22643848.3284
        18.2504         15.7504
  21138859.1094    -403864.03548   -292250.44447                  21138865.8364
        31.7504         28.5004
  24174912.6954   -1738783.72045  -1212010.83045                  24174925.7424
        11.5004         11.7504
  21941210.6954    2021227.30447   1495143.09246                  21941218.3284
        27.7504         21.5004
  20885426.3284    -532957.92846   -387623.87447                  20885431.0984
        19.0004         30.0004
 00  5  9 19 18  0.0000000  0  6G 5G 6G10G17G24G30
  20761345.2344    1326686.50547    992168.64647                  20761351.2114
        23.2504         28.7504
  22639072.8134   -1279178.86046   -949660.57746                  22639080.1884
        17.7504         16.0004
  21138038.2194    -408176.80148   -295611.03347                  21138045.0634
        30.7504         28.5004
  24168415.6954   -1772926.04646  -1238615.12545                  24168428.9064
        12.2504         11.5004
  21949344.0314    2063969.06947   1528448.30946                  21949351.3834
        27.7504         21.5004
  20884036.0864    -540262.96546   -393316.10747                  20884040.8444
        18.7504         30.0004
 00  5  9 19 18 15.0000000  0  6G 5G 6G10G17G24G30
  20767108.0634    1356969.62447   1015765.84747                  20767114.1564
        21.5004         28.7504
  22634310.6484   -1304203.07446   -969159.93346                  22634318.2234
        17.0004         16.0004
  21137250.1334    -412318.22848   -298838.09847                  21137257.1914
        30.7504         28.2504
  24161932.0554   -1806999.75646  -1265165.96446                  24161945.8164
        12.2504         12.0004
  21957488.6254    2106767.12648   1561797.39546                  21957495.8014
        28.2504         21.7504
  20882676.2114    -547409.39646   -398884.75347                  20882681.2854
        18.2504         29.7504
 00  5  9 19 18 30.0000000  0  6G 5G 6G10G17G24G30
  20772898.7504    1387400.07747   1039477.85047                  20772904.7624
        20.2504         28.5004
  22629554.9064   -1329193.76446   -988633.15946                  22629562.0594
        19.0004         15.7504
  21136494.8134    -416288.88748   -301932.09947                  21136501.9064
        31.2504         28.2504
  24155460.2274   -1841005.61246  -1291663.94246                  24155473.9884
        12.2504         12.2504
  21965643.1254    2149620.45948   1595189.56246                  21965650.2074
        29.0004         21.7504
  20881346.5314    -554397.71646   -404330.19647                  20881351.8524
        18.0004         29.7504
 00  5  9 19 18 45.0000000  0  6G 5G 6G10G17G24G30
  20778717.7664    1417978.59047   1063305.23247                  20778723.6254
        20.5004         28.5004
  22624806.1884   -1354149.85746  -1008079.43446                  22624813.3524
        18.7504         16.0004
  21135771.7424    -420087.69148   -304892.19247                  21135778.8834
        31.7504         28.2504
  24149002.6254   -1874942.48846  -1318108.17546                  24149016.4924
        13.0004         12.0004
  21973808.5314    2192529.70848   1628625.28846                  21973815.6134
        28.7504         21.5004
  20880046.8754    -561226.80446   -409651.56847                  20880052.2544
        18.2504         29.7504
 00  5  9 19 19  0.0000000  0  6G 5G 6G10G17G24G30
  20784565.0704    1448706.99447   1087249.41347                  20784570.9884
        26.7504         27.7504
  22620064.1334   -1379069.26946  -1027497.10946                  22620070.6604
        19.2504         16.2504
  21135082.0864    -423712.57348   -307716.76447                  21135088.9064
        31.7504         28.2504
  24142557.7814   -1908808.39546  -1344497.09146                  24142571.4964
        13.5004         12.2504
  21981984.8364    2235496.68648   1662106.00546                  21981991.8484
        28.7504         21.2504
  20878777.9694    -567894.50246   -414847.17147                  20878783.3134
        18.2504         30.0004
 00  5  9 19 19 15.0000000  0  6G 5G 6G10G17G24G30
  20790440.6724    1479582.77847   1111308.43547                  20790446.6024
        27.5004         27.7504
  22615328.8524   -1403954.25547  -1046887.97546                  22615334.9574
        20.2504         16.2504
  21134424.7584    -427165.80948   -310407.58447                  21134431.5904
        31.7504         28.2504
  24136126.6094   -1942605.66046  -1370832.52046                  24136140.2194
        14.2504         12.5004
  21990171.7664    2278518.85247   1695629.72146                  21990178.4454
        27.7504         20.7504
  20877539.3834    -574402.97446   -419918.70347                  20877544.8554
        18.2504         29.7504
 00  5  9 19 19 30.0000000  0  6G 5G 6G10G17G24G30
  20796343.9614    1510605.71448   1135482.11747                  20796349.9844
        32.5004         27.2504
  22610599.7814   -1428804.88446  -1066252.07446                  22610606.8874
        19.7504         16.5004
  21133800.4224    -430447.38648   -312964.64347                  21133807.5274
        31.5004         28.2504
  24129708.3284   -1976334.22646  -1397114.42546                  24129721.8444
        14.5004         13.0004
  21998369.0004    2321595.95848   1729196.25446                  21998375.8714
        28.2504         20.7504
  20876331.1954    -580752.17246   -424866.13647                  20876336.6214
        18.2504         29.7504
 00  5  9 19 19 45.0000000  0  6G 5G 6G10G17G24G30
  20802275.9534    1541778.32448   1159772.43747                  20802281.9654
        32.2504         27.5004
  22605877.6954   -1453618.27046  -1085587.14146                  22605884.0354
        19.2504         16.5004
  21133209.1334    -433554.51648   -315385.76847                  21133216.1214
        31.7504         28.2504
  24123303.1414   -2009991.37246  -1423340.68746                  24123315.9064
        14.5004         12.7504
  22006577.1884    2364730.28648   1762807.37346                  22006584.3874
        28.0004         21.0004
  20875153.9694    -586939.25446   -429687.24147                  20875159.3954
        18.2504         30.0004
 00  5  9 19 20  0.0000000  0  6G 5G 6G10G17G24G30
  20808235.6334    1573097.01048   1184176.57347                  20808241.6684
        32.5004         27.7504
  22601162.5394   -1478397.72746  -1104895.77946                  22601169.3364
        18.7504         16.7504
  21132650.4614    -436490.50148   -317673.53147                  21132657.4614
        31.7504         28.0004
  24116911.3444   -2043580.38746  -1449513.84546                  24116924.0514
        14.5004         12.2504
  22014796.0234    2407918.26247   1796460.29446                  22014803.4454
        27.7504         21.0004
  20874006.6644    -592967.57946   -434384.63347                  20874011.7034
        18.5004         30.0004
 00  5  9 19 20 15.0000000  0  6G 5G 6G10G17G24G30
  20814223.7974    1604563.82448   1208696.13747                  20814229.8674
        32.5004         27.7504
  22596454.0164   -1503141.10046  -1124176.28346                  22596461.0744
        18.2504         16.7504
  21132124.6724    -439252.92848   -319826.05947                  21132131.6604
        32.0004         28.0004
  24110533.0164   -2077099.00646  -1475632.12446                  24110545.4774
        14.7504         13.0004
  22023024.6954    2451161.77347   1830156.48246                  22023032.0704
        27.5004         21.2504
  20872890.3284    -598834.74746   -438956.45347                  20872895.2624
        18.5004         30.0004
 00  5  9 19 20 30.0000000  0  6G 5G 6G10G17G24G30
  20820240.2734    1636180.16048   1233332.21147                  20820246.2504
        30.7504         28.2504
  22591752.3524   -1527846.71646  -1143427.37946                  22591760.0784
        19.2504         16.7504
  21131632.3834    -441840.16948   -321842.07647                  21131639.3954
        31.5004         27.7504
  24104168.4144   -2110545.62646  -1501694.34546                  24104180.9694
        14.7504         12.5004
  22031264.4064    2494462.08247   1863896.93546                  22031271.8284
        27.2504         21.0004
  20871804.8594    -604539.06446   -443401.37447                  20871809.8284
        18.5004         30.0004
 00  5  9 19 20 45.0000000  0  6G 5G 6G10G17G24G30
  20826284.8984    1667944.51748   1258083.62747                  20826290.9344
        29.2504         28.5004
  22587058.1254   -1552515.94546  -1162650.12346                  22587065.2194
        18.5004         16.5004
  21131173.0864    -444253.58448   -323722.65047                  21131180.0634
        31.5004         27.5004
  24097816.9144   -2143921.58046  -1527701.49646                  24097829.5744
        14.2504         12.2504
  22039515.0634    2537817.72547   1897680.50746                  22039522.7894
        27.7504         21.2504
  20870749.9454    -610081.63746   -447720.26347                  20870755.2304
        18.5004         29.7504
 00  5  9 19 21  0.0000000  0  6G 5G 6G10G17G24G30
  20832357.6414    1699857.82647   1282951.11247                  20832363.6994
        27.7504         28.5004
  22582370.6254   -1577147.55046  -1181843.54646                  22582378.0474
        19.5004         16.2504
  21130747.3364    -446491.81448   -325466.71347                  21130754.1954
        32.0004         27.5004
  24091479.1024   -2177225.68646  -1553652.65746                  24091491.2814
        13.5004         12.0004
  22047776.0704    2581229.33847   1931507.69546                  22047783.6914
        27.5004         21.0004
  20869726.4924    -615461.31246   -451912.21747                  20869731.7544
        18.5004         30.0004
 00  5  9 19 21 15.0000000  0  6G 5G 6G10G17G24G30
  20838457.9774    1731915.36548   1307930.97347                  20838464.0354
        32.2504         28.0004
  22577689.8444   -1601745.93046  -1201011.09046                  22577696.6524
        19.5004         16.0004
  21130353.8204    -448559.33548   -327077.76147                  21130360.3954
        32.0004         27.5004
  24085154.0234   -2210462.31146  -1579551.23146                  24085167.5044
        13.2504         12.2504
  22056046.6804    2624692.42347   1965374.98246                  22056054.3594
        26.7504         21.0004
  20868732.6884    -620682.33646   -455980.55247                  20868737.9964
        18.5004         30.0004
 00  5  9 19 21 30.0000000  0  6G 5G 6G10G17G24G30
  20844586.2504    1764119.75848   1333025.27447                  20844592.2854
        32.2504         28.2504
  22573015.8364   -1626308.20446  -1220150.49846                  22573022.7664
        19.7504         16.7504
  21129993.4144    -450453.39448   -328553.64647                  21130000.2584
        32.2504         27.7504
  24078842.7734   -2243628.60946  -1605395.00646                  24078856.6414
        12.7504         12.0004
  22064327.6954    2668209.45347   1999284.31846                  22064335.2464
        26.7504         21.0004
  20867770.1484    -625741.85146   -459923.03547                  20867775.3164
        18.7504         30.2504
 00  5  9 19 21 45.0000000  0  6G 5G 6G10G17G24G30
  20850742.3914    1796469.94048   1358233.17247                  20850748.4144
        32.2504         28.0004
  22568348.3754   -1650835.24946  -1239262.44746                  22568355.0554
        19.0004         16.7504
  21129665.7344    -452174.65948   -329894.88047                  21129672.4264
        31.5004         27.7504
  24072544.3524   -2276725.38346  -1631184.62146                  24072557.9614
        12.7504         12.5004
  22072618.7504    2711779.28747   2033234.79346                  22072626.3134
        26.7504         20.7504
  20866837.9694    -630640.57546   -463740.21847                  20866843.1374
        18.7504         30.2504
 00  5  9 19 22  0.0000000  0  6G 5G 6G10G17G24G30
  20856926.5784    1828968.16348   1383556.43447                  20856932.6024
        32.0004         27.5004
  22563688.1174   -1675324.51646  -1258344.97446                  22563694.8914
        18.5004         16.5004
  21129371.5234    -453720.61748   -331099.51247                  21129378.4414
        31.7504         27.7504
  24066259.9844   -2309750.07946  -1656918.05245                  24066273.5354
        13.0004         11.7504
  22080920.1414    2755404.03147   2067228.05546                  22080927.5864
        27.2504         20.5004
  20865936.8054    -635375.90346   -467430.08747                  20865941.9844
        18.5004         30.0004
 00  5  9 19 22 15.0000000  0  6G 5G 6G10G17G24G30
  20863139.0474    1861615.04548   1408995.53547                  20863145.0354
        31.2504         27.5004
  22559035.5634   -1699775.14446  -1277397.37046                  22559042.5164
        19.5004         16.7504
  21129110.8204    -455090.42048   -332166.87747                  21129117.8324
        31.7504         27.7504
  24059989.7194   -2342701.94646  -1682594.74846                  24060002.6954
        12.7504         12.2504
  22089232.4844    2799084.39847   2101264.66346                  22089239.8484
        26.2504         20.0004
  20865066.9924    -639946.97146   -470991.96147                  20865072.2894
        18.2504         30.0004
 00  5  9 19 22 30.0000000  0  6G 5G 6G10G17G24G30
  20869379.7814    1894410.14048   1434550.11447                  20869385.8054
        31.7504         27.2504
  22554389.8984   -1724187.27747  -1296419.79846                  22554396.6954
        20.0004         17.0004
  21128883.8134    -456284.30548   -333097.17047                  21128890.7544
        31.2504         28.0004
  24053732.8284   -2375581.15846  -1708214.83446                  24053745.6414
        13.2504         12.5004
  22097554.8914    2842819.80947   2135344.15946                  22097562.1134
        26.0004         20.0004
  20864228.5004    -644353.82446   -474425.87347                  20864233.6804
        18.5004         30.2504
 00  5  9 19 22 45.0000000  0  6G 5G 6G10G17G24G30
  20875649.0084    1927354.61648   1460221.09547                  20875655.0554
        32.0004         27.2504
  22549752.2344   -1748559.51847  -1315411.10946                  22549759.0204
        20.2504         17.2504
  21128690.1884    -457300.86848   -333889.29047                  21128696.8674
        31.7504         28.0004
  24047490.3134   -2408386.31146  -1733777.19546                  24047503.3484
        13.0004         12.5004
  22105888.3204    2886611.34847   2169467.39046                  22105895.5314
        25.5004         20.0004
  20863421.2274    -648595.09046   -477730.75547                  20863426.4774
        18.7504         30.2504
 00  5  9 19 23  0.0000000  0  6G 5G 6G10G17G24G30
  20881946.1024    1960445.37548   1486006.06447                  20881952.0904
        32.2504         27.2504
  22545120.9924   -1772894.70846  -1334373.57846                  22545127.9804
        19.5004         17.0004
  21128529.9774    -458142.86048   -334545.38747                  21128536.6094
        31.2504         27.7504
  24041261.3054   -2441120.20646  -1759284.05446                  24041273.8954
        13.2504         12.2504
  22114231.7034    2930455.90547   2203631.92946                  22114238.9844
        26.0004         19.5004
  20862645.3054    -652673.49746   -480908.74047                  20862650.6724
        18.5004         30.0004
 00  5  9 19 23 15.0000000  0  6G 5G 6G10G17G24G30
  20888270.8594    1993682.19448   1511904.85147                  20888276.8364
        32.2504         27.5004
  22540497.3594   -1797192.81346  -1353307.13846                  22540504.3594
        19.2504         17.0004
  21128402.8054    -458810.34248   -335065.50047                  21128409.5784
        30.7504         28.0004
  24035045.8834   -2473782.88446  -1784735.40546                  24035058.6604
        13.5004         12.5004
  22122585.1884    2974353.13347   2237837.50946                  22122592.2344
        25.5004         20.0004
  20861900.1804    -656588.94746   -483959.75047                  20861905.3834
        18.5004         30.5004
 00  5  9 19 23 30.0000000  0  6G 5G 6G10G17G24G30
  20894623.7584    2027066.89848   1537918.86947                  20894629.7114
        29.5004         28.0004
  22535880.9774   -1821451.78546  -1372210.19446                  22535888.2934
        19.0004         16.7504
  21128309.6024    -459301.11048   -335447.90847                  21128316.5904
        31.0004         27.7504
  24028844.5474   -2506372.33846  -1810129.69746                  24028857.1374
        13.2504         12.5004
  22130948.8054    3018304.83947   2272085.53546                  22130955.9574
        26.0004         19.5004
  20861186.6484    -660339.29846   -486882.10547                  20861191.6764
        19.2504         30.7504
 00  5  9 19 23 45.0000000  0  6G 5G 6G10G17G24G30
  20901005.6334    2060602.83147   1564050.73447                  20901011.5394
        25.5004         28.0004
  22531272.9144   -1845667.91546  -1391079.88246                  22531280.1374
        19.5004         17.0004
  21128250.2734    -459611.50848   -335689.77247                  21128257.3674
        31.2504         28.2504
  24022656.9064   -2538884.85746  -1835464.04446                  24022669.1914
        13.7504         12.7504
  22139323.5554    3062314.27747   2306378.55546                  22139330.7544
        26.2504         19.7504
  20860505.0234    -663920.97746   -489673.01947                  20860510.0984
        19.2504         30.5004
 00  5  9 19 24  0.0000000  0  6G 5G 6G10G17G24G30
  20907415.9614    2094288.36347   1590299.16447                  20907421.9264
        23.2504         28.5004
  22526672.2194   -1869842.62246  -1409917.28946                  22526679.3714
        18.7504         17.0004
  21128225.2344    -459743.04348   -335792.26247                  21128232.3284
        31.5004         28.5004
  24016484.8444   -2571321.90846  -1860739.58146                  24016496.8834
        14.0004         12.7504
  22147709.0164    3106379.71047   2340715.20646                  22147715.9224
        26.5004         19.5004
  20859855.2114    -667335.09146   -492333.37347                  20859860.5554
        18.7504         30.2504
 00  5  9 19 24 15.0000000  0  6G 5G 6G10G17G24G30
  20913854.0784    2128122.75147   1616663.58747                  20913860.0784
        23.2504         28.7504
  22522079.9064   -1893976.36146  -1428722.77546                  22522087.3404
        18.5004         17.2504
  21128234.3134    -459696.14448   -335755.71047                  21128241.2774
        30.5004         28.2504
  24010326.2734   -2603683.98046  -1885956.67746                  24010338.4774
        14.2504         13.0004
  22156104.9614    3150500.50947   2375094.99846                  22156111.7584
        26.7504         19.5004
  20859237.3284    -670582.24346   -494863.63047                  20859242.5554
        18.2504         30.5004
 00  5  9 19 24 30.0000000  0  6G 5G 6G10G17G24G30
  20920320.8054    2162105.17348   1643143.35747                  20920326.9104
        31.7504         28.7504
  22517495.1414   -1918069.69446  -1447496.76646                  22517502.5394
        18.5004         17.5004
  21128276.9924    -459471.27248   -335580.47847                  21128284.0514
        30.2504         28.2504
  24004182.0084   -2635971.55446  -1911115.73346                  24004193.9774
        14.2504         12.7504
  22164511.3134    3194675.77647   2409517.23246                  22164518.5474
        25.2504         19.5004
  20858651.1954    -673662.77046   -497264.04147                  20858656.1524
        19.0004         30.2504
 00  5  9 19 24 45.0000000  0  6G 5G 6G10G17G24G30
  20926815.4224    2196234.98648   1669737.98347                  20926821.6214
        32.0004         28.2504
  22512918.1024   -1942122.90746  -1466239.48846                  22512925.0554
        19.5004         17.7504
  21128353.8364    -459068.86448   -335266.90347                  21128360.8244
        31.5004         28.0004
  23998051.8834   -2668185.03046  -1936217.06046                  23998063.1604
        14.2504         12.5004
  22172927.8444    3238904.71747   2443981.28646                  22172935.3134
        25.2504         19.5004
  20858096.4384    -676577.05646   -499534.91747                  20858101.4184
        18.7504         30.2504
 00  5  9 19 25  0.0000000  0  6G 5G 6G10G17G24G30
  20933338.5004    2230513.26548   1696448.29647                  20933344.7584
        31.5004         28.0004
  22508348.6644   -1966134.67746  -1484949.93946                  22508355.6994
        18.7504         17.2504
  21128464.2814    -458487.60648   -334813.97347                  21128471.1024
        31.7504         28.2504
  23991936.0164   -2700323.00646  -1961259.53146                  23991948.4534
        14.2504         13.0004
  22181354.8444    3283188.52847   2478488.09246                  22181362.2194
        25.2504         19.5004
  20857573.7974    -679323.73546   -501675.19247                  20857579.1294
        18.2504         30.0004
 00  5  9 19 25 15.0000000  0  6G 5G 6G10G17G24G30
  20939889.7114    2264940.98648   1723275.06247                  20939895.9694
        31.2504         27.2504
  22503787.1334   -1990103.77346  -1503627.13046                  22503794.0164
        18.5004         17.0004
  21128609.1174    -457726.34248   -334220.77947                  21128615.6804
        31.5004         27.7504
  23985835.0314   -2732384.30446  -1986242.25146                  23985847.4694
        14.5004         12.0004
  22189792.3284    3327528.09247   2513038.35746                  22189799.9024
        25.5004         19.7504
  20857083.4694    -681901.52546   -503683.86447                  20857088.9304
        18.5004         30.0004
 00  5  9 19 25 30.0000000  0  6G 5G 6G10G17G24G30
  20946469.1644    2299516.01348   1750216.60947                  20946475.3164
        31.2504         27.2504
  22499234.0164   -2014032.02346  -1522272.49446                  22499240.6604
        19.7504         17.2504
  21128787.8594    -456786.94648   -333488.77847                  21128794.5864
        31.2504         27.7504
  23979748.2344   -2764370.76346  -2011166.68946                  23979760.9654
        14.0004         12.2504
  22198240.0314    3371921.16047   2547630.30146                  22198247.9224
        25.2504         20.0004
  20856624.7424    -684312.16446   -505562.29547                  20856629.8874
        19.0004         30.2504
 00  5  9 19 25 45.0000000  0  6G 5G 6G10G17G24G30
  20953076.7114    2334238.17848   1777272.80747                  20953082.6644
        31.2504         27.5004
  22494688.3134   -2037919.36446  -1540885.98046                  22494695.6174
        19.2504         17.2504
  21129000.6414    -455669.26548   -332617.84747                  21129007.2974
        31.5004         27.7504
  23973675.1024   -2796282.41846  -2036032.80246                  23973687.2114
        13.2504         12.0004
  22206697.8444    3416367.60147   2582263.83846                  22206705.7814
        25.0004         20.0004
  20856197.8284    -686555.58546   -507310.41547                  20856202.7734
        18.7504         30.2504
 00  5  9 19 26  0.0000000  0  6G 5G 6G10G17G24G30
  20959712.7814    2369111.18248   1804446.54547                  20959718.9104
        31.5004         27.2504
  22490151.2974   -2061761.77546  -1559464.45146                  22490158.3554
        19.7504         17.2504
  21129247.9384    -454369.29948   -331604.88347                  21129254.7344
        31.7504         28.5004
  23967617.5234   -2828115.31946  -2060837.56345                  23967630.2544
        12.2504         11.2504
  22215166.7344    3460870.98747   2616941.74946                  22215174.8244
        25.0004         20.2504
  20855803.3134    -688627.92646   -508925.22947                  20855808.4924
        18.5004         30.0004
 00  5  9 19 26 15.0000000  0  6G 5G 6G10G17G24G30
  20966376.7114    2404129.55848   1831733.55347                  20966382.9104
        32.0004         27.2504
  22485621.7344   -2085564.49046  -1578012.00146                  22485628.7934
        19.2504         17.7504
  21129529.1564    -452892.25348   -330453.93247                  21129535.8244
        32.2504         28.5004
  23961573.7424   -2859874.68646  -2085585.03745                  23961586.3324
        12.5004         11.7504
  22223645.3054    3505425.85547   2651659.77546                  22223653.2194
        25.2504         20.5004
  20855440.5944    -690534.12446   -510410.58847                  20855445.8204
        18.5004         30.2504
 00  5  9 19 26 30.0000000  0  6G 5G 6G10G17G24G30
  20973068.7034    2439296.35548   1859136.21047                  20973074.7734
        31.7504         27.2504
  22481100.1564   -2109324.13446  -1596525.98146                  22481107.1214
        18.0004         17.5004
  21129844.4144    -451234.88248   -329162.47047                  21129851.3204
        31.7504         28.5004
  23955544.1954   -2891557.14146  -2110272.56945                  23955557.1724
        12.2504         11.2504
  22232134.2114    3550035.31947   2686420.33446                  22232142.0664
        26.2504         20.5004
  20855110.0474    -692270.85946   -511763.89747                  20855115.1334
        18.5004         30.2504
 00  5  9 19 26 45.0000000  0  6G 5G 6G10G17G24G30
  20979788.3674    2474607.94048   1886651.69247                  20979794.6024
        31.7504         27.2504
  22476586.5704   -2133044.17646  -1615009.09246                  22476594.0044
        18.7504         17.7504
  21130193.3444    -449400.59648   -327733.14747                  21130200.1414
        32.5004         28.2504
  23949529.4064   -2923166.16645  -2134902.88045                  23949542.6644
        11.7504         11.2504
  22240633.0474    3594695.54147   2721220.45246                  22240640.9614
        25.5004         20.5004
  20854811.3134    -693841.38346   -512987.68347                  20854816.3754
        18.5004         30.2504
 00  5  9 19 27  0.0000000  0  6G 5G 6G10G17G24G30
  20986536.2034    2510067.94648   1914282.82247                  20986542.1914
        31.7504         27.0004
  22472080.8204   -2156720.63446  -1633458.25346                  22472088.1844
        19.5004         17.7504
  21130577.1414    -447385.49048   -326162.92947                  21130583.4344
        32.2504         28.2504
  23943529.0634   -2954697.80346  -2159472.90845                  23943541.3244
        12.0004         11.5004
  22249141.9144    3639410.26747   2756063.04446                  22249150.1914
        25.2504         20.7504
  20854544.7664    -695241.92246   -514079.01547                  20854549.8634
        18.5004         30.2504
 00  5  9 19 27 15.0000000  0  6G 5G 6G10G17G24G30
  20993312.2274    2545675.44348   1942028.88347                  20993318.2854
        32.0004         27.5004
  22467583.3984   -2180354.05546  -1651873.87946                  22467590.3874
        18.0004         17.7504
  21130994.7734    -445190.14548   -324452.27047                  21131001.1484
        32.0004         28.2504
  23937543.9924   -2986152.69546  -2183983.08946                  23937556.2774
        13.5004         12.2504
  22257661.4694    3684178.48647   2790947.30646                  22257669.3364
        26.0004         20.5004
  20854310.2734    -696472.93446   -515038.24747                  20854315.4304
        18.5004         30.0004
 00  5  9 19 27 30.0000000  0  6G 5G 6G10G17G24G30
  21000116.0394    2581430.20948   1969889.70547                  21000122.1094
        32.2504         27.7504
  22463094.7114   -2203944.39046  -1670255.92946                  22463101.7704
        19.2504         18.0004
  21131446.8134    -442814.66848   -322601.24747                  21131453.1524
        31.7504         28.0004
  23931572.4614   -3017530.78146  -2208433.45846                  23931584.8634
        14.2504         12.5004
  22266190.6954    3728999.98047   2825873.08446                  22266198.5864
        26.7504         20.5004
  20854108.4924    -697534.33946   -515865.32347                  20854113.6374
        18.5004         30.0004
 00  5  9 19 27 45.0000000  0  6G 5G 6G10G17G24G30
  21006947.7504    2617330.69648   1997864.07047                  21006954.1134
        31.2504         27.7504
  22458613.7274   -2227492.94646  -1688605.43146                  22458621.0204
        19.7504         18.0004
  21131932.9694    -440260.32048   -320610.84147                  21131939.4144
        32.5004         28.0004
  23925616.2584   -3048833.31846  -2232824.95546                  23925628.3444
        14.7504         12.7504
  22274729.7974    3773873.12347   2860839.11646                  22274737.8164
        27.0004         20.5004
  20853938.5864    -698427.37646   -516561.20047                  20853943.6724
        18.7504         30.2504
 00  5  9 19 28  0.0000000  0  6G 5G 6G10G17G24G30
  21013807.3984    2653378.80048   2025953.46347                  21013813.9024
        30.5004         27.5004
  22454140.7584   -2250997.56147  -1706920.69246                  22454148.1334
        20.0004         18.5004
  21132453.5704    -437525.05748   -318479.46447                  21132459.8164
        31.0004         28.5004
  23919673.9064   -3080058.34746  -2257156.02946                  23919686.2274
        14.7504         13.0004
  22283278.8914    3818799.72147   2895846.79446                  22283286.5124
        26.5004         20.5004
  20853801.0314    -699149.94846   -517124.24847                  20853806.1524
        18.7504         30.5004
 00  5  9 19 28 15.0000000  0  6G 5G 6G10G17G24G30
  21020694.7664    2689573.32248   2054156.94947                  21020701.2464
        30.0004         27.2504
  22449676.3364   -2274459.08147  -1725202.36946                  22449683.1804
        20.5004         18.5004
  21133008.3524    -434609.59148   -316207.66947                  21133014.6914
        30.5004         28.5004
  23913746.7344   -3111206.64446  -2281427.31746                  23913758.7854
        14.7504         13.0004
  22291837.9224    3863778.69247   2930895.28346                  22291846.0004
        25.5004         20.0004
  20853695.8914    -699702.83746   -517555.07747                  20853701.3054
        18.2504         30.0004
 00  5  9 19 28 30.0000000  0  6G 5G 6G10G17G24G30
  21027610.3594    2725913.82748   2082474.19447                  21027616.7344
        30.5004         27.0004
  22445219.9694   -2297877.67847  -1743450.60346                  22445226.6844
        21.5004         18.7504
  21133597.1804    -431514.20848   -313795.67247                  21133603.4614
        31.7504         28.0004
  23907833.6884   -3142278.40746  -2305638.96546                  23907844.9654
        14.2504         13.0004
  22300407.0554    3908809.50547   2965984.16946                  22300415.0634
        24.7504         19.5004
  20853623.0234    -700086.19946   -517853.80747                  20853628.3444
        18.5004         30.0004
 00  5  9 19 28 45.0000000  0  6G 5G 6G10G17G24G30
  21034553.1954    2762399.23348   2110904.34747                  21034559.5594
        30.7504         27.2504
  22440771.3444   -2321254.01747  -1761665.91046                  22440778.1764
        20.0004         18.5004
  21134220.4224    -428239.85648   -311244.21947                  21134226.8914
        31.7504         28.0004
  23901935.1954   -3173274.40146  -2329791.58546                  23901947.0594
        14.0004         13.0004
  22308985.9064    3953891.09647   3001112.61446                  22308993.9844
        24.7504         19.5004
  20853582.2734    -700300.81346   -518021.04447                  20853587.3244
        18.7504         30.5004
 00  5  9 19 29  0.0000000  0  6G 5G 6G10G17G24G30
  21041524.8444    2799034.17448   2139451.02447                  21041531.1024
        31.7504         27.7504
  22436331.8054   -2344583.20847  -1779844.46046                  22436339.2034
        20.2504         18.7504
  21134878.5864    -424781.49548   -308549.38847                  21134884.9964
        31.5004         27.7504
  23896051.5864   -3204189.74046  -2353881.33246                  23896063.6604
        13.2504         12.7504
  22317574.9304    3999028.10747   3036284.26246                  22317583.1374
        24.7504         19.5004
  20853574.4694    -700341.61346   -518052.83447                  20853579.5784
        18.7504         30.5004
 00  5  9 19 29 15.0000000  0  6G 5G 6G10G17G24G30
  21048523.8834    2835814.09148   2168110.65747                  21048530.1414
        32.0004         28.0004
  22431900.6644   -2367869.55447  -1797989.63946                  22431908.0274
        20.7504         18.7504
  21135570.8134    -421143.46048   -305714.55147                  21135576.9534
        32.2504         27.7504
  23890183.3444   -3235028.77746  -2377911.64746                  23890196.2504
        13.0004         12.0004
  22326173.8914    4044215.93347   3071495.50246                  22326182.5664
        23.7504         19.7504
  20853598.8364    -700212.86546   -517952.51947                  20853604.0164
        18.5004         30.2504
 00  5  9 19 29 30.0000000  0  6G 5G 6G10G17G24G30
  21055550.0164    2872736.72048   2196881.49247                  21055556.3094
        32.0004         27.7504
  22427477.2344   -2391114.89947  -1816102.87146                  22427484.3404
        21.2504         19.0004
  21136296.7424    -417327.81948   -302741.31747                  21136302.8484
        32.5004         27.2504
  23884328.6954   -3265793.48546  -2401884.03046                  23884340.8404
        12.7504         12.0004
  22334782.3914    4089452.32647   3106744.57546                  22334791.1484
        24.2504         19.7504
  20853655.5164    -699916.55546   -517721.63647                  20853660.6954
        18.5004         30.2504
 00  5  9 19 29 45.0000000  0  6G 5G 6G10G17G24G30
  21062604.6724    2909808.17148   2225768.28947                  21062610.7774
        31.7504         27.2504
  22423062.9304   -2414312.87447  -1834179.19446                  22423069.8954
        22.0004         18.7504
  21137057.9384    -413328.10448   -299624.64647                  21137064.0204
        32.5004         27.5004
  23878489.7664   -3296477.48446  -2425793.54945                  23878501.7814
        12.2504         11.7504
  22343401.0474    4134743.35447   3142036.23746                  22343409.2304
        25.0004         19.5004
  20853744.6804    -699446.31646   -517355.21847                  20853749.7664
        18.5004         30.5004
 00  5  9 19 30  0.0000000  0  6G 5G 6G10G17G24G30
  21069686.1094    2947022.27748   2254766.24847                  21069692.2034
        31.7504         27.0004
  22418656.2424   -2437469.39047  -1852223.20046                  22418663.4534
        21.7504         19.2504
  21137852.8984    -409150.31248   -296369.21347                  21137859.0744
        31.7504         27.2504
  23872664.9384   -3327086.65646  -2449644.75946                  23872676.7544
        12.7504         12.0004
  22352029.2894    4180082.91147   3177365.70546                  22352037.5554
        25.5004         20.0004
  20853866.1094    -698808.06746   -516857.88247                  20853871.1724
        18.2504         30.2504
 00  5  9 19 30 15.0000000  0  6G 5G 6G10G17G24G30
  21076795.6174    2984381.01848   2283876.91647                  21076801.7934
        32.0004         26.7504
  22414257.7974   -2460582.15847  -1870233.12546                  22414264.8554
        21.5004         19.2504
  21138682.3054    -404792.24048   -292973.30147                  21138688.7734
        32.5004         27.5004
  23866855.0004   -3357618.76046  -2473435.88946                  23866867.5314
        13.0004         12.2504
  22360666.4774    4225472.90047   3212734.47246                  22360674.5434
        25.2504         20.0004
  20854020.0474    -697999.34546   -516227.71647                  20854025.2974
        18.2504         30.0004
 00  5  9 19 30 30.0000000  0  6G 5G 6G10G17G24G30
  21083931.8984    3021883.93448   2313099.92847                  21083938.0864
        31.5004         26.5004
  22409867.8524   -2483651.27647  -1888209.03946                  22409874.8874
        21.0004         19.2504
  21139545.7424    -400254.13448   -289437.10547                  21139552.3054
        32.2504         27.5004
  23861059.5004   -3388073.98446  -2497167.13646                  23861071.6214
        13.5004         13.0004
  22369313.6174    4270912.87447   3248142.19346                  22369321.6604
        26.2504         20.2504
  20854206.4774    -697020.41046   -515464.91747                  20854212.0434
        18.2504         30.0004
 00  5  9 19 30 45.0000000  0  6G 5G 6G10G17G24G30
  21091096.7814    3059534.82848   2342438.25147                  21091102.8054
        30.7504         26.7504
  22405487.3284   -2506672.66347  -1906147.75446                  22405494.1374
        22.0004         19.0004
  21140444.3834    -395531.85948   -285757.39547                  21140450.8984
        32.0004         27.5004
  23855279.4774   -3418448.29646  -2520835.31546                  23855291.4574
        13.5004         13.0004
  22377970.9064    4316406.52247   3283591.72846                  22377979.0664
        25.5004         20.2504
  20854425.8524    -695867.17946   -514566.29847                  20854431.2074
        18.5004         29.7504
 00  5  9 19 31  0.0000000  0  6G 5G 6G10G17G24G30
  21098289.5004    3097334.08048   2371892.17547                  21098295.8524
        30.0004         26.7504
  22401115.3914   -2529645.56247  -1924048.69946                  22401122.4614
        21.2504         19.5004
  21141378.0864    -390624.86548   -281933.74847                  21141384.7544
        32.0004         27.5004
  23849514.7034   -3448741.03846  -2544439.94946                  23849526.7304
        14.0004         13.2504
  22386638.2114    4361954.32247   3319083.46446                  22386646.4064
        25.7504         20.2504
  20854678.5554    -694538.80846   -513531.20747                  20854683.5354
        18.7504         30.0004
 00  5  9 19 31 15.0000000  0  6G 5G 6G10G17G24G30
  21105509.9614    3135278.25148   2401459.02047                  21105516.5004
        30.0004         27.0004
  22396752.5944   -2552573.11847  -1941914.29846                  22396759.8754
        21.0004         19.2504
  21142346.4224    -385536.27048   -277968.60047                  21142353.0784
        32.2504         27.5004
  23843765.1724   -3478955.32546  -2567983.44946                  23843776.9774
        14.7504         14.0004
  22395315.7734    4407552.91947   3354614.78546                  22395324.1214
        25.0004         19.7504
  20854963.9844    -693038.50746   -512362.14447                  20854969.1884
        18.2504         29.7504
 00  5  9 19 31 30.0000000  0  6G 5G 6G10G17G24G30
  21112758.6954    3173369.18848   2431140.22547                  21112765.1994
        30.7504         27.2504
  22392398.6174   -2575453.18847  -1959742.89246                  22392405.1334
        22.0004         19.5004
  21143349.5234    -380264.04448   -273860.36247                  21143356.0394
        32.5004         27.5004
  23838031.1414   -3509089.08346  -2591464.18146                  23838043.3554
        14.7504         14.0004
  22404002.6484    4453204.04447   3390187.03246                  22404010.8554
        25.0004         19.7504
  20855282.6484    -691364.16646   -511057.47347                  20855288.1914
        18.0004         29.7504
 00  5  9 19 31 45.0000000  0  6G 5G 6G10G17G24G30
  21120034.0944    3211601.37448   2460931.49747                  21120040.7504
        30.5004         27.5004
  22388052.6644   -2598291.00047  -1977538.57546                  22388060.0514
        21.2504         19.2504
  21144386.8364    -374813.41248   -269613.10347                  21144392.9884
        32.5004         27.5004
  23832310.8284   -3539147.54546  -2614886.26946                  23832322.9844
        14.7504         14.0004
  22412698.6724    4498902.16847   3425795.90546                  22412707.1484
        23.5004         19.2504
  20855633.6414    -689520.91646   -509621.18147                  20855639.0784
        18.5004         30.0004
 00  5  9 19 32  0.0000000  0  6G 5G 6G10G17G24G30
  21127336.9304    3249978.38348   2490835.62147                  21127343.5744
        30.7504         27.2504
  22383715.4614   -2621082.56247  -1995298.19946                  22383722.9304
        20.7504         19.5004
  21145458.8444    -369180.66748   -265223.94347                  21145465.1024
        32.5004         27.7504
  23826605.8914   -3569126.81246  -2638246.62146                  23826617.8594
        14.2504         13.7504
  22421404.2814    4544650.99647   3461444.27746                  22421413.3204
        23.2504         19.0004
  20856017.1564    -687504.86246   -508050.23747                  20856022.3834
        18.5004         30.2504
 00  5  9 19 32 15.0000000  0  6G 5G 6G10G17G24G30
  21134667.5474    3288500.31048   2520852.66447                  21134674.1214
        31.0004         27.2504
  22379387.2894   -2643827.58747  -2013021.57046                  22379394.3134
        21.2504         19.5004
  21146565.3984    -363365.49748   -260692.63047                  21146571.6094
        32.2504         28.0004
  23820916.0944   -3599026.66446  -2661545.10146                  23820928.1454
        14.2504         13.7504
  22430119.8834    4590450.32547   3497132.01546                  22430128.0554
        23.0004         18.7504
  20856433.6334    -685315.67346   -506344.38347                  20856438.9774
        18.2504         30.0004
 00  5  9 19 32 30.0000000  0  6G 5G 6G10G17G24G30
  21142026.2194    3327168.91348   2550983.99947                  21142032.7234
        31.5004         27.2504
  22375068.1644   -2666523.95147  -2030707.02746                  22375075.2934
        20.2504         19.2504
  21147707.0314    -357365.73548   -256017.47747                  21147713.5594
        31.7504         28.5004
  23815241.8524   -3628844.96246  -2684780.05246                  23815253.4804
        14.2504         13.7504
  22438844.7344    4636302.18747   3532860.68446                  22438852.7774
        23.5004         18.5004
  20856883.5864    -682951.20446   -504501.94947                  20856888.8834
        18.5004         30.0004
 00  5  9 19 32 45.0000000  0  6G 5G 6G10G17G24G30
  21149412.5004    3365984.30748   2581229.71747                  21149418.6524
        31.2504         27.2504
  22370758.7584   -2689171.12647  -2048354.13046                  22370766.2974
        20.5004         19.2504
  21148883.8834    -351181.00048   -251198.18847                  21148890.6684
        32.5004         28.5004
  23809582.5394   -3658581.27546  -2707951.10946                  23809594.2504
        13.5004         12.7504
  22447580.4614    4682206.65247   3568630.33646                  22447588.7504
        24.5004         18.7504
  20857367.1484    -680411.02746   -502522.59647                  20857372.4104
        18.7504         30.2504
 00  5  9 19 33  0.0000000  0  6G 5G 6G10G17G24G30
  21156825.2584    3404939.95448   2611584.72347                  21156831.7624
        30.5004         27.0004
  22366457.0394   -2711775.33047  -2065967.77746                  22366464.5204
        21.2504         19.7504
  21150094.8754    -344817.66248   -246239.73047                  21150101.5784
        32.2504         28.5004
  23803938.2894   -3688241.91846  -2731063.18446                  23803950.3524
        13.0004         13.0004
  22456324.7424    4728157.24447   3604435.94546                  22456332.5744
        25.0004         19.2504
  20857882.8054    -677701.35746   -500411.17447                  20857887.9734
        18.7504         30.2504
 00  5  9 19 33 15.0000000  0  6G 5G 6G10G17G24G30
  21164265.0784    3444036.68448   2642049.65347                  21164271.5594
        29.7504         26.5004
  22362164.2584   -2734335.41347  -2083547.04546                  22362171.1994
        22.0004         19.7504
  21151339.9774    -338274.68448   -241141.29047                  21151346.7154
        32.5004         28.5004
  23798308.8524   -3717825.80846  -2754115.47046                  23798320.7504
        13.0004         12.7504
  22465077.9144    4774154.81447   3640278.15646                  22465086.5434
        25.7504         19.5004
  20858430.8444    -674821.01746   -498166.76647                  20858436.0004
        18.7504         30.5004
 00  5  9 19 33 30.0000000  0  6G 5G 6G10G17G24G30
  21171731.9454    3483275.03748   2672624.94647                  21171738.1914
        28.5004         26.2504
  22357879.8524   -2756850.45447  -2101091.20446                  22357887.1334
        22.5004         20.0004
  21152619.4534    -331551.19348   -235902.19847                  21152625.8634
        32.0004         28.2504
  23792693.8054   -3747332.08446  -2777107.28146                  23792704.6844
        13.0004         12.0004
  22473840.0704    4820199.82047   3676157.31746                  22473848.6174
        26.0004         19.7504
  20859011.7344    -671769.25946   -495788.78347                  20859016.9734
        18.5004         30.5004
 00  5  9 19 33 45.0000000  0  6G 5G 6G10G17G24G30
  21179226.6644    3522659.51848   2703314.10647                  21179233.1094
        28.7504         26.0004
  22353604.8284   -2779315.61647  -2118596.50446                  22353612.0044
        21.7504         19.7504
  21153934.1334    -324642.44648   -230518.74647                  21153940.5084
        32.0004         28.2504
  23787094.3674   -3776756.00446  -2800034.90446                  23787105.9144
        13.5004         12.7504
  22482612.1094    4866296.91447   3712077.08046                  22482620.7274
        26.2504         19.7504
  20859625.9844    -668541.26246   -493273.46947                  20859631.1524
        18.7504         30.5004
 00  5  9 19 34  0.0000000  0  6G 5G 6G10G17G24G30
  21186748.4454    3562186.91448   2734114.62747                  21186754.8554
        29.2504         26.0004
  22349338.7664   -2801733.81947  -2136065.20546                  22349345.8954
        21.5004         20.0004
  21155283.4304    -317551.63948   -224993.43247                  21155289.9104
        32.2504         28.2504
  23781510.8284   -3806100.51246  -2822900.66146                  23781521.8834
        14.5004         12.5004
  22491393.5554    4912442.66547   3748034.76146                  22491402.2894
        26.5004         19.7504
  20860273.1174    -665139.98846   -490623.13947                  20860278.2154
        18.5004         30.2504
 00  5  9 19 34 15.0000000  0  6G 5G 6G10G17G24G30
  21194297.5234    3601856.82748   2765026.20647                  21194303.8984
        30.0004         26.2504
  22345081.5704   -2824105.15147  -2153497.37646                  22345088.5944
        21.5004         19.7504
  21156667.3754    -310279.10748   -219326.50947                  21156674.0784
        32.2504         28.5004
  23775941.6094   -3835365.85046  -2845704.71946                  23775953.2384
        14.7504         13.7504
  22500183.9454    4958636.89347   3784030.20146                  22500192.7274
        26.5004         19.7504
  20860953.3754    -661565.52146   -487837.85247                  20860958.6724
        18.2504         30.2504
 00  5  9 19 34 30.0000000  0  6G 5G 6G10G17G24G30
  21201874.1644    3641672.06148   2796051.01947                  21201880.6564
        29.2504         26.0004
  22340833.7034   -2846426.42247  -2170890.54446                  22340841.1604
        21.2504         20.2504
  21158086.4774    -302821.49848   -213515.37247                  21158093.2274
        31.7504         28.5004
  23770388.0704   -3864548.82646  -2868444.59446                  23770399.9344
        15.2504         14.2504
  22508984.1174    5004882.23247   3820065.48646                  22508992.6644
        25.5004         19.5004
  20861667.0864    -657814.73146   -484915.16947                  20861672.4304
        18.7504         30.0004
 00  5  9 19 34 45.0000000  0  6G 5G 6G10G17G24G30
  21209477.9224    3681629.78248   2827186.86147                  21209484.5664
        30.0004         26.5004
  22336595.2424   -2868700.11347  -2188246.64146                  22336602.2894
        21.5004         19.7504
  21159540.3674    -295181.20048   -207561.88147                  21159547.0354
        30.7504         28.5004
  23764850.0864   -3893651.94746  -2891122.24146                  23764861.8204
        15.7504         14.5004
  22517793.6334    5051176.18747   3856138.64446                  22517802.1094
        25.5004         19.5004
  20862413.9454    -653890.02546   -481856.96647                  20862419.3594
        18.0004         30.0004
 00  5  9 19 35  0.0000000  0  6G 5G 6G10G17G24G30
  21217108.2504    3721726.75548   2858431.20647                  21217114.5664
        30.2504         26.5004
  22332365.3984   -2890929.13847  -2205567.92746                  22332372.3164
        22.7504         20.0004
  21161028.3444    -287361.43548   -201468.55047                  21161034.8244
        32.2504         28.7504
  23759326.6254   -3922678.27446  -2913740.06246                  23759338.1254
        16.0004         15.0004
  22526611.4844    5097515.33847   3892247.02446                  22526619.6914
        25.0004         19.0004
  20863193.3914    -649794.46346   -478665.63147                  20863198.8164
        18.2504         30.0004
 00  5  9 19 35 15.0010000  0  6G 5G 6G10G17G24G30
  21224766.8724    3761973.36548   2889792.15547                  21224773.2594
        30.2504         26.7504
  22328145.0284   -2913106.98147  -2222849.33346                  22328151.8724
        21.5004         20.0004
  21162552.1064    -279353.71848   -195228.76447                  21162558.7164
        32.2504         28.5004
  23753818.7714   -3951621.68846  -2936293.27246                  23753830.1654
        16.2504         15.0004
  22535440.4354    5143910.48247   3928399.03746                  22535448.8764
        24.5004         18.5004
  20864006.6304    -645519.66546   -475334.63247                  20864012.1034
        18.0004         30.0004
 00  5  9 19 35 30.0010000  0  6G 5G 6G10G17G24G30
  21232451.8644    3802356.83248   2921259.75247                  21232458.2044
        31.0004         27.0004
  22323933.4354   -2935237.79947  -2240094.08846                  22323939.9274
        22.0004         19.7504
  21164110.3334    -271166.36948   -188848.99947                  21164116.9784
        32.0004         28.5004
  23748326.0214   -3980485.44246  -2958784.41846                  23748337.4974
        16.5004         15.0004
  22544277.0604    5190348.11347   3964584.15846                  22544285.1964
        24.7504         18.2504
  20864852.8884    -641073.40846   -471870.02647                  20864858.1264
        18.0004         30.0004
 00  5  9 19 35 45.0010000  0  6G 5G 6G10G17G24G30
  21240163.4744    3842881.16948   2952837.10947                  21240169.6734
        31.2504         27.2504
  22319730.9114   -2957321.32047  -2257302.00446                  22319737.0874
        21.2504         19.5004
  21165702.9194    -262797.19348   -182327.55747                  21165709.2944
        31.5004         28.2504
  23742848.0994   -4009269.90146  -2981213.76846                  23742858.9784
        16.0004         14.7504
  22553122.6694    5236832.66047   4000805.83546                  22553130.9814
        24.0004         18.0004
  20865731.9504    -636453.65246   -468270.22847                  20865737.3064
        18.0004         29.7504
 00  5  9 19 36  0.0010000  0  6G 5G 6G10G17G24G30
  21247902.5284    3883549.46348   2984526.64647                  21247908.9854
        31.0004         27.2504
  22315538.5134   -2979354.09147  -2274470.36746                  22315544.6534
        21.7504         19.5004
  21167330.6924    -254242.90448   -175661.87547                  21167336.8684
        31.7504         28.0004
  23737386.7554   -4037971.70346  -3003578.71146                  23737398.1384
        15.7504         14.5004
  22561978.2164    5283367.11847   4037066.39046                  22561986.5994
        24.5004         18.2504
  20866644.7084    -631657.12646   -464532.68947                  20866649.9464
        18.0004         29.7504
 00  5  9 19 36 15.0010000  0  6G 5G 6G10G17G24G30
  21255668.4664    3924360.53048   3016327.43247                  21255675.1694
        30.0004         26.7504
  22311355.3564   -3001336.96247  -2291599.85646                  22311361.4154
        22.2504         19.0004
  21168993.3564    -245504.47848   -168852.70947                  21168999.6614
        32.0004         28.0004
  23731940.5754   -4066591.65446  -3025879.88346                  23731951.7124
        15.5004         14.5004
  22570842.7394    5329950.47647   4073365.06046                  22570851.3804
        24.5004         18.5004
  20867590.9354    -626684.67746   -460658.06647                  20867596.3604
        18.0004         29.7504
 00  5  9 19 36 30.0010000  0  6G 5G 6G10G17G24G30
  21263461.8884    3965316.46148   3048241.09447                  21263468.4274
        29.5004         26.2504
  22307182.2164   -3023267.51647  -2308688.58046                  22307188.2284
        21.7504         19.2504
  21170691.8254    -236579.62348   -161898.27247                  21170698.2474
        32.2504         28.0004
  23726510.1464   -4095127.46346  -3048115.49446                  23726521.1654
        15.2504         14.5004
  22579716.8884    5376584.90847   4109703.51646                  22579725.2714
        24.7504         18.2504
  20868571.1534    -621533.99846   -456644.56047                  20868576.5214
        18.0004         29.7504
 00  5  9 19 36 45.0010000  0  6G 5G 6G10G17G24G30
  21271283.2084    4006416.68248   3080267.19147                  21271289.7944
        29.5004         25.7504
  22303018.7474   -3045145.86247  -2325736.61246                  22303025.2514
        22.2504         19.5004
  21172425.5914    -227468.69248   -154798.83847                  21172432.1304
        32.2504         28.2504
  23721095.7784   -4123579.41446  -3070285.74746                  23721107.5714
        14.7504         14.7504
  22588600.9034    5423269.72147   4146081.23146                  22588608.8644
        24.5004         18.5004
  20869585.2164    -616205.22046   -452492.27847                  20869590.6534
        18.0004         29.7504
 00  5  9 19 37  0.0010000  0  6G 5G 6G10G17G24G30
  21279131.4354    4047659.42848   3112404.35646                  21279137.9854
        29.2504         25.5004
  22298864.8334   -3066973.37347  -2342745.04246                  22298871.1264
        22.2504         19.5004
  21174194.5284    -218173.17648   -147555.57847                  21174201.2554
        32.0004         28.2504
  23715697.0364   -4151948.89946  -3092391.74546                  23715707.9504
        15.0004         14.0004
  22597494.1224    5470003.37547   4182497.01246                  22597502.0244
        25.0004         18.5004
  20870632.8494    -610699.79246   -448202.34647                  20870638.2394
        18.2504         30.0004
 00  5  9 19 37 15.0010000  0  6G 5G 6G10G17G24G30
  21287006.9274    4089045.49548   3144653.19246                  21287013.2554
        29.0004         25.5004
  22294721.1924   -3088749.15147  -2359713.14646                  22294727.8134
        21.7504         19.7504
  21175998.5284    -208692.16548   -140167.77547                  21176005.4584
        32.2504         28.2504
  23710314.6464   -4180235.00846  -3114432.78146                  23710325.5014
        16.0004         14.5004
  22606396.5914    5516786.61347   4218951.42346                  22606404.6104
        24.5004         18.2504
  20871714.4274    -605016.62846   -443773.92147                  20871719.7124
        18.2504         30.0004
 00  5  9 19 37 30.0010000  0  6G 5G 6G10G17G24G30
  21294909.6614    4130574.86748   3177013.69346                  21294915.9784
        29.5004         25.5004
  22290587.2004   -3110472.76547  -2376640.61946                  22290594.2354
        22.0004         19.7504
  21177838.1924    -199025.34548   -132635.18747                  21177844.9074
        32.0004         28.2504
  23704947.5214   -4208437.46646  -3136408.63146                  23704958.5994
        16.0004         14.7504
  22615308.8024    5563619.34347   4255444.40446                  22615316.9384
        24.7504         18.2504
  20872829.6224    -599155.51646   -439206.83547                  20872834.8844
        18.2504         30.0004
 00  5  9 19 37 45.0010000  0  6G 5G 6G10G17G24G30
  21302839.2784    4172245.19048   3209484.02147                  21302845.5714
        29.5004         25.7504
  22286462.9814   -3132146.21247  -2393528.99846                  22286470.1104
        21.5004         19.7504
  21179712.4664    -189175.02648   -124959.61147                  21179719.0054
        32.0004         27.7504
  23699596.4114   -4236558.31446  -3158320.89846                  23699607.1964
        16.0004         14.5004
  22624229.7714    5610499.26847   4291974.15546                  22624237.9784
        25.0004         18.5004
  20873978.3964    -593118.62046   -434502.77447                  20873983.8104
        18.2504         30.0004
 00  5  9 19 38  0.0010000  0  6G 5G 6G10G17G24G30
  21310797.3804    4214063.70548   3242069.82647                  21310803.8134
        30.0004         26.0004
  22282349.8024   -3153761.83747  -2410372.30746                  22282356.6104
        23.2504         20.0004
  21181623.3964    -179133.52348   -117135.07047                  21181629.7714
        32.2504         28.0004
  23694261.6924   -4264589.90346  -3180163.59946                  23694272.4664
        15.7504         14.5004
  22633161.1144    5657433.75847   4328546.42746                  22633169.1464
        24.0004         18.0004
  20875162.2314    -586898.22246   -429655.72647                  20875167.7164
        18.5004         30.0004
 00  5  9 19 38 15.0010000  0  6G 5G 6G10G17G24G30
  21318782.7864    4256027.63248   3274768.93347                  21318789.2674
        30.5004         26.2504
  22278246.7004   -3175322.16947  -2427172.56346                  22278253.6884
        21.5004         19.7504
  21183570.2244    -168903.35648   -109163.51047                  21183576.3414
        32.2504         27.7504
  23688944.3334   -4292534.77846  -3201938.73146                  23688955.8334
        16.0004         14.7504
  22642102.2084    5704420.02247   4365159.04646                  22642110.3924
        23.5004         18.2504
  20876380.3104    -580496.87846   -424667.68147                  20876385.7244
        18.5004         30.0004
 00  5  9 19 38 30.0010000  0  6G 5G 6G10G17G24G30
  21326795.2474    4298132.84648   3307578.13647                  21326801.7394
        30.0004         26.5004
  22274153.8564   -3196830.85947  -2443932.55046                  22274160.7394
        22.7504         19.5004
  21185551.9114    -158488.54048   -101048.07247                  21185558.0174
        32.0004         27.5004
  23683642.1614   -4320396.81246  -3223649.32746                  23683652.8294
        16.7504         14.5004
  22651052.3964    5751454.05547   4401808.89146                  22651060.7674
        23.0004         18.0004
  20877632.3104    -573918.36646   -419541.58247                  20877637.6184
        18.2504         29.7504
 00  5  9 19 38 45.0010000  0  6G 5G 6G10G17G24G30
  21334834.2004    4340378.47648   3340496.75947                  21334840.9274
        30.2504         26.5004
  22270070.8174   -3218288.38547  -2460652.69646                  22270077.4624
        21.5004         19.5004
  21187568.9424    -147889.73148    -92789.25847                  21187575.1304
        31.7504         27.7504
  23678355.7004   -4348176.55546  -3245295.78446                  23678366.6854
        16.7504         15.0004
  22660011.9584    5798535.02047   4438495.29746                  22660020.5284
        23.5004         18.0004
  20878917.5604    -567163.26846   -414277.87847                  20878922.8924
        18.2504         29.7504
 00  5  9 19 39  0.0010000  0  6G 5G 6G10G17G24G30
  21342900.1774    4382765.76348   3373525.76447                  21342907.1064
        29.5004         26.2504
  22265997.1924   -3239693.25747  -2477331.77746                  22266004.5564
        21.2504         19.7504
  21189621.0604    -137105.56548    -84386.01547                  21189627.5874
        32.0004         27.7504
  23673085.6534   -4375872.44646  -3266876.90846                  23673096.5794
        17.0004         15.5004
  22668979.7634    5845664.09047   4475219.19946                  22668988.5794
        22.5004         17.7504
  20880236.9424    -560230.12946   -408875.44547                  20880242.4624
        18.2504         29.7504
 00  5  9 19 39 15.0010000  0  6G 5G 6G10G17G24G30
  21350993.4114    4425294.54848   3406665.03247                  21351000.3174
        29.0004         26.2504
  22261934.2084   -3261045.14947  -2493969.59546                  22261941.7824
        22.2504         19.2504
  21191708.4424    -126135.88848    -75838.21647                  21191715.0754
        32.0004         28.2504
  23667831.2784   -4403484.37346  -3288392.61146                  23667841.7944
        17.2504         15.0004
  22677957.5914    5892841.38147   4511980.66446                  22677966.7244
        21.7504         17.5004
  20881590.1464    -553118.72746   -403334.10347                  20881595.5714
        18.2504         29.7504
 00  5  9 19 39 30.0010000  0  6G 5G 6G10G17G24G30
  21359112.5284    4467961.13348   3439911.67347                  21359119.2204
        29.5004         26.2504
  22257880.4354   -3282347.42947  -2510568.75646                  22257887.0444
        21.0004         19.5004
  21193830.7004    -114984.04248    -67148.46847                  21193837.4034
        32.2504         28.0004
  23662591.8414   -4431015.77546  -3309845.57146                  23662603.0014
        17.0004         15.7504
  22686943.4744    5940063.02947   4548776.69246                  22686952.4194
        22.7504         17.7504
  20882976.7864    -545832.41446   -397656.47047                  20882982.3884
        18.0004         29.7504
 00  5  9 19 39 45.0010000  0  6G 5G 6G10G17G24G30
  21367259.1614    4510772.11148   3473270.83647                  21367265.9114
        29.0004         26.0004
  22253837.9504   -3303593.14747  -2527123.84046                  22253844.5244
        22.0004         19.7504
  21195988.7474    -103643.32948    -58311.54747                  21195995.2284
        32.2504         28.2504
  23657369.3644   -4458459.83546  -3331230.45246                  23657380.8294
        16.7504         15.0004
  22695939.2164    5987335.74447   4585612.51146                  22695948.3374
        22.5004         17.7504
  20884397.7714    -538364.37946   -391837.23247                  20884403.5244
        18.0004         29.7504
 00  5  9 19 40  0.0010000  0  6G 5G 6G10G17G24G30
  21375432.7314    4553724.40348   3506740.10447                  21375439.5404
        29.2504         25.7504
  22249804.9894   -3324785.02547  -2543636.97646                  22249811.7394
        21.0004         19.2504
  21198182.1924     -92116.60248    -49329.68547                  21198188.6494
        28.7504         28.2504
  23652163.1144   -4485819.31346  -3352549.45046                  23652174.4274
        17.0004         15.0004
  22704944.2634    6034656.44247   4622485.72946                  22704953.4074
        22.7504         18.0004
  20885852.9664    -530717.28346   -385878.46647                  20885858.5094
        18.0004         29.7504
 00  5  9 19 40 15.0010000  0  6G 5G 6G10G17G24G30
  21383632.7084    4596815.41548   3540317.46447                  21383639.2944
        29.5004         25.7504
  22245781.9744   -3345925.29547  -2560109.87746                  22245788.1264
        21.7504         19.2504
  21200410.6774     -80406.18548    -40204.68947                  21200416.8534
        28.0004         28.0004
  23646971.9974   -4513096.57546  -3373804.37146                  23646983.0634
        16.0004         15.0004
  22713958.0054    6082022.79047   4659394.49846                  22713967.1144
        23.0004         18.0004
  20887341.9584    -522893.76746   -379782.23247                  20887347.3964
        18.2504         30.0004
 00  5  9 19 40 30.0010000  0  6G 5G 6G10G17G24G30
  21391859.2634    4640046.45848   3574003.93747                  21391865.6384
        30.0004         25.7504
  22241769.4424   -3367012.18047  -2576541.20946                  22241775.6654
        22.0004         19.2504
  21202674.3494     -68510.66948    -30935.46647                  21202680.4074
        28.2504         28.0004
  23641796.9354   -4540290.00046  -3394993.96846                  23641808.2714
        16.0004         15.0004
  22722980.3414    6129435.94547   4696339.75046                  22722988.8644
        23.5004         17.5004
  20888864.5674    -514892.02046   -373547.11347                  20888869.8644
        18.2504         30.2504
 00  5  9 19 40 45.0010000  0  6G 5G 6G10G17G24G30
  21400111.9034    4683413.12448   3607796.08547                  21400118.2314
        30.5004         25.7504
  22237766.0674   -3388049.73747  -2592934.08446                  22237772.3964
        22.2504         19.5004
  21204972.3724     -56434.16348    -21525.20047                  21204978.5364
        32.0004         28.2504
  23636637.5994   -4567403.61046  -3416121.35346                  23636648.4424
        16.0004         15.0004
  22732011.1384    6176891.64847   4733318.14846                  22732020.1304
        23.2504         17.5004
  20890420.4814    -506716.07946   -367176.26347                  20890425.8374
        18.0004         30.0004
 00  5  9 19 41  0.0010000  0  6G 5G 6G10G17G24G30
  21408391.7244    4726923.33648   3641700.09347                  21408398.1104
        30.2504         25.7504
  22233773.9114   -3409029.63547  -2609282.03646                  22233780.1224
        23.0004         19.7504
  21207306.6534     -44168.56148    -11967.59847                  21207313.1464
        29.0004         28.5004
  23631494.8564   -4594429.15246  -3437180.15446                  23631506.1694
        16.5004         15.2504
  22741051.1224    6224397.94147   4770335.96646                  22741059.8214
        23.2504         17.5004
  20892010.9744    -498357.70346   -360663.25447                  20892016.5524
        18.2504         30.0004
 00  5  9 19 41 15.0010000  0  6G 5G 6G10G17G24G30
  21416697.9974    4770572.25848   3675712.18046                  21416704.4314
        29.7504         25.5004
  22229791.1854   -3429956.45747  -2625588.63146                  22229797.4894
        22.2504         20.0004
  21209675.6304     -31718.49148     -2266.24947                  21209682.0874
        31.2504         28.5004
  23626367.5054   -4621371.27146  -3458173.91946                  23626378.5484
        16.2504         15.0004
  22750099.9744    6271950.01647   4807389.46646                  22750108.4384
        23.0004         17.5004
  20893635.5604    -489821.57646   -354011.74047                  20893640.8924
        18.5004         30.2504
 00  5  9 19 41 30.0010000  0  6G 5G 6G10G17G24G30
  21425031.6464    4814366.54448   3709837.53846                  21425038.1384
        29.5004         25.5004
  22225820.5524   -3450823.20147  -2641848.39846                  22225827.3254
        22.7504         20.0004
  21212081.0364     -19077.23248      7584.08247                  21212087.5994
        32.2504         28.5004
  23621257.8174   -4648223.04546  -3479097.29546                  23621268.7554
        16.5004         15.0004
  22759159.0914    6319554.42347   4844483.73446                  22759167.9894
        22.5004         18.0004
  20895294.9194    -481100.74746   -347216.29647                  20895300.1694
        18.5004         30.2504
 00  5  9 19 41 45.0010000  0  6G 5G 6G10G17G24G30
  21433391.7164    4858298.98748   3744070.55846                  21433398.5754
        29.0004         25.5004
  22221859.6384   -3471636.54347  -2658066.56046                  22221866.5794
        22.2504         20.0004
  21214521.7164      -6251.53948     17578.12747                  21214528.3254
        32.2504         28.2504
  23616164.1614   -4674991.34246  -3499955.64446                  23616175.3104
        16.7504         15.5004
  22768226.5214    6367204.21547   4881613.36446                  22768235.4544
        22.5004         17.2504
  20896988.2714    -472202.11646   -340282.30947                  20896993.6034
        18.2504         30.0004
 00  5  9 19 42  0.0010000  0  6G 5G 6G10G17G24G30
  21441776.7714    4902363.24948   3778406.29346                  21441783.4854
        28.2504         25.2504
  22217908.2474   -3492402.50947  -2674247.79746                  22217915.3764
        23.2504         20.2504
  21216996.2394       6752.33848     27711.00947                  21217002.9074
        31.7504         28.2504
  23611084.9814   -4701682.33446  -3520753.72046                  23611095.6034
        16.5004         15.2504
  22777301.4274    6414893.02847   4918773.43246                  22777310.6064
        21.7504         17.7504
  20898714.3804    -463131.78446   -333214.53147                  20898719.8414
        18.5004         30.0004
 00  5  9 19 42 15.0010000  0  6G 5G 6G10G17G24G30
  21450188.9894    4946569.95948   3812853.02746                  21450196.0954
        28.2504         25.5004
  22213967.5054   -3513110.05547  -2690383.52546                  22213974.4354
        23.2504         20.2504
  21219506.6854      19945.34648     37991.26947                  21219513.3294
        32.2504         28.0004
  23606022.7554   -4728284.91846  -3541482.94446                  23606033.3534
        16.7504         15.2504
  22786385.7314    6462631.55547   4955972.21846                  22786394.9234
        21.5004         17.5004
  20900475.1384    -453878.70246   -326004.35447                  20900480.4704
        18.7504         30.2504
 00  5  9 19 42 30.0010000  0  6G 5G 6G10G17G24G30
  21458627.9034    4990915.83148   3847408.20347                  21458635.0444
        28.5004         25.7504
  22210037.9894   -3533762.00047  -2706475.92746                  22210044.8604
        23.7504         20.2504
  21222052.8104      33324.26248     48416.39547                  21222059.6814
        32.0004         28.5004
  23600976.7474   -4754802.10246  -3562145.58446                  23600987.8844
        16.2504         15.2504
  22795478.9584    6510416.60347   4993207.26046                  22795487.9384
        21.7504         17.0004
  20902270.1144    -444445.95646   -318654.17547                  20902275.2594
        18.5004         30.0004
 00  5  9 19 42 45.0010000  0  6G 5G 6G10G17G24G30
  21467092.7714    5035398.74448   3882070.16147                  21467099.9354
        29.0004         26.2504
  22206118.3494   -3554360.12347  -2722526.38846                  22206125.0174
        23.7504         20.5004
  21224633.8104      46887.27248     58984.97147                  21224640.6534
        32.0004         28.2504
  23595946.1534   -4781235.71946  -3582743.13246                  23595957.0214
        16.5004         15.2504
  22804580.5994    6558246.07547   5030476.92446                  22804589.7204
        21.7504         17.5004
  20904098.7244    -434835.30446   -311165.36247                  20904104.1614
        18.0004         29.7504
 00  5  9 19 43  0.0010000  0  6G 5G 6G10G17G24G30
  21475584.0834    5080020.39448   3916840.22647                  21475591.1774
        29.7504         26.5004
  22202209.1064   -3574902.37747  -2738533.30946                  22202215.8564
        23.7504         20.2504
  21227250.0524      60636.26848     69698.46647                  21227256.8964
        32.0004         28.7504
  23590932.5674   -4807583.78146  -3603273.99846                  23590943.7634
        17.0004         14.7504
  22813691.0674    6606121.89647   5067782.69446                  22813700.3174
        21.5004         17.2504
  20905961.9274    -425044.78146   -303536.40047                  20905967.5284
        18.0004         29.5004
 00  5  9 19 43 15.0010000  0  6G 5G 6G10G17G24G30
  21484101.3804    5124778.25848   3951716.42847                  21484108.5094
        30.2504         26.5004
  22198310.2004   -3595390.83447  -2754498.31346                  22198317.0444
        23.7504         20.2504
  21229901.3414      74568.94848     80555.09347                  21229908.3174
        32.0004         28.5004
  23585934.3024   -4833848.50946  -3623739.94646                  23585944.9234
        17.7504         15.5004
  22822810.0364    6654041.55847   5105122.62546                  22822819.4154
        22.7504         17.5004
  20907858.9584    -415076.55546   -295768.96647                  20907864.4894
        18.5004         29.7504
 00  5  9 19 43 30.0010000  0  6G 5G 6G10G17G24G30
  21492645.6694    5169677.37248   3986702.69347                  21492652.3724
        30.5004         26.2504
  22194422.6534   -3615820.13747  -2770417.22646                  22194429.2164
        23.2504         20.0004
  21232588.7474      88690.49548     91558.88947                  21232595.6654
        32.0004         28.7504
  23580953.2714   -4860024.64546  -3644136.84946                  23580963.5174
        17.5004         15.0004
  22831938.1774    6702010.13547   5142500.67846                  22831946.9354
        23.0004         17.5004
  20909790.6534    -404925.45846   -287859.03347                  20909795.8334
        18.5004         30.0004
 00  5  9 19 43 45.0010000  0  6G 5G 6G10G17G24G30
  21501216.0914    5214715.61448   4021797.37146                  21501222.4194
        30.5004         25.2504
  22190545.8964   -3636191.99547  -2786291.36846                  22190552.5634
        23.0004         20.0004
  21235311.3884     102998.90448    102708.29647                  21235318.3294
        32.0004         28.7504
  23575988.5214   -4886113.93646  -3664466.10546                  23575998.4624
        17.5004         15.2504
  22841075.2244    6750025.52347   5179915.19246                  22841083.7824
        23.2504         18.0004
  20911756.8564    -394593.27846   -279807.99347                  20911762.1534
        18.2504         29.7504
 00  5  9 19 44  0.0010000  0  6G 5G 6G10G17G24G30
  21509812.2474    5259888.26348   4056996.77446                  21509818.4234
        30.2504         25.2504
  22186679.3024   -3656510.67347  -2802124.07346                  22186685.4664
        23.5004         19.5004
  21238068.9114     117489.73848    113999.85747                  21238075.8764
        32.0004         28.7504
  23571038.9744   -4912120.83946  -3684731.14046                  23571049.3964
        16.2504         15.5004
  22850220.6774    6798083.13947   5217362.62846                  22850229.1304
        22.7504         17.2504
  20913756.5524    -384084.40146   -271619.27847                  20913761.9314
        18.0004         29.5004
 00  5  9 19 44 15.0010000  0  6G 5G 6G10G17G24G30
  21518434.8414    5305201.19148   4092305.48746                  21518440.8644
        29.7504         25.0004
  22182824.1614   -3676770.04947  -2817910.58046                  22182830.3494
        22.2504         19.5004
  21240862.3644     132169.04248    125438.27147                  21240869.2594
        31.7504         28.5004
  23566107.2474   -4938039.29446  -3704927.25246                  23566117.4704
        16.5004         15.5004
  22859374.8494    6846188.86547   5254847.53746                  22859383.6884
        22.7504         17.5004
  20915791.0834    -373392.78646   -263288.16247                  20915796.4274
        18.2504         29.7504
 00  5  9 19 44 30.0010000  0  6G 5G 6G10G17G24G30
  21527083.5364    5350650.03848   4127720.12046                  21527090.0054
        29.0004         24.7504
  22178979.4194   -3696973.89347  -2833653.78546                  22178985.7944
        23.7504         19.5004
  21243690.8804     147032.76248    137020.39147                  21243697.5834
        32.0004         28.0004
  23561190.6854   -4963873.21046  -3725057.49946                  23561200.7204
        16.7504         15.2504
  22868537.4424    6894338.50947   5292366.67046                  22868546.3534
        23.7504         17.5004
  20917859.7714    -362522.41646   -254817.75547                  20917865.0794
        18.5004         29.7504
 00  5  9 19 44 45.0010000  0  6G 5G 6G10G17G24G30
  21535758.0994    5396236.81248   4163242.21746                  21535764.9194
        28.2504         25.0004
  22175145.8174   -3717119.88447  -2849351.95546                  22175151.5834
        23.2504         19.2504
  21246554.8494     162083.09548    148747.91847                  21246561.2124
        32.0004         27.7504
  23556291.4194   -4989620.35846  -3745120.14846                  23556302.1344
        16.7504         15.7504
  22877709.1064    6942534.09747   5329921.62346                  22877717.7474
        22.7504         17.2504
  20919962.9274    -351471.13046   -246206.38047                  20919968.3294
        18.5004         30.0004
 00  5  9 19 45  0.0010000  0  6G 5G 6G10G17G24G30
  21544459.5134    5441962.22747   4198872.35146                  21544466.4424
        27.7504         25.0004
  22171323.5284   -3737206.91347  -2865004.15646                  22171329.3884
        24.5004         19.2504
  21249454.5674     177320.87748    160621.51247                  21249460.9544
        31.7504         27.7504
  23551408.5444   -5015279.68546  -3765114.34946                  23551420.0094
        16.7504         15.5004
  22886889.3254    6990776.53747   5367513.06846                  22886898.2944
        23.0004         17.2504
  20922100.4974    -340237.74746   -237453.11347                  20922106.0754
        18.2504         29.7504
 00  5  9 19 45 15.0010000  0  6G 5G 6G10G17G24G30
  21553187.6464    5487828.23247   4234612.04246                  21553194.8684
        27.2504         24.5004
  22167512.8254   -3757232.61047  -2880608.56446                  22167518.7784
        24.0004         19.5004
  21252390.1854     192748.23948    172642.83547                  21252396.7944
        32.0004         28.0004
  23546542.9194   -5040848.98646  -3785038.42046                  23546553.7284
        17.0004         15.7504
  22896078.5364    7039067.69747   5405142.47946                  22896087.6224
        22.7504         17.0004
  20924273.1694    -328820.12946   -228556.28347                  20924278.4544
        18.7504         30.0004
 00  5  9 19 45 30.0010000  0  6G 5G 6G10G17G24G30
  21561941.7554    5533830.31747   4270457.76846                  21561948.8964
        27.7504         25.0004
  22163712.4424   -3777201.12047  -2896168.41446                  22163718.2434
        24.5004         19.7504
  21255360.9974     208360.93148    184808.56847                  21255368.0444
        31.7504         28.0004
  23541693.4664   -5066332.50546  -3804895.65346                  23541703.8644
        16.2504         15.2504
  22905276.3564    7087403.30247   5442806.51546                  22905285.7714
        21.7504         16.7504
  20926480.1854    -317222.50746   -219519.18947                  20926485.2594
        18.7504         30.0004
 00  5  9 19 45 45.0010000  0  6G 5G 6G10G17G24G30
  21570721.2314    5579966.59248   4306408.05946                  21570728.5604
        28.0004         25.0004
  22159923.4814   -3797113.92247  -2911684.85246                  22159929.3534
        24.2504         20.0004
  21258367.0214     224157.28648    197117.41847                  21258374.1614
        32.0004         28.5004
  23536859.9664   -5091731.76846  -3824687.21946                  23536870.9504
        16.5004         15.5004
  22914482.5364    7135781.48447   5480503.74246                  22914492.1854
        21.5004         16.7504
  20928721.1614    -305446.46546   -210343.06547                  20928726.5524
        18.5004         30.0004
 00  5  9 19 46  0.0010000  0  6G 5G 6G10G17G24G30
  21579526.5754    5626238.44848   4342463.99446                  21579533.5634
        29.2504         25.5004
  22156145.1224   -3816969.19647  -2927156.46946                  22156150.9234
        24.5004         20.0004
  21261408.2864     240138.96748    209570.67847                  21261415.3454
        32.0004         28.0004
  23532043.1144   -5117045.12846  -3844411.84246                  23532054.1694
        17.0004         16.2504
  22923696.8804    7184203.70947   5518235.28946                  22923706.0714
        21.2504         16.7504
  20930996.3104    -293490.39746   -201026.66847                  20931002.0874
        18.0004         29.5004
 00  5  9 19 46 15.0010000  0  6G 5G 6G10G17G24G30
  21588358.2004    5672648.65748   4378627.73646                  21588364.9154
        29.2504         25.5004
  22152378.3564   -3836763.78047  -2942580.77646                  22152384.4504
        25.0004         20.5004
  21264485.2864     256308.83948    222170.57747                  21264492.1064
        32.2504         27.7504
  23527243.0054   -5142269.50646  -3864067.14146                  23527254.3174
        17.2504         16.2504
  22932920.1614    7232672.94647   5556003.46046                  22932929.3884
        21.2504         16.5004
  20933306.1614    -281351.20046   -191567.57047                  20933312.0564
        18.2504         29.7504
 00  5  9 19 46 30.0010000  0  6G 5G 6G10G17G24G30
  21597215.1614    5719192.64748   4414895.72547                  21597222.1034
        30.0004         25.7504
  22148622.1144   -3856501.90647  -2957961.11746                  22148628.4314
        24.0004         20.2504
  21267597.4894     272662.42548    234913.62347                  21267604.2044
        31.7504         27.7504
  23522459.3254   -5167409.23146  -3883656.47846                  23522470.1814
        18.2504         16.2504
  22942151.8804    7281184.64947   5593804.73146                  22942161.3884
        20.5004         16.7504
  20935650.3174    -269033.19346   -181969.13947                  20935655.7434
        18.5004         29.7504
 00  5  9 19 46 45.0010000  0  6G 5G 6G10G17G24G30
  21606098.7784    5765875.74548   4451272.10946                  21606105.5994
        29.5004         25.5004
  22144878.1144   -3876177.77547  -2973292.91346                  22144884.1494
        24.2504         20.2504
  21270745.4034     289205.26248    247804.15047                  21270752.0244
        32.0004         27.7504
  23517692.5364   -5192458.61446  -3903175.40446                  23517703.1694
        18.5004         16.2504
  22951392.4974    7329744.15647   5631643.25846                  22951402.2164
        20.0004         16.5004
  20938029.4114    -256530.85846   -172227.07647                  20938034.6964
        18.7504         30.0004
 00  5  9 19 47  0.0010000  0  6G 5G 6G10G17G24G30
  21615008.3334    5812695.96348   4487755.33346                  21615015.1184
        28.5004         25.2504
  22141145.4194   -3895792.88647  -2988577.39546                  22141152.0874
        23.7504         20.2504
  21273929.0834     305935.66048    260840.81547                  21273935.7394
        32.0004         27.7504
  23512942.4744   -5217419.35446  -3922625.26946                  23512952.6264
        18.5004         15.7504
  22960641.9114    7378349.54547   5669517.51846                  22960651.0914
        20.5004         16.0004
  20940443.2164    -243845.78046   -162342.60947                  20940448.6654
        18.2504         30.0004
 00  5  9 19 47 15.0010000  0  6G 5G 6G10G17G24G30
  21623943.6534    5859652.63947   4524344.89146                  21623950.5364
        27.7504         24.7504
  22137423.9504   -3915347.55147  -3003814.75946                  22137430.9854
        24.2504         20.2504
  21277148.3104     322853.06448    274023.20147                  21277154.9314
        32.0004         27.7504
  23508209.4274   -5242291.79746  -3942006.33346                  23508219.7554
        18.0004         16.0004
  22969900.0444    7427000.39347   5707427.20646                  22969908.8134
        21.5004         16.5004
  20942891.7784    -230978.40646   -152316.10347                  20942897.5794
        18.0004         29.5004
 00  5  9 19 47 30.0010000  0  6G 5G 6G10G17G24G30
  21632904.6464    5906743.07147   4561038.67446                  21632911.5054
        26.7504         24.0004
  22133714.0214   -3934843.99447  -3019006.76746                  22133720.6304
        24.2504         20.7504
  21280402.7244     339955.15348    287349.50347                  21280409.5214
        32.0004         27.7504
  23503492.3564   -5267078.22146  -3961320.35546                  23503502.9544
        18.0004         15.7504
  22979166.2314    7475694.09147   5745370.29346                  22979174.7904
        22.0004         16.5004
  20945374.6924    -217931.12846   -142149.41147                  20945380.3174
        18.2504         29.7504
 00  5  9 19 47 45.0010000  0  6G 5G 6G10G17G24G30
  21641891.4194    5953968.58447   4597837.71846                  21641898.5714
        26.2504         23.7504
  22130015.0754   -3954280.56847  -3034152.11946                  22130021.8024
        24.0004         20.7504
  21283692.6304     357243.36248    300820.82647                  21283699.5484
        32.2504         28.0004
  23498792.5284   -5291777.01946  -3980566.11346                  23498802.6104
        17.7504         16.0004
  22988440.8104    7524432.07147   5783347.87546                  22988449.3334
        22.2504         16.7504
  20947891.9424    -204702.32946   -131841.27247                  20947897.2514
        18.2504         29.7504
 00  5  9 19 48  0.0010000  0  6G 5G 6G10G17G24G30
  21650904.4814    6001331.50847   4634743.82746                  21650911.5174
        26.5004         23.7504
  22126328.4584   -3973654.47147  -3049248.64346                  22126335.0564
        23.7504         21.0004
  21287018.4424     374720.09248    314439.05447                  21287025.4194
        32.0004         28.2504
  23494109.5364   -5316385.63746  -3999741.59246                  23494119.5244
        17.7504         15.2504
  22997724.3254    7573216.69947   5821361.80846                  22997733.4234
        22.5004         16.7504
  20950444.4584    -191289.54846   -121389.76747                  20950449.8254
        18.2504         29.2504
 00  5  9 19 48 15.0010000  0  6G 5G 6G10G17G24G30
  21659942.5834    6048826.52747   4671752.87046                  21659949.6654
        27.2504         23.5004
  22122652.5364   -3992970.60547  -3064300.14646                  22122659.1464
        24.7504         20.7504
  21290378.9744     392380.20348    328200.17447                  21290385.9154
        32.0004         28.2504
  23489442.7004   -5340909.09046  -4018850.71246                  23489452.6884
        17.5004         15.2504
  23007015.7554    7622042.73747   5859408.00346                  23007024.9114
        23.0004         16.5004
  20953031.0284    -177697.58946   -110798.64847                  20953036.5714
        18.0004         29.5004
 00  5  9 19 48 30.0010000  0  6G 5G 6G10G17G24G30
  21669006.3494    6096455.92347   4708866.62646                  21669012.9114
        27.7504         23.7504
  22118988.5674   -4012226.23047  -3079304.50546                  22118995.2594
        25.2504         21.0004
  21293774.9584     410226.29648    342106.22047                  21293781.7314
        32.0004         28.0004
  23484792.8024   -5365344.73046  -4037891.40946                  23484803.8924
        16.7504         15.2504
  23016315.4974    7670912.67547   5897488.39946                  23016324.4424
        23.0004         16.5004
  20955651.9814    -163924.08046   -100066.06347                  20955657.6304
        18.2504         29.5004
 00  5  9 19 48 45.0010000  0  6G 5G 6G10G17G24G30
  21678096.4274    6144224.05348   4746088.48346                  21678102.9544
        28.0004         24.2504
  22115336.7314   -4031416.64747  -3094258.04846                  22115343.2594
        25.5004         21.0004
  21297207.1064     428262.91748    356160.71847                  21297213.5054
        31.2504         28.0004
  23480160.4354   -5389687.99746  -4056860.10946                  23480171.3964
        16.2504         15.0004
  23025624.0834    7719830.80147   5935606.36346                  23025632.2784
        22.7504         16.2504
  20958308.3414    -149964.39346    -89188.40147                  20958313.7674
        18.2504         29.7504
 00  5  9 19 49  0.0010000  0  6G 5G 6G10G17G24G30
  21687212.1614    6192127.41948   4783415.71646                  21687218.9704
        28.2504         24.2504
  22111696.6614   -4050544.97347  -3109163.20746                  22111703.0134
        26.5004         21.5004
  21300675.0834     446486.68148    370361.04247                  21300681.4704
        31.2504         27.7504
  23475545.4034   -5413942.07446  -4075759.33446                  23475555.7204
        17.5004         15.7504
  23034941.4974    7768793.80847   5973759.28346                  23034950.2084
        22.2504         16.0004
  20960999.5674    -135821.77346    -78168.19747                  20961004.9814
        18.0004         29.7504
 00  5  9 19 49 15.0010000  0  6G 5G 6G10G17G24G30
  21696352.9504    6240161.47148   4820844.78146                  21696359.5604
        28.5004         24.5004
  22108067.5754   -4069615.23947  -3124023.13346                  22108074.1964
        26.0004         21.5004
  21304177.7394     464893.24248    384703.81247                  21304184.3374
        32.0004         27.7504
  23470945.3644   -5438111.22346  -4094592.38246                  23470955.6224
        17.7504         16.0004
  23044266.7394    7817797.29647   6011943.76146                  23044275.4274
        22.7504         16.2504
  20963724.8724    -121500.46146    -67008.75047                  20963730.2864
        18.0004         29.5004
 00  5  9 19 49 30.0010000  0  6G 5G 6G10G17G24G30
  21705518.8104    6288328.24948   4858377.27346                  21705525.6534
        28.7504         25.0004
  22104450.1534   -4088624.96547  -3138835.87346                  22104456.7984
        26.7504         21.5004
  21307715.6614     483484.81948    399190.74947                  21307722.2124
        32.0004         27.7504
  23466363.1384   -5462193.04546  -4113357.37246                  23466373.2554
        18.0004         16.5004
  23053599.9274    7866843.40847   6050161.45946                  23053608.7314
        21.7504         16.0004
  20966484.6304    -106998.10446    -55708.23547                  20966490.1144
        18.0004         29.0004
 00  5  9 19 49 45.0010000  0  6G 5G 6G10G17G24G30
  21714709.7164    6336626.77548   4896012.42846                  21714716.6694
        28.5004         24.7504
  22100844.1924   -4107574.79247  -3153601.94846                  22100850.7784
        24.2504         21.2504
  21311288.6464     502260.65848    413821.26347                  21311295.2554
        31.2504         28.0004
  23461797.1774   -5486188.25946  -4132054.88546                  23461807.5524
        18.5004         16.7504
  23062940.6224    7915931.17447   6088411.60246                  23062949.8024
        21.5004         15.7504
  20969278.7864     -92315.38846    -44267.17547                  20969284.2474
        18.2504         29.2504
 00  5  9 19 50  0.0010000  0  6G 5G 6G10G17G24G30
  21723925.2784    6385055.59348   4933749.09846                  21723932.5954
        28.0004         25.0004
  22097249.1694   -4126465.67647  -3168322.08346                  22097255.5674
        26.7504         21.0004
  21314896.3254     521219.50248    428594.37647                  21314903.0524
        32.0004         27.7504
  23457247.1064   -5510097.98746  -4150685.78146                  23457257.2124
        18.5004         16.7504
  23072289.7004    7965059.46347   6126693.32246                  23072299.2204
        20.5004         15.2504
  20972106.7554     -77453.60246    -32686.58547                  20972112.0754
        18.5004         29.7504
 00  5  9 19 50 15.0010000  0  6G 5G 6G10G17G24G30
  21733166.0604    6433615.24447   4971587.72646                  21733173.6694
        27.7504         25.0004
  22093665.7244   -4145296.68647  -3182995.58346                  22093671.8064
        25.0004         21.2504
  21318538.9424     540361.94348    443510.55547                  21318545.9664
        32.2504         28.0004
  23452713.4034   -5533921.35346  -4169249.38046                  23452723.9194
        18.5004         17.0004
  23081646.4274    8014228.79147   6165007.01846                  23081656.0404
        21.5004         15.7504
  20974969.1304     -62411.81646    -20965.72947                  20974974.3924
        18.5004         30.0004
 00  5  9 19 50 30.0010000  0  6G 5G 6G10G17G24G30
  21742432.0134    6482307.64947   5009529.79946                  21742439.7864
        26.7504         24.5004
  22090094.5214   -4164065.46347  -3197620.57146                  22090100.6494
        26.7504         21.5004
  21322217.0994     559690.08148    458571.43547                  21322224.2394
        32.2504         28.0004
  23448196.7474   -5557656.27546  -4187744.07046                  23448207.2164
        19.2504         17.2504
  23091011.1064    8063441.16747   6203354.25746                  23091020.5674
        20.2504         16.0004
  20977866.1064     -47187.95646     -9103.00747                  20977871.4384
        18.2504         29.7504
 00  5  9 19 50 45.0010000  0  6G 5G 6G10G17G24G30
  21751722.7944    6531130.82147   5047573.76646                  21751730.4274
        26.2504         24.2504
  22086534.1064   -4182773.52447  -3212198.26846                  22086540.1884
        25.7504         21.5004
  21325930.0674     579202.21948    473775.68147                  21325937.0094
        32.0004         27.7504
  23443696.5674   -5581304.40746  -4206171.12746                  23443707.1774
        18.7504         17.2504
  23100383.8494    8112694.74347   6241733.59746                  23100393.4624
        21.0004         16.0004
  20980797.6924     -31783.67646      2900.30747                  20980803.1304
        18.2504         29.7504
 00  5  9 19 51  0.0010000  0  6G 5G 6G10G17G24G30
  21761037.8494    6580083.11547   5085718.34546                  21761045.3414
        26.7504         23.7504
  22082985.5214   -4201422.04047  -3226729.53846                  22082991.8494
        27.0004         21.7504
  21329677.7084     598896.91148    489122.18147                  21329684.2714
        31.2504         27.5004
  23439212.6464   -5604867.04846  -4224531.56646                  23439223.2674
        18.5004         17.2504
  23109764.3174    8161988.06547   6280143.90146                  23109774.3644
        21.7504         16.5004
  20983763.0284     -16200.49846     15043.02447                  20983768.4784
        18.2504         29.5004
 00  5  9 19 51 15.0010000  0  6G 5G 6G10G17G24G30
  21770378.2394    6629165.95947   5123964.65746                  21770385.5444
        27.5004         23.7504
  22079448.5834   -4220009.14547  -3241212.98046                  22079454.8414
        26.7504         21.7504
  21333460.5054     618775.68748    504612.12047                  21333467.1264
        30.7504         27.0004
  23434745.4194   -5628342.31946  -4242823.92946                  23434756.2864
        17.0004         16.5004
  23119152.2784    8211322.64347   6318586.36846                  23119161.7634
        23.0004         17.0004
  20986762.6774       -436.59746     27326.56247                  20986768.3374
        18.0004         29.7504
 00  5  9 19 51 30.0010000  0  6G 5G 6G10G17G24G30
  21779742.1064    6678374.17147   5162308.65346                  21779749.0014
        27.7504         23.5004
  22075922.3414   -4238539.60947  -3255652.27846                  22075928.8564
        26.5004         22.0004
  21337277.5054     638833.60848    520241.65747                  21337284.2784
        30.7504         27.0004
  23430293.8724   -5651735.21846  -4261052.09246                  23430303.8844
        17.5004         16.2504
  23128547.5284    8260693.46347   6357057.06646                  23128557.1304
        22.2504         16.2504
  20989795.9354      15502.99146     39747.00147                  20989801.5134
        18.0004         29.7504
 00  5  9 19 51 45.0010000  0  6G 5G 6G10G17G24G30
  21789131.3564    6727712.88448   5200754.33346                  21789138.0484
        28.0004         23.2504
  22072408.0214   -4257007.86347  -3270043.10346                  22072414.2204
        27.0004         22.0004
  21341129.4354     659076.05748    536014.98447                  21341136.2944
        31.2504         27.5004
  23425859.2784   -5675040.31546  -4279211.86946                  23425869.3844
        18.0004         16.0004
  23137950.3644    8310105.64347   6395559.98746                  23137959.8374
        22.2504         15.7504
  20992863.6854      31623.66346     52308.54147                  20992869.2634
        18.2504         29.5004
 00  5  9 19 52  0.0010000  0  6G 5G 6G10G17G24G30
  21798544.6304    6777180.43248   5239300.40146                  21798551.4744
        28.0004         23.7504
  22068904.9814   -4275415.22147  -3284386.47746                  22068911.2634
        27.2504         22.5004
  21345016.2314     679501.53248    551930.92147                  21345023.1144
        31.0004         27.7504
  23421440.9194   -5698259.00046  -4297304.30046                  23421451.2124
        17.0004         15.7504
  23147361.0834    8359557.74647   6434094.07146                  23147372.0914
        22.0004         16.2504
  20995965.6924      47924.05746     65010.13147                  20995971.1884
        18.0004         29.2504
 00  5  9 19 52 15.0010000  0  6G 5G 6G10G17G24G30
  21807983.0994    6826779.06148   5277948.61846                  21807990.2984
        28.0004         23.7504
  22065414.4034   -4293758.96047  -3298680.27946                  22065420.9784
        27.2504         22.5004
  21348938.5284     700112.34848    567991.28447                  21348945.7394
        30.5004         28.0004
  23417039.3884   -5721388.65246  -4315327.34746                  23417049.4114
        18.2504         15.7504
  23156779.4274    8409052.09647   6472660.99746                  23156789.1104
        21.5004         16.7504
  20999102.1064      64406.78546     77853.79547                  20999107.4974
        18.0004         29.2504
 00  5  9 19 52 30.0010000  0  6G 5G 6G10G17G24G30
  21817445.1854    6876501.55047   5316693.33846                  21817452.3964
        27.7504         23.7504
  22061934.5284   -4312045.87447  -3312929.79846                  22061940.9034
        27.2504         22.5004
  21352894.5914     720901.52948    584190.63347                  21352901.8254
        30.5004         28.0004
  23412653.3104   -5744436.19046  -4333286.41946                  23412663.7434
        17.7504         16.2504
  23166204.5444    8458581.58447   6511255.35046                  23166214.4274
        21.2504         16.2504
  21002271.9194      81064.69246     90833.96247                  21002277.5794
        18.0004         29.2504
 00  5  9 19 52 45.0010000  0  6G 5G 6G10G17G24G30
  21826931.8964    6926354.82748   5355539.97746                  21826939.1774
        28.2504         24.0004
  22058466.7004   -4330268.64947  -3327129.34546                  22058473.1104
        27.2504         22.5004
  21356885.8804     741876.03148    600534.39047                  21356893.1034
        30.2504         28.0004
  23408284.2784   -5767394.37546  -4351175.83946                  23408294.7244
        18.0004         16.7504
  23175637.6854    8508153.17347   6549882.48446                  23175647.9074
        20.7504         15.7504
  21005476.7474      97905.05346    103956.30047                  21005482.3964
        18.0004         29.5004
 00  5  9 19 53  0.0010000  0  6G 5G 6G10G17G24G30
  21836442.8724    6976336.56947   5394486.72246                  21836450.2244
        27.2504         24.2504
  22055010.8024   -4348429.07948  -3341280.30246                  22055017.3764
        28.0004         22.7504
  21360912.1304     763033.80448    617020.95547                  21360919.2124
        30.7504         27.7504
  23403932.6774   -5790265.18946  -4368997.19546                  23403942.8294
        18.7504         17.0004
  23185078.6464    8557764.81147   6588540.84846                  23185089.0324
        20.0004         15.7504
  21008715.6464     114925.79646    117219.19747                  21008721.2004
        18.2504         29.5004
 00  5  9 19 53 15.0010000  0  6G 5G 6G10G17G24G30
  21845977.8724    7026443.33947   5433530.89446                  21845985.3414
        26.7504         24.2504
  22051566.2944   -4366530.16848  -3355385.02846                  22051572.6464
        28.0004         22.5004
  21364972.6144     784371.47848    633647.69047                  21364979.7314
        31.0004         28.0004
  23399596.2944   -5813051.77046  -4386752.92146                  23399606.2354
        19.0004         16.7504
  23194526.2944    8607413.24947   6627227.86446                  23194536.1774
        20.0004         15.7504
  21011988.2634     132123.80146    130620.21847                  21011993.5714
        18.2504         29.5004
 00  5  9 19 53 30.0010000  0  6G 5G 6G10G17G24G30
  21855537.7784    7076680.35647   5472676.56446                  21855545.5994
        26.5004         23.5004
  22048134.0754   -4384566.24647  -3369439.09746                  22048140.4854
        27.5004         22.5004
  21369068.1694     805894.43248    650418.81547                  21369075.2284
        30.7504         28.0004
  23395277.3494   -5835748.66546  -4404438.75046                  23395286.9624
        19.5004         16.5004
  23203982.0524    8657103.68047   6665947.60046                  23203992.2394
        20.7504         16.0004
  21015295.8254     149504.50746    144163.60447                  21015301.2164
        18.5004         29.5004
 00  5  9 19 53 45.0010000  0  6G 5G 6G10G17G24G30
  21865121.0284    7127041.36547   5511918.84546                  21865128.6614
        26.2504         23.7504
  22044713.3414   -4402543.14847  -3383447.04946                  22044719.4354
        27.7504         22.5004
  21373197.8414     827596.71748    667329.67647                  21373204.8994
        31.5004         28.2504
  23390973.8494   -5858361.82946  -4422059.35446                  23390983.2394
        19.2504         17.0004
  23213444.8804    8706830.02747   6704695.32646                  23213454.7634
        20.7504         15.7504
  21018636.9424     167061.85646    157844.63647                  21018642.2164
        18.7504         29.7504
 00  5  9 19 54  0.0010000  0  6G 5G 6G10G17G24G30
  21874728.8414    7177530.36547   5551260.85646                  21874736.5094
        26.2504         23.2504
  22041304.3964   -4420456.51948  -3397405.50446                  22041310.4424
        28.0004         22.2504
  21377362.8024     849482.41748    684383.45047                  21377369.8254
        32.0004         28.2504
  23386687.3254   -5880887.01946  -4439611.39146                  23386697.4664
        18.7504         17.2504
  23222915.0524    8756596.37947   6743474.22946                  23222925.0404
        20.7504         16.2504
  21022012.3804     184800.04046    171666.57547                  21022017.7124
        18.5004         29.7504
 00  5  9 19 54 15.0010000  0  6G 5G 6G10G17G24G30
  21884360.5134    7228144.30447   5590700.21946                  21884368.2744
        26.2504         23.2504
  22037907.3804   -4438308.88848  -3411316.42446                  22037913.4624
        28.5004         22.5004
  21381561.7084     871548.58348    701577.85647                  21381568.8254
        31.7504         28.0004
  23382417.3254   -5903326.88046  -4457096.94846                  23382427.1734
        19.2504         17.5004
  23232392.6924    8806399.86147   6782282.05446                  23232402.3414
        21.0004         16.2504
  21025421.6534     202716.34646    185627.31447                  21025427.2904
        18.5004         29.5004
 00  5  9 19 54 30.0010000  0  6G 5G 6G10G17G24G30
  21894017.1144    7278888.80047   5630241.31146                  21894024.5604
        27.2504         23.5004
  22034522.7084   -4456094.11948  -3425175.02246                  22034528.8024
        28.5004         22.5004
  21385796.2634     893801.10348    718917.47747                  21385803.3214
        31.5004         28.2504
  23378164.1774   -5925675.43846  -4474511.35246                  23378174.5524
        18.7504         18.0004
  23241878.2554    8856246.32747   6821123.38046                  23241887.6814
        21.5004         16.5004
  21028866.1534     220816.56546    199731.35447                  21028871.8374
        18.5004         29.2504
 00  5  9 19 54 45.0010000  0  6G 5G 6G10G17G24G30
  21903698.1534    7329762.66348   5669883.20346                  21903705.5874
        28.0004         23.5004
  22031151.0754   -4473812.89048  -3438981.83246                  22031157.4154
        28.2504         22.7504
  21390066.1224     916239.07948    736401.60247                  21390073.1104
        32.0004         28.5004
  23373928.7084   -5947933.51446  -4491855.24846                  23373939.0364
        18.5004         17.5004
  23251371.6144    8906134.67947   6859997.34446                  23251381.6034
        21.2504         16.7504
  21032345.2944     239099.99646    213978.16347                  21032350.6144
        18.5004         29.7504
 00  5  9 19 55  0.0010000  0  6G 5G 6G10G17G24G30
  21913402.7784    7380761.39648   5709622.40046                  21913409.7554
        28.0004         23.2504
  22027791.0914   -4491469.33748  -3452740.08046                  22027797.1144
        29.0004         23.2504
  21394370.5604     938858.11848    754026.81947                  21394377.6304
        32.0004         28.2504
  23369709.5444   -5970105.38846  -4509131.98446                  23369720.2474
        17.7504         17.5004
  23260872.0914    8956060.47947   6898900.47646                  23260882.3134
        21.0004         16.5004
  21035858.5674     257562.29746    228364.35747                  21035864.0054
        18.2504         29.5004
 00  5  9 19 55 15.0010000  0  6G 5G 6G10G17G24G30
  21923131.6694    7431885.57847   5749459.34946                  21923138.6574
        27.7504         23.2504
  22024443.2634   -4509062.50748  -3466449.02446                  22024449.3564
        29.2504         23.7504
  21398709.3884     961658.79348    771793.57047                  21398716.2824
        32.0004         28.2504
  23365506.9194   -5992190.15246  -4526340.84546                  23365517.2474
        18.2504         17.0004
  23270380.2394    9006024.51947   6937833.42446                  23270390.9074
        21.0004         16.5004
  21039406.0754     276204.19046    242890.48747                  21039411.6304
        18.0004         29.5004
 00  5  9 19 55 30.0010000  0  6G 5G 6G10G17G24G30
  21932884.0444    7483135.02047   5789393.90546                  21932891.1144
        26.7504         23.2504
  22021107.5674   -4526592.00748  -3480108.35246                  22021113.5444
        29.7504         23.7504
  21403082.7394     984641.14048    789701.88547                  21403089.4544
        31.7504         27.7504
  23361320.8724   -6014187.68846  -4543481.74446                  23361330.9074
        18.7504         17.2504
  23279894.9354    9056026.87247   6976796.23046                  23279905.2864
        20.5004         16.0004
  21042987.6304     295025.73646    257556.60647                  21042993.3964
        18.0004         29.0004
 00  5  9 19 55 45.0010000  0  6G 5G 6G10G17G24G30
  21942659.8174    7534507.73847   5829424.52646                  21942667.0874
        26.5004         23.0004
  22017783.4274   -4544059.38148  -3493719.27846                  22017789.4624
        29.7504         23.5004
  21407490.4814    1007803.32848    807750.32747                  21407496.8564
        31.7504         27.5004
  23357151.1464   -6036099.66346  -4560555.96046                  23357161.0284
        19.2504         17.5004
  23289417.0284    9106065.49146   7015787.28646                  23289426.9814
        19.7504         16.0004
  21046602.9584     314025.24946    272361.39847                  21046608.7124
        18.0004         29.0004
 00  5  9 19 56  0.0010000  0  6G 5G 6G10G17G24G30
  21952459.3644    7586004.37347   5869551.70546                  21952466.8684
        25.7504         22.7504
  22014471.5994   -4561463.47248  -3507280.88246                  22014477.6924
        30.0004         24.0004
  21411932.4114    1031146.30548    825939.64947                  21411938.7514
        32.0004         27.5004
  23352998.0364   -6057925.06746  -4577562.72246                  23353008.0014
        18.7504         17.2504
  23298946.2784    9156141.24146   7054807.29146                  23298956.5604
        18.7504         15.5004
  21050252.5754     333203.70246    287305.62947                  21050258.2824
        18.2504         29.0004
 00  5  9 19 56 15.0010000  0  6G 5G 6G10G17G24G30
  21962282.3254    7637625.17147   5909775.63646                  21962290.2284
        25.0004         22.2504
  22011171.8174   -4578803.66948  -3520792.70646                  22011178.2984
        30.0004         24.2504
  21416408.8254    1054670.40448    844270.10147                  21416415.5054
        32.2504         27.5004
  23348860.9974   -6079663.41746  -4594501.64146                  23348871.7824
        18.7504         17.5004
  23308482.6224    9206254.48146   7093856.49146                  23308493.2784
        18.2504         15.2504
  21053936.2084     352561.39546    302389.52547                  21053941.6574
        18.0004         29.0004
 00  5  9 19 56 30.0010000  0  6G 5G 6G10G17G24G30
  21972129.2634    7689370.63147   5950096.70146                  21972137.1884
        24.7504         22.5004
  22007884.5914   -4596078.94348  -3534253.93446                  22007891.0604
        31.2504         24.7504
  21420919.9664    1078376.31348    862742.23347                  21420926.8104
        32.0004         27.7504
  23344741.2474   -6101313.91446  -4611372.10146                  23344751.2244
        19.7504         17.2504
  23318025.8884    9256405.89146   7132935.42746                  23318035.6304
        19.2504         15.2504
  21057654.2944     372099.15046    317613.72947                  21057659.8844
        18.0004         29.0004
 00  5  9 19 56 45.0010000  0  6G 5G 6G10G17G24G30
  21981999.4354    7741238.27047   5990512.97146                  21982007.3964
        25.2504         23.2504
  22004609.0214   -4613291.36248  -3547666.19346                  22004615.4784
        30.7504         25.0004
  21425465.3104    1102261.59248    881354.13147                  21425472.1184
        32.2504         27.7504
  23340637.6694   -6122878.81947  -4628175.87446                  23340647.2944
        20.0004         17.7504
  23327576.6144    9306593.09246   7172042.27546                  23327586.5794
        18.5004         14.7504
  21061405.9354     391814.62946    332976.42047                  21061411.6304
        18.0004         29.0004
 00  5  9 19 57  0.0010000  0  6G 5G 6G10G17G24G30
  21991893.4664    7793230.15147   6031026.05546                  21991901.1344
        26.2504         23.5004
  22001346.0134   -4630438.36048  -3561027.46846                  22001352.2594
        31.0004         24.7504
  21430045.0994    1126328.73948    900107.74347                  21430051.8374
        31.2504         27.5004
  23336550.4664   -6144355.58547  -4644910.96746                  23336560.3494
        20.0004         18.0004
  23337133.8494    9356818.26246   7211178.70046                  23337144.2714
        18.2504         15.0004
  21065192.0444     411710.23946    348479.47447                  21065197.6694
        18.2504         29.5004
 00  5  9 19 57 15.0010000  0  6G 5G 6G10G17G24G30
  22001811.3884    7845347.42047   6071636.84046                  22001819.0564
        27.7504         24.0004
  21998095.8804   -4647518.28548  -3574336.48146                  21998102.1494
        30.5004         25.0004
  21434659.8494    1150578.84948    919003.92247                  21434666.3294
        31.5004         27.5004
  23332480.7084   -6165742.86646  -4661576.31846                  23332490.4854
        19.7504         17.5004
  23346699.0054    9407082.85246   7250345.83846                  23346709.6734
        18.2504         15.0004
  21069012.5604     431787.39246    364123.98747                  21069018.1144
        18.0004         29.2504
 00  5  9 19 57 30.0010000  0  6G 5G 6G10G17G24G30
  22011752.1854    7897586.80448   6112342.78246                  22011759.7714
        28.2504         24.0004
  21994857.8884   -4664534.01548  -3587595.46846                  21994863.8534
        31.2504         25.2504
  21439308.6464    1175008.69148    938040.16047                  21439314.9504
        31.5004         27.2504
  23328427.0054   -6187043.63346  -4678174.26246                  23328436.9814
        18.7504         17.0004
  23356270.8964    9457383.72946   7289541.25146                  23356280.7204
        18.2504         14.5004
  21072867.0524     452042.97846    379907.54647                  21072872.7594
        18.2504         29.0004
 00  5  9 19 57 45.0010000  0  6G 5G 6G10G17G24G30
  22021716.4034    7949948.43947   6153143.97946                  22021723.7554
        27.7504         23.5004
  21991632.3644   -4681485.06348  -3600804.07146                  21991638.3414
        31.2504         25.0004
  21443991.7554    1199618.61048    957216.71147                  21443997.8494
        29.7504         27.2504
  23324390.2634   -6208257.40746  -4694704.42646                  23324400.8374
        19.2504         17.0004
  23365849.9194    9507720.91946   7328764.95146                  23365859.7434
        18.2504         14.5004
  21076755.7634     472477.30746    395830.37147                  21076761.3294
        18.0004         29.0004
 00  5  9 19 58  0.0010000  0  6G 5G 6G10G17G24G30
  22031703.7714    8002432.92747   6194040.90746                  22031711.1574
        26.5004         23.2504
  21988419.1144   -4698370.31348  -3613961.37746                  21988425.1964
        31.0004         25.0004
  21448709.3334    1224409.44348    976534.23547                  21448715.5324
        32.0004         27.0004
  23320370.1464   -6229383.23646  -4711166.05846                  23320380.4154
        19.2504         17.5004
  23375436.0214    9558095.38246   7368017.69846                  23375446.0914
        19.2504         15.0004
  21080678.6614     493091.31246    411893.21147                  21080684.1344
        18.5004         29.2504
 00  5  9 19 58 15.0010000  0  6G 5G 6G10G17G24G30
  22041714.2944    8055038.91147   6235032.50346                  22041721.7514
        25.5004         22.7504
  21985218.1384   -4715190.62748  -3627068.11446                  21985224.1384
        30.2504         24.7504
  21453461.0284    1249380.03848    995991.82547                  21453467.2744
        31.2504         27.0004
  23316366.4814   -6250422.15346  -4727559.97146                  23316376.3884
        18.5004         17.0004
  23385029.1384    9608505.82247   7407298.47646                  23385038.2004
        20.5004         15.0004
  21084635.2244     513883.88646    428095.19947                  21084640.6144
        18.5004         29.2504
 00  5  9 19 58 30.0010000  0  6G 5G 6G10G17G24G30
  22051747.5604    8107764.89247   6276117.60146                  22051755.5214
        24.0004         22.2504
  21982029.7394   -4731946.98748  -3640124.99546                  21982035.8104
        31.2504         25.0004
  21458246.6774    1274528.98448   1015588.39547                  21458252.9584
        32.0004         26.7504
  23312379.1144   -6271375.30846  -4743887.05646                  23312389.1144
        18.7504         17.2504
  23394628.5284    9658951.11547   7446606.42946                  23394638.3994
        21.0004         15.2504
  21088625.4584     534853.67646    444435.27347                  21088631.0014
        18.2504         29.2504
 00  5  9 19 58 45.0010000  0  6G 5G 6G10G17G24G30
  22061804.1384    8160613.36747   6317298.14446                  22061812.1694
        23.5004         21.5004
  21978853.6064   -4748636.47748  -3653129.78446                  21978859.6184
        30.7504         25.2504
  21463066.8334    1299858.83748   1035325.92947                  21463073.2434
        32.2504         27.0004
  23308408.6304   -6292239.94946  -4760145.16046                  23308418.7354
        18.2504         17.5004
  23404235.4034    9709433.67947   7485943.41246                  23404244.8644
        21.5004         15.2504
  21092650.3104     556003.55946    460915.67347                  21092655.8414
        18.0004         29.0004
 00  5  9 19 59  0.0010000  0  6G 5G 6G10G17G24G30
  22071885.2084    8213588.13747   6358577.11846                  22071893.0284
        23.5004         21.5004
  21975691.2314   -4765254.86048  -3666079.15946                  21975697.1964
        32.2504         25.5004
  21467922.1384    1325373.59448   1055207.54447                  21467928.6064
        31.5004         27.2504
  23304456.0604   -6313011.99646  -4776331.12146                  23304466.0014
        19.0004         17.7504
  23413850.0214    9759957.45047   7525312.53446                  23413859.1534
        21.2504         15.2504
  21096710.0214     577337.42146    477539.44047                  21096715.6224
        18.0004         28.7504
 00  5  9 19 59 15.0010000  0  6G 5G 6G10G17G24G30
  22081988.6774    8266682.42847   6399949.20846                  22081996.5214
        24.5004         22.2504
  21972541.4584   -4781808.33548  -3678977.96047                  21972547.5524
        31.7504         25.7504
  21472811.6224    1351066.64148   1075228.08847                  21472818.1854
        29.7504         27.2504
  23300519.3494   -6333697.85146  -4792449.91846                  23300529.4314
        19.0004         17.5004
  23423470.9974    9810515.95047   7564708.68946                  23423480.6814
        21.7504         15.5004
  21100803.4814     598848.72646    494301.47447                  21100809.2354
        18.0004         28.7504
 00  5  9 19 59 30.0010000  0  6G 5G 6G10G17G24G30
  22092114.2944    8319891.65147   6441410.86546                  22092122.0914
        25.5004         22.2504
  21969402.6224   -4798301.01148  -3691829.37747                  21969408.9154
        32.2504         26.0004
  21477733.6924    1376933.64948   1095384.18747                  21477740.4074
        31.7504         27.2504
  23296598.6534   -6354301.70746  -4808504.83146                  23296609.1574
        18.7504         18.0004
  23433097.8024    9861104.77747   7604128.49346                  23433107.6734
        20.5004         15.5004
  21104929.7944     620533.27246    511198.49947                  21104935.4894
        18.0004         28.7504
 00  5  9 19 59 45.0010000  0  6G 5G 6G10G17G24G30
  22102262.7244    8373220.50247   6482965.73246                  22102270.3924
        26.7504         23.2504
  21966276.9584   -4814727.79748  -3704629.46147                  21966283.2634
        31.7504         26.0004
  21482689.9354    1402979.31448   1115679.49847                  21482696.6494
        32.2504         27.0004
  23292694.6144   -6374818.67846  -4824492.00846                  23292704.5794
        19.5004         17.7504
  23442730.7864    9911728.68946   7643575.62046                  23442740.4814
        19.7504         15.2504
  21109090.1534     642395.86746    528234.26647                  21109095.8724
        17.7504         28.5004
 00  5  9 20  0  0.0010000  0  6G 5G 6G10G17G24G30
  22112433.7554    8426668.85647   6524613.72546                  22112441.3884
        26.7504         23.5004
  21963163.5674   -4831088.30348  -3717377.89147                  21963169.9194
        32.2504         26.0004
  21487680.3104    1429203.78048   1136114.13047                  21487686.6494
        32.2504         27.0004
  23288806.5914   -6395248.52447  -4840411.33146                  23288816.3104
        20.0004         18.0004
  23452370.8024    9962387.83846   7683050.22246                  23452380.6144
        19.5004         15.0004
  21113284.4814     664436.64746    545408.87347                  21113290.1064
        18.2504         29.0004
 00  5  9 20  0 15.0010000  0  6G 5G 6G10G17G24G30
  22122627.3564    8480236.80447   6566354.89446                  22122635.1774
        26.2504         23.2504
  21960063.0284   -4847381.98648  -3730074.25447                  21960069.3684
        31.7504         26.0004
  21492704.7784    1455607.14748   1156688.16947                  21492710.7084
        31.2504         26.7504
  23284936.0444   -6415590.82147  -4856262.42446                  23284945.8684
        21.0004         18.5004
  23462017.5994   10013082.31346   7722552.32646                  23462028.2784
        18.5004         14.7504
  21117512.6304     686655.83246    562722.50147                  21117518.3024
        18.2504         28.7504
 00  5  9 20  0 30.0010000  0  6G 5G 6G10G17G24G30
  22132843.6224    8533923.60047   6608188.67746                  22132851.4194
        25.7504         23.2504
  21956975.1384   -4863609.09848  -3742718.74747                  21956981.5484
        31.7504         26.0004
  21497763.2714    1482188.84148   1177401.16247                  21497769.1884
        29.7504         26.7504
  23281081.2244   -6435846.01647  -4872045.65146                  23281091.0834
        20.2504         18.5004
  23471671.3884   10063811.69546   7762081.64246                  23471681.8924
        19.2504         14.7504
  21121774.6774     709053.06146    580174.86547                  21121780.5134
        18.5004         28.7504
 00  5  9 20  0 45.0010000  0  6G 5G 6G10G17G24G30
  22143082.6774    8587729.16547   6650115.01046                  22143090.7314
        25.2504         23.2504
  21953899.6924   -4879769.28248  -3755311.08447                  21953905.9624
        31.2504         26.0004
  21502855.3884    1508948.96948   1198253.19547                  21502861.3884
        31.5004         27.0004
  23277243.4664   -6456013.99846  -4887760.90846                  23277252.9974
        19.7504         18.2504
  23481331.5994   10114575.90446   7801638.10046                  23481341.8334
        19.5004         14.5004
  21126070.6614     731628.36846    597765.99447                  21126076.5564
        18.5004         28.7504
 00  5  9 20  1  0.0010000  0  6G 5G 6G10G17G24G30
  22153343.0834    8641649.38047   6692130.68146                  22153351.2554
        25.0004         22.7504
  21950836.6144   -4895866.16448  -3767854.09247                  21950842.8494
        32.0004         26.0004
  21507980.9894    1535883.53148   1219241.15147                  21507987.1774
        32.0004         27.5004
  23273421.3104   -6476098.40747  -4903411.03546                  23273431.1814
        20.5004         18.2504
  23490997.5604   10165371.15446   7841218.75046                  23491007.4894
        19.2504         14.5004
  21130399.6614     754377.86346    615492.84347                  21130405.5324
        18.2504         29.0004
 00  5  9 20  1 15.0010000  0  6G 5G 6G10G17G24G30
  22163626.4584    8695687.95347   6734238.57746                  22163635.0284
        24.7504         22.7504
  21947786.1924   -4911895.51548  -3780344.48747                  21947792.4744
        31.5004         26.0004
  21513140.3174    1562996.40248   1240368.05347                  21513146.6464
        32.2504         27.5004
  23269616.1464   -6496095.26647  -4918992.95046                  23269626.0874
        21.0004         18.7504
  23500670.5214   10216201.28146   7880826.55646                  23500680.6034
        19.7504         14.2504
  21134762.9894     777305.54546    633358.54447                  21134768.6384
        18.0004         29.5004
 00  5  9 20  1 30.0010000  0  6G 5G 6G10G17G24G30
  22173932.3254    8749845.17347   6776438.93246                  22173940.8254
        24.5004         22.5004
  21944748.9114   -4927856.55748  -3792781.64647                  21944755.1924
        31.2504         25.7504
  21518333.8564    1590287.98148   1261634.19947                  21518340.5134
        30.0004         28.0004
  23265827.8174   -6516004.04647  -4934506.24146                  23265836.9624
        21.7504         18.5004
  23510349.6384   10267066.71046   7920461.89646                  23510359.3684
        19.7504         14.2504
  21139159.8964     800411.96646    651363.52347                  21139165.5324
        18.2504         29.7504
 00  5  9 20  1 45.0010000  0  6G 5G 6G10G17G24G30
  22184260.7394    8804121.69547   6818732.24846                  22184269.2744
        23.7504         22.2504
  21941724.9744   -4943748.15448  -3805164.70347                  21941731.2314
        30.7504         26.0004
  21523561.5134    1617759.11348   1283040.26047                  21523568.1924
        32.0004         28.0004
  23262055.7784   -6535823.65947  -4949950.05546                  23262065.2394
        20.5004         18.0004
  23520036.2864   10317968.37347   7960125.46646                  23520047.0014
        20.0004         14.0004
  21143591.0444     823697.88946    669508.37247                  21143596.5634
        18.0004         29.2504
 00  5  9 20  2  0.0010000  0  6G 5G 6G10G17G24G30
  22194611.0914    8858512.82147   6861114.86046                  22194619.3804
        23.7504         22.0004
  21938713.3414   -4959574.56448  -3817496.95647                  21938719.7044
        31.5004         25.7504
  21528822.1924    1645405.29248   1304582.72247                  21528829.0134
        32.0004         28.0004
  23258300.2394   -6555558.49446  -4965327.80046                  23258309.7244
        19.5004         17.2504
  23529728.3804   10368901.55447   7999813.58146                  23529738.2394
        20.2504         14.0004
  21148055.4274     847158.81646    687789.58747                  21148061.1344
        18.0004         29.0004
 00  5  9 20  2 15.0010000  0  6G 5G 6G10G17G24G30
  22204983.8024    8913022.33547   6903589.72446                  22204992.1384
        23.5004         22.0004
  21935714.8564   -4975331.50748  -3829775.08047                  21935721.1144
        31.7504         25.7504
  21534117.1384    1673230.31748   1326264.55047                  21534124.0324
        32.0004         27.7504
  23254561.7164   -6575204.46647  -4980636.30046                  23254571.0364
        20.0004         17.2504
  23539427.6924   10419870.41347   8039529.50946                  23539437.8454
        20.0004         14.5004
  21152553.9814     870798.79946    706210.32347                  21152559.5014
        19.0004         29.2504
 00  5  9 20  2 30.0010000  0  6G 5G 6G10G17G24G30
  22215377.4744    8967641.16847   6946149.76846                  22215385.4704
        23.7504         21.7504
  21932728.0214   -4991027.53648  -3842005.74547                  21932734.0914
        31.0004         25.7504
  21539444.5134    1701225.29648   1348078.80347                  21539451.2634
        32.0004         28.0004
  23250838.4114   -6594770.38547  -4995882.42046                  23250848.0244
        21.0004         17.7504
  23549131.9744   10470865.94047   8079266.21746                  23549142.8174
        20.0004         14.5004
  21157085.1384     894609.05846    724763.74747                  21157090.9384
        18.0004         29.2504
 00  5  9 20  2 45.0010000  0  6G 5G 6G10G17G24G30
  22225793.5364    9022375.78547   6988800.01846                  22225801.8024
        24.5004         21.7504
  21929754.1224   -5006655.77648  -3854183.57747                  21929760.1814
        31.0004         25.7504
  21544805.4664    1729396.82848   1370030.62647                  21544812.1224
        32.0004         28.0004
  23247132.0914   -6614249.49847  -5011060.90446                  23247141.9624
        20.5004         18.0004
  23558842.2634   10521894.71346   8119028.81446                  23558852.2394
        19.7504         14.7504
  21161649.7164     918596.16146    743454.97147                  21161655.5284
        18.2504         29.2504
 00  5  9 20  3  0.0010000  0  6G 5G 6G10G17G24G30
  22236231.1304    9077225.32847   7031539.83346                  22236239.1034
        24.7504         22.2504
  21926792.7784   -5022216.52648  -3866308.82847                  21926798.8024
        30.2504         26.0004
  21550199.5364    1757744.05048   1392119.35447                  21550206.4194
        32.0004         28.0004
  23243441.6224   -6633642.31747  -5026172.13846                  23243451.3994
        20.0004         18.0004
  23568558.8964   10572956.21046   8158816.93846                  23568568.8604
        19.0004         14.7504
  21166247.6534     942759.57946    762283.57847                  21166253.6064
        18.0004         29.2504
 00  5  9 20  3 15.0010000  0  6G 5G 6G10G17G24G30
  22246690.8724    9132190.63847   7074369.85546                  22246699.0094
        25.2504         22.2504
  21923844.8414   -5037708.46848  -3878380.45347                  21923851.0284
        30.5004         26.0004
  21555627.5524    1786268.15048   1414345.90547                  21555634.6104
        31.7504         27.7504
  23239767.8174   -6652947.65247  -5041215.19846                  23239777.2784
        20.5004         18.0004
  23578281.8494   10624051.33246   8198631.24346                  23578291.9784
        19.0004         14.7504
  21170879.5604     967100.24646    781250.30547                  21170885.5484
        18.0004         29.0004
 00  5  9 20  3 30.0010000  0  6G 5G 6G10G17G24G30
  22257172.6534    9187272.39047   7117290.61246                  22257180.9194
        24.7504         22.5004
  21920910.2554   -5053130.36448  -3890397.49947                  21920916.7944
        30.2504         26.0004
  21561089.2084    1814969.94648   1436710.92247                  21561096.1614
        32.2504         27.7504
  23236111.0524   -6672164.48147  -5056189.30646                  23236120.1144
        21.2504         17.7504
  23588011.5524   10675180.89146   8238472.38146                  23588022.1384
        18.2504         14.7504
  21175545.3644     991618.94846    800355.75047                  21175551.1774
        18.0004         29.2504
 00  5  9 20  3 45.0010000  0  6G 5G 6G10G17G24G30
  22267675.4974    9242465.58047   7160298.20646                  22267683.6924
        24.5004         22.2504
  21917988.0364   -5068486.75548  -3902363.50547                  21917994.5404
        31.0004         26.0004
  21566584.0214    1843844.51248   1459210.56447                  21566591.0914
        32.2504         28.0004
  23232470.3644   -6691297.46547  -5071098.08546                  23232479.8374
        21.2504         17.7504
  23597746.7944   10726340.24146   8278336.72746                  23597757.0874
        18.5004         14.7504
  21180244.1774    1016311.01146    819596.29647                  21180250.1064
        18.2504         28.7504
 00  5  9 20  4  0.0010000  0  6G 5G 6G10G17G24G30
  22278200.5994    9297773.88847   7203395.50646                  22278209.3804
        24.0004         22.0004
  21915079.0364   -5083773.51548  -3914275.24747                  21915085.2004
        31.2504         26.0004
  21572112.0284    1872895.63848   1481847.78447                  21572119.1694
        31.7504         28.2504
  23228845.5524   -6710342.67347  -5085938.45546                  23228854.5914
        20.7504         18.2504
  23607488.8644   10777533.06146   8318227.15346                  23607500.1304
        19.2504         15.0004
  21184976.5914    1041180.57347    838975.14847                  21184982.5794
        20.5004         28.5004
 00  5  9 20  4 15.0010000  0  6G 5G 6G10G17G24G30
  22288747.4194    9353198.71647   7246583.60246                  22288756.1654
        23.0004         21.5004
  21912183.6144   -5098988.74448  -3926131.25547                  21912189.9314
        30.5004         26.0004
  21577674.4814    1902124.81148   1504623.75147                  21577681.6694
        31.7504         28.0004
  23225238.6224   -6729298.38247  -5100709.08246                  23225248.0954
        20.5004         18.7504
  23617236.8174   10828760.98846   8358144.95146                  23617247.6734
        18.5004         14.7504
  21189743.2474    1066229.08146    858493.43647                  21189749.2124
        18.7504         28.5004
 00  5  9 20  4 30.0010000  0  6G 5G 6G10G17G24G30
  22299315.5444    9408735.94047   7289859.27946                  22299324.3374
        22.7504         21.5004
  21909301.2084   -5114136.12048  -3937934.39047                  21909307.7004
        30.2504         25.7504
  21583269.6534    1931528.06048   1527535.35547                  21583276.7944
        31.7504         28.0004
  23221647.7164   -6748168.40647  -5115412.93846                  23221657.6224
        21.7504         19.7504
  23626991.1774   10880020.12946   8398087.05046                  23627001.8104
        18.5004         14.7504
  21194543.2164    1091452.47746    878148.00347                  21194549.1344
        18.0004         28.7504
 00  5  9 20  4 45.0010000  0  6G 5G 6G10G17G24G30
  22309905.4744    9464384.30247   7333221.55846                  22309914.1854
        23.2504         21.0004
  21906431.4194   -5129216.41248  -3949685.24847                  21906437.7714
        30.5004         25.7504
  21588897.8644    1961104.22148   1550581.69147                  21588904.9234
        31.7504         27.7504
  23218073.2164   -6766953.69547  -5130050.77346                  23218082.4894
        22.2504         19.5004
  23636751.6694   10931309.33446   8438052.59846                  23636763.4854
        18.0004         14.7504
  21199376.0054    1116849.72446    897938.03447                  21199381.6534
        18.2504         28.7504
 00  5  9 20  5  0.0010000  0  6G 5G 6G10G17G24G30
  22320516.7554    9520146.03947   7376672.16646                  22320525.4784
        23.2504         21.2504
  21903574.9894   -5144226.87648  -3961381.69747                  21903581.3884
        29.7504         25.7504
  21594559.4664    1990855.80048   1573764.71247                  21594566.3964
        32.0004         27.7504
  23214515.0054   -6785651.67447  -5144620.57546                  23214524.8994
        21.7504         19.7504
  23646517.8724   10982631.15146   8478043.54046                  23646528.4814
        18.0004         14.5004
  21204242.7314    1142423.38446    917865.53747                  21204248.6034
        18.0004         29.0004
 00  5  9 20  5 15.0010000  0  6G 5G 6G10G17G24G30
  22331149.2714    9576021.02847   7420211.03346                  22331157.6064
        24.2504         21.5004
  21900731.9664   -5159167.09748  -3973023.41447                  21900738.2474
        29.5004         25.7504
  21600254.3564    2020782.76448   1597084.39947                  21600261.0714
        32.0004         27.5004
  23210973.1304   -6804262.11647  -5159122.16646                  23210982.7784
        21.5004         19.5004
  23656290.2244   11033985.55646   8518059.88546                  23656300.9854
        18.5004         14.7504
  21209142.8494    1168173.51946    937930.54447                  21209148.7554
        18.7504         29.0004
 00  5  9 20  5 30.0010000  0  6G 5G 6G10G17G24G30
  22341803.3804    9632007.21647   7463836.55046                  22341811.5754
        25.2504         21.5004
  21897901.9424   -5174038.60248  -3984611.58346                  21897908.2474
        28.7504         25.5004
  21605982.2084    2050883.09248   1620539.17647                  21605989.1614
        32.2504         27.7504
  23207448.2714   -6822786.78947  -5173556.92446                  23207458.0484
        20.5004         19.2504
  23666068.6304   11085370.77046   8558100.23546                  23666079.3564
        18.0004         14.5004
  21214076.2864    1194098.19546    958131.56147                  21214082.1224
        18.0004         29.2504
 00  5  9 20  5 45.0010000  0  6G 5G 6G10G17G24G30
  22352477.8494    9688101.38147   7507546.19446                  22352485.7744
        25.2504         22.0004
  21895084.4504   -5188844.08948  -3996148.31447                  21895090.8134
        29.0004         25.7504
  21611742.6144    2081153.87348   1644126.76947                  21611749.7314
        32.2504         28.0004
  23203938.7714   -6841228.51947  -5187927.04946                  23203948.3844
        21.0004         19.5004
  23675852.4664   11136783.72546   8598162.20746                  23675863.0284
        18.7504         14.5004
  21219042.1384    1220194.52646    978466.33447                  21219048.0094
        18.2504         29.2504
 00  5  9 20  6  0.0010000  0  6G 5G 6G10G17G24G30
  22363174.4194    9744312.98147   7551347.34746                  22363182.4624
        25.5004         21.7504
  21892281.5994   -5203573.72748  -4007625.93646                  21892287.9744
        29.7504         25.5004
  21617536.9034    2111604.52148   1667854.52447                  21617544.1964
        31.7504         28.2504
  23200446.9034   -6859577.54847  -5202224.94646                  23200456.6104
        21.0004         19.2504
  23685643.0284   11188234.02646   8638253.28446                  23685653.8134
        18.5004         14.2504
  21224042.6224    1246472.18146    998942.40147                  21224048.4704
        18.0004         29.2504
 00  5  9 20  6 15.0010000  0  6G 5G 6G10G17G24G30
  22373891.6144    9800631.98947   7595232.19746                  22373899.4704
        24.2504         21.5004
  21889491.2634   -5218237.00148  -4019051.84846                  21889497.6854
        29.0004         25.5004
  21623364.1464    2142225.16948   1691714.74647                  21623371.4854
        31.7504         28.2504
  23196970.9744   -6877843.59547  -5216458.18346                  23196980.2944
        20.7504         19.0004
  23695438.9354   11239711.82146   8678365.77446                  23695449.6144
        18.2504         14.2504
  21229075.7864    1272921.15946   1019551.96247                  21229081.5874
        18.0004         29.0004
 00  5  9 20  6 30.0010000  0  6G 5G 6G10G17G24G30
  22384630.0284    9857062.03947   7639203.57146                  22384638.0604
        23.5004         21.2504
  21886714.3254   -5232829.81148  -4030422.85846                  21886720.5244
        29.5004         25.5004
  21629224.2084    2173019.43748   1715710.25847                  21629231.3254
        31.5004         28.2504
  23193511.3024   -6896022.78347  -5230623.72146                  23193520.8804
        20.0004         18.7504
  23705240.6144   11291220.98146   8718502.69546                  23705252.0214
        17.0004         14.0004
  21234142.2714    1299545.33446   1040298.04247                  21234148.0604
        18.0004         29.2504
 00  5  9 20  6 45.0010000  0  6G 5G 6G10G17G24G30
  22395389.1534    9913602.31447   7683260.82846                  22395397.4784
        23.0004         21.0004
  21883950.8564   -5247352.40448  -4041739.15347                  21883957.2204
        29.7504         25.7504
  21635117.1464    2203986.81148   1739840.65447                  21635124.2744
        31.5004         28.0004
  23190068.2634   -6914115.63847  -5244722.00146                  23190078.0404
        20.2504         18.0004
  23715048.6064   11342760.86846   8758663.55046                  23715060.3414
        17.0004         13.5004
  21239242.0134    1326344.15946   1061180.21747                  21239247.7784
        18.0004         29.2504
 00  5  9 20  7  0.0010000  0  6G 5G 6G10G17G24G30
  22406168.9114    9970249.18347   7727401.15246                  22406177.3064
        23.2504         21.0004
  21881199.9584   -5261807.84848  -4053003.12547                  21881206.3454
        29.2504         26.0004
  21641042.3024    2235123.70448   1764103.14247                  21641049.4424
        32.0004         28.0004
  23186641.3414   -6932125.43846  -5258755.55946                  23186650.6964
        19.7504         17.7504
  23724861.9424   11394328.09846   8798845.73046                  23724873.0214
        17.5004         13.7504
  21244374.0834    1353314.25346   1082195.84647                  21244380.1424
        19.2504         29.2504
 00  5  9 20  7 15.0010000  0  6G 5G 6G10G17G24G30
  22416968.8964   10027003.50247   7771625.21146                  22416977.6184
        23.5004         21.0004
  21878462.3254   -5276194.86248  -4064213.77747                  21878468.7004
        29.7504         25.7504
  21646999.8964    2266431.17148   1788498.54647                  21647007.2124
        32.2504         28.0004
  23183230.1534   -6950051.05847  -5272723.51746                  23183239.4854
        20.2504         17.7504
  23734679.9424   11445923.75746   8839050.06146                  23734691.7944
        17.0004         13.7504
  21249539.1064    1380456.59647   1103345.69547                  21249545.2244
        20.7504         29.0004
 00  5  9 20  7 30.0010000  0  6G 5G 6G10G17G24G30
  22427789.6774   10083865.41447   7815933.10246                  22427798.4704
        23.7504         21.2504
  21875737.4814   -5290512.86948  -4075370.65047                  21875743.8454
        29.0004         26.0004
  21652990.0444    2297909.34848   1813026.97047                  21652997.2784
        32.0004         27.7504
  23179834.8964   -6967892.02447  -5286625.51146                  23179843.9584
        20.5004         17.7504
  23744503.9894   11497547.95146   8879276.61146                  23744515.6064
        18.5004         14.0004
  21254737.1064    1407771.50346   1124630.00447                  21254743.2474
        18.2504         29.0004
 00  5  9 20  7 45.0010000  0  6G 5G 6G10G17G24G30
  22438630.7164   10140835.01047   7860324.90546                  22438639.2984
        24.5004         21.2504
  21873026.3024   -5304761.13148  -4086473.17947                  21873032.8644
        29.7504         26.0004
  21659012.8414    2329558.64148   1837688.73147                  21659019.7714
        32.2504         28.0004
  23176456.2394   -6985647.84447  -5300461.14746                  23176465.4664
        21.5004         17.7504
  23754332.8644   11549201.22746   8919525.84846                  23754343.0634
        17.5004         13.7504
  21259967.8174    1435259.24246   1146048.97647                  21259973.6424
        18.7504         28.7504
 00  5  9 20  8  0.0010000  0  6G 5G 6G10G17G24G30
  22449492.7714   10197915.91047   7904803.44546                  22449501.6464
        25.0004         21.5004
  21870329.0364   -5318935.55948  -4097518.18047                  21870335.6924
        30.0004         26.0004
  21665068.6774    2361382.74648   1862486.70847                  21665075.5214
        31.5004         27.7504
  23173094.3724   -7003314.58247  -5314227.37746                  23173103.2124
        21.7504         18.0004
  23764168.6384   11600887.24546   8959800.58346                  23764179.7394
        17.7504         13.5004
  21265232.0914    1462923.68746   1167605.66447                  21265237.8214
        18.2504         28.7504
 00  5  9 20  8 15.0010000  0  6G 5G 6G10G17G24G30
  22460375.7864   10255105.75147   7949366.86946                  22460384.4034
        24.7504         21.2504
  21867645.3414   -5333038.01648  -4108507.09947                  21867651.6464
        30.0004         26.0004
  21671157.5834    2393379.30848   1887419.06747                  21671164.6064
        32.0004         27.7504
  23169749.0364   -7020894.27147  -5327925.77746                  23169757.5714
        22.0004         18.2504
  23774010.1614   11652604.04946   9000099.29446                  23774020.7714
        18.2504         13.7504
  21270529.7864    1490762.66847   1189298.34647                  21270535.7514
        21.0004         28.2504
 00  5  9 20  8 30.0010000  0  6G 5G 6G10G17G24G30
  22471279.0364   10312402.86047   7994013.87046                  22471287.8644
        24.5004         21.2504
  21864975.3804   -5347069.72848  -4119440.88947                  21864981.7434
        30.0004         26.0004
  21677278.7864    2425546.77848   1912484.60047                  21677286.0324
        31.7504         27.7504
  23166420.3724   -7038388.35147  -5341557.45646                  23166429.3764
        22.2504         18.5004
  23783857.3414   11704349.83046   9040420.58546                  23783868.2314
        18.2504         13.7504
  21275860.2314    1518774.70146   1211125.87647                  21275866.2784
        19.7504         28.5004
 00  5  9 20  8 45.0010000  0  6G 5G 6G10G17G24G30
  22482203.2314   10369809.88547   8038746.52046                  22482211.8724
        24.0004         21.0004
  21862319.1774   -5361027.42548  -4130317.01347                  21862325.5754
        29.5004         26.0004
  21683433.0834    2457888.03148   1937685.55147                  21683440.0364
        31.7504         27.7504
  23163107.9424   -7055793.74447  -5355120.02646                  23163117.0754
        23.0004         19.0004
  23793710.5914   11756127.78146   9080766.96346                  23793721.2944
        19.2504         13.7504
  21281224.3254    1546962.69446   1233090.50447                  21281230.2784
        18.5004         28.7504
 00  5  9 20  9  0.0010000  0  6G 5G 6G10G17G24G30
  22493147.5054   10427320.81147   8083560.12846                  22493156.0634
        23.7504         20.7504
  21859676.0134   -5374916.65848  -4141139.78247                  21859682.3764
        29.7504         25.7504
  21689619.3414    2490397.07948   1963017.25147                  21689626.4114
        31.2504         27.7504
  23159811.3494   -7073116.15747  -5368617.94946                  23159820.6574
        23.5004         19.5004
  23803568.5604   11807931.87047   9121133.70546                  23803578.5604
        20.2504         13.7504
  21286620.7314    1575320.69746   1255187.61147                  21286626.6494
        18.2504         29.0004
 00  5  9 20  9 15.0020000  0  6G 5G 6G10G17G24G30
  22504112.9864   10484944.81447   8128461.84546                  22504121.5334
        23.5004         20.5004
  21857046.9794   -5388732.51448  -4151905.37647                  21857053.4474
        29.7504         25.7504
  21695838.9714    2523081.59748   1988485.68447                  21695845.8544
        32.2504         27.2504
  23156531.6664   -7090351.19547  -5382047.78246                  23156540.9514
        22.7504         20.0004
  23813433.7444   11859771.10947   9161527.83046                  23813444.3304
        20.2504         14.0004
  21292050.8934    1603856.27546   1277423.09947                  21292056.8224
        18.7504         29.0004
 00  5  9 20  9 30.0020000  0  6G 5G 6G10G17G24G30
  22515097.8144   10542669.82347   8173442.26846                  22515106.2914
        23.0004         20.2504
  21854431.4394   -5402477.02348  -4162615.37747                  21854437.8144
        30.5004         25.7504
  21702090.3384    2555932.83548   2014084.02547                  21702097.1824
        32.2504         27.2504
  23153268.1044   -7107500.50847  -5395410.82046                  23153277.2254
        22.2504         20.0004
  23823302.8694   11911634.55447   9201940.82246                  23823312.4944
        20.0004         14.0004
  21297513.2134    1632561.41247   1299790.70147                  21297519.2364
        21.2504         28.7504
 00  5  9 20  9 45.0020000  0  6G 5G 6G10G17G24G30
  22526103.4164   10600503.51847   8218507.38646                  22526111.7874
        23.2504         20.2504
  21851830.2604   -5416146.85848  -4173267.19347                  21851836.7174
        30.2504         25.7504
  21708374.5644    2588956.88648   2039817.02347                  21708381.4474
        32.0004         27.2504
  23150021.5414   -7124561.22847  -5408704.83146                  23150030.9324
        22.0004         20.0004
  23833177.9394   11963529.56247   9242378.43346                  23833188.2444
        20.0004         13.5004
  21303009.0884    1661441.82146   1322294.88747                  21303015.0764
        18.7504         29.0004
 00  5  9 20 10  0.0020000  0  6G 5G 6G10G17G24G30
  22537128.7134   10658443.41947   8263655.26146                  22537137.0494
        23.2504         20.0004
  21849242.8544   -5429743.92648  -4183862.30047                  21849249.2404
        30.0004         26.0004
  21714691.2364    2622151.50048   2065682.92847                  21714698.4824
        31.5004         27.0004
  23146791.3304   -7141535.50147  -5421931.49746                  23146800.4284
        21.5004         20.2504
  23843058.9244   12015453.80146   9282838.78346                  23843069.8614
        18.5004         13.5004
  21308537.8144    1690495.22546   1344933.87147                  21308543.8034
        18.2504         29.2504
 00  5  9 20 10 15.0020000  0  6G 5G 6G10G17G24G30
  22548174.2834   10716487.22647   8308884.10646                  22548183.1234
        23.2504         20.5004
  21846668.9394   -5443269.99048  -4194402.08247                  21846675.4904
        30.5004         25.7504
  21721040.0184    2655514.41948   2091679.97647                  21721047.2994
        31.2504         26.7504
  23143577.3304   -7158425.22547  -5435092.27346                  23143586.8504
        20.2504         20.2504
  23852944.9474   12067405.30346   9323320.38046                  23852955.6394
        17.7504         12.7504
  21314098.9394    1719719.62746   1367706.09147                  21314104.8224
        18.7504         29.0004
 00  5  9 20 10 30.0020000  0  6G 5G 6G10G17G24G30
  22559239.6114   10774636.59347   8354195.20946                  22559248.3814
        23.2504         20.5004
  21844108.9864   -5456722.84948  -4204884.81347                  21844115.1624
        30.7504         26.0004
  21727421.2604    2689047.46448   2117809.59147                  21727428.4474
        32.0004         27.0004
  23140379.4944   -7175228.37646  -5448185.59046                  23140389.6114
        19.2504         19.7504
  23862836.1974   12119386.01946   9363824.77046                  23862846.9244
        17.5004         13.0004
  21319693.1274    1749116.94747   1390613.07247                  21319699.1974
        20.2504         28.7504
 00  5  9 20 10 45.0020000  0  6G 5G 6G10G17G24G30
  22570325.5414   10832892.06747   8399588.99846                  22570334.5574
        23.5004         20.5004
  21841563.1194   -5470101.47048  -4215309.71147                  21841569.3774
        31.5004         26.2504
  21733834.8774    2722751.27548   2144072.27447                  21733841.9714
        31.7504         27.0004
  23137198.8224   -7191944.07446  -5461210.77246                  23137208.7874
        19.7504         20.0004
  23872733.7524   12171396.55446   9404352.37946                  23872745.2874
        17.5004         12.7504
  21325320.3384    1778687.90147   1413655.33847                  21325326.3734
        22.5004         28.7504
 00  5  9 20 11  0.0020000  0  6G 5G 6G10G17G24G30
  22581431.2524   10891251.02047   8445063.41046                  22581440.5024
        22.7504         20.7504
  21839030.8934   -5483407.99648  -4225678.42447                  21839036.9634
        31.5004         26.2504
  21740280.6744    2756623.29548   2170466.02247                  21740287.6394
        32.0004         26.7504
  23134034.0414   -7208574.83347  -5474169.77646                  23134043.8304
        20.0004         20.0004
  23882636.7364   12223434.50046   9444901.33046                  23882647.4514
        17.0004         12.7504
  21330980.1504    1808429.83947   1436830.84047                  21330986.1504
        20.2504         28.5004
 00  5  9 20 11 15.0020000  0  6G 5G 6G10G17G24G30
  22592556.8304   10949717.20547   8490621.38346                  22592565.9754
        23.0004         21.0004
  21836513.1744   -5496638.17748  -4235987.65147                  21836519.3964
        31.7504         26.5004
  21746758.9004    2790667.34448   2196993.82547                  21746765.7714
        32.0004         26.7504
  23130886.3854   -7225116.51847  -5487059.37246                  23130895.8694
        20.2504         19.5004
  23892545.0724   12275503.81546   9485474.74046                  23892555.2484
        17.7504         12.5004
  21336673.1974    1838346.76946   1460142.69247                  21336679.1744
        19.2504         28.5004
 00  5  9 20 11 30.0020000  0  6G 5G 6G10G17G24G30
  22603702.3464   11008286.43447   8536259.65246                  22603711.7364
        23.5004         21.0004
  21834009.4864   -5509795.56048  -4246240.14347                  21834015.8854
        32.0004         26.5004
  21753269.3304    2824879.41548   2223652.55647                  21753276.3894
        31.7504         26.7504
  23127754.6584   -7241572.92147  -5499882.50046                  23127764.3894
        20.2504         19.5004
  23902458.7444   12327600.56346   9526069.52346                  23902468.9904
        17.7504         12.5004
  21342398.7994    1868434.81646   1483587.90047                  21342404.6824
        18.0004         29.0004
 00  5  9 20 11 45.0020000  0  6G 5G 6G10G17G24G30
  22614867.4474   11066958.59647   8581978.11746                  22614876.7564
        23.7504         21.0004
  21831519.6504   -5522879.91048  -4256435.73247                  21831525.8504
        32.2504         26.7504
  21759811.6354    2859259.39548   2250442.11747                  21759818.7644
        31.7504         26.7504
  23124639.5644   -7257943.97947  -5512639.12546                  23124648.6394
        22.2504         19.7504
  23912377.7604   12379724.82546   9566685.74446                  23912387.0214
        17.7504         12.0004
  21348156.6824    1898693.82246   1507166.31647                  21348162.8114
        19.0004         29.0004
 00  5  9 20 12  0.0020000  0  6G 5G 6G10G17G24G30
  22626052.2054   11125734.26447   8627777.23546                  22626061.5374
        23.0004         20.5004
  21829043.7604   -5535890.09148  -4266573.52947                  21829050.0184
        32.2504         26.7504
  21766386.0184    2893808.10448   2277363.15847                  21766393.3464
        31.5004         26.7504
  23121540.5024   -7274228.69247  -5525328.46846                  23121549.2134
        23.2504         20.0004
  23922302.0494   12431877.26146   9607323.91046                  23922312.4714
        18.2504         12.5004
  21353947.5494    1929124.63347   1530878.59947                  21353953.5614
        20.0004         28.7504
 00  5  9 20 12 15.0020000  0  6G 5G 6G10G17G24G30
  22637256.0964   11184611.74547   8673655.68346                  22637264.8774
        22.7504         20.2504
  21826582.0024   -5548827.21248  -4276654.39447                  21826588.1784
        32.0004         27.0004
  21772992.1504    2928523.95548   2304414.44047                  21772999.3264
        31.5004         26.5004
  23118457.9324   -7290428.44647  -5537951.61446                  23118466.2794
        24.2504         19.7504
  23932231.6354   12484056.59946   9647983.04346                  23932241.2714
        18.2504         12.7504
  21359770.9714    1959725.81146   1554723.63047                  21359776.9124
        18.0004         28.5004
 00  5  9 20 12 30.0020000  0  6G 5G 6G10G17G24G30
  22648479.2294   11243591.15647   8719613.56646                  22648488.2324
        22.7504         19.7504
  21824134.1194   -5561690.52148  -4286677.74747                  21824140.2134
        30.2504         26.7504
  21779630.3774    2963407.17348   2331596.13947                  21779637.6464
        31.5004         26.5004
  23115391.4004   -7306542.71547  -5550508.13746                  23115400.0764
        24.7504         19.5004
  23942166.1354   12536263.18446   9688663.41646                  23942176.0884
        18.5004         12.7504
  21365626.7134    1990497.71746   1578701.70347                  21365632.4204
        18.2504         29.0004
 00  5  9 20 12 45.0020000  0  6G 5G 6G10G17G24G30
  22659722.8774   11302675.40647   8765653.14146                  22659731.4824
        22.7504         19.5004
  21821701.0724   -5574476.66848  -4296640.97347                  21821707.1544
        29.5004         27.0004
  21786300.7684    2998460.77748   2358910.60347                  21786307.6274
        32.0004         26.5004
  23112341.9474   -7322568.26947  -5562995.52646                  23112350.2604
        25.5004         19.5004
  23952106.5644   12588500.08846   9729367.42646                  23952117.6074
        18.5004         13.0004
  21371515.5964    2021443.39046   1602815.18247                  21371521.3384
        18.2504         28.7504
 00  5  9 20 13  0.0020000  0  6G 5G 6G10G17G24G30
  22670985.1434   11361859.36247   8811770.40946                  22670993.3734
        22.7504         19.5004
  21819281.9244   -5587190.32248  -4306547.71047                  21819288.1584
        31.0004         27.0004
  21793002.9164    3033679.67548   2386353.87047                  21793009.6784
        32.2504         26.2504
  23109308.3074   -7338509.96547  -5575417.57446                  23109316.7834
        25.2504         19.5004
  23962051.9244   12640762.38546   9770091.18746                  23962063.2364
        18.5004         13.7504
  21377436.3544    2052557.74646   1627060.10247                  21377442.3544
        19.7504         29.0004
 00  5  9 20 13 15.0020000  0  6G 5G 6G10G17G24G30
  22682266.7054   11421143.41647   8857965.68646                  22682275.1004
        22.0004         19.2504
  21816876.4394   -5599830.56948  -4316397.24547                  21816882.6624
        29.7504         27.2504
  21799736.3464    3069064.32148   2413926.29847                  21799743.4514
        32.2504         26.7504
  23106290.5104   -7354367.11847  -5587773.74446                  23106298.9984
        24.5004         19.0004
  23972002.2604   12693050.71446   9810835.22846                  23972013.4434
        19.5004         13.5004
  21383389.3544    2083841.39547   1651436.93747                  21383395.4594
        22.7504         28.7504
 00  5  9 20 13 30.0020000  0  6G 5G 6G10G17G24G30
  22693567.1824   11480526.99947   8904238.51046                  22693575.7994
        22.7504         19.2504
  21814484.9004   -5612397.52247  -4326189.66947                  21814491.0414
        25.2504         27.2504
  21806501.2294    3104614.30548   2441627.56247                  21806508.3224
        32.2504         26.7504
  23103288.9084   -7370140.05847  -5600064.29746                  23103297.5614
        23.5004         19.0004
  23981957.2444   12745364.59446   9851599.21746                  23981968.0064
        19.0004         13.7504
  21389374.6194    2115293.83846   1675945.29547                  21389380.7604
        19.2504         29.0004
 00  5  9 20 13 45.0020000  0  6G 5G 6G10G17G24G30
  22704887.3224   11540013.47547   8950591.51846                  22704896.2564
        23.0004         19.5004
  21812108.3074   -5624887.22747  -4335921.90147                  21812114.4714
        21.7504         27.5004
  21813298.3464    3140333.05448   2469460.32547                  21813305.4284
        32.0004         26.7504
  23100304.0964   -7385824.96647  -5612286.25946                  23100312.6194
        23.0004         19.0004
  23991917.8464   12797707.87346   9892386.08946                  23991928.5144
        18.7504         14.0004
  21395392.7054    2146918.78146   1700588.06647                  21395398.6354
        18.5004         29.0004
 00  5  9 20 14  0.0020000  0  6G 5G 6G10G17G24G30
  22716225.3854   11599595.36847   8997018.86546                  22716234.5294
        22.7504         20.0004
  21809745.0254   -5637306.59547  -4345599.32547                  21809751.1074
        24.2504         27.7504
  21820126.2134    3176213.18048   2497418.84047                  21820133.4824
        32.2504         26.7504
  23097334.7994   -7401429.02147  -5624445.22146                  23097343.8034
        22.7504         19.2504
  24001882.8614   12850073.11746   9933190.09046                  24001894.2324
        17.5004         13.7504
  21401442.0964    2178708.85347   1725359.51947                  21401448.2364
        20.7504         28.7504
 00  5  9 20 14 15.0020000  0  6G 5G 6G10G17G24G30
  22727582.7914   11659278.48847   9043525.09746                  22727591.9244
        23.0004         20.5004
  21807396.1584   -5649649.26048  -4355216.98347                  21807402.2754
        31.2504         27.5004
  21826985.7914    3212260.61448   2525507.72747                  21826992.9674
        32.2504         27.0004
  23094381.8694   -7416946.06747  -5636536.38146                  23094390.6864
        21.5004         19.2504
  24011852.8074   12902466.46046   9974015.96046                  24011864.0254
        17.0004         13.5004
  21407524.1274    2210670.11448   1750264.36647                  21407530.3034
        29.7504         28.5004
 00  5  9 20 14 30.0020000  0  6G 5G 6G10G17G24G30
  22738958.1824   11719054.41847   9090103.63946                  22738967.1394
        23.5004         20.5004
  21805060.5724   -5661923.07047  -4364780.98047                  21805066.6784
        25.0004         27.5004
  21833875.8074    3248467.18948   2553720.61947                  21833883.0884
        32.2504         26.7504
  23091444.0254   -7432384.18247  -5648566.04946                  23091452.9124
        20.7504         19.5004
  24021827.0494   12954879.65546  10014857.35546                  24021838.2684
        17.2504         12.7504
  21413637.2684    2242794.32748   1775296.18147                  21413643.5254
        29.0004         28.5004
 00  5  9 20 14 45.0020000  0  6G 5G 6G10G17G24G30
  22750351.6354   11778927.90947   9136758.21146                  22750360.5684
        23.0004         20.7504
  21802738.9394   -5674122.83547  -4374287.28347                  21802744.9984
        22.2504         27.7504
  21840796.7214    3284837.47948   2582061.07947                  21840804.0024
        32.2504         27.0004
  23088521.9084   -7447738.42846  -5660530.36246                  23088531.5454
        19.7504         19.7504
  24031805.5964   13007317.65946  10055718.04246                  24031816.7444
        17.7504         13.2504
  21419782.2994    2275086.31047   1800458.72647                  21419788.3574
        20.7504         28.7504
 00  5  9 20 15  0.0020000  0  6G 5G 6G10G17G24G30
  22761762.9244   11838895.04047   9183485.73446                  22761772.1394
        22.0004         20.5004
  21800430.7294   -5686251.98847  -4383738.56647                  21800436.7404
        24.2504         27.5004
  21847748.1194    3321367.72148   2610526.17947                  21847755.4594
        32.0004         27.0004
  23085615.4084   -7463012.36247  -5672432.09946                  23085624.8464
        20.2504         19.7504
  24041788.2524   13059776.73446  10096595.14546                  24041799.3774
        17.7504         13.2504
  21425958.4864    2307542.29646   1825749.07247                  21425964.4984
        18.7504         29.0004
 00  5  9 20 15 15.0020000  0  6G 5G 6G10G17G24G30
  22773192.7054   11898958.61147   9230288.41646                  22773202.5764
        21.7504         20.2504
  21798136.9714   -5698307.27047  -4393132.28747                  21798142.9944
        27.7504         27.7504
  21854730.4864    3358060.90748   2639118.25047                  21854737.9204
        31.7504         27.0004
  23082725.0254   -7478202.90647  -5684268.86546                  23082734.5104
        20.5004         20.5004
  24051775.3464   13112259.92846  10137491.04146                  24051786.7644
        18.5004         13.2504
  21432166.3934    2340165.10346   1851169.40347                  21432172.5214
        19.7504         29.2504
 00  5  9 20 15 30.0020000  0  6G 5G 6G10G17G24G30
  22784640.7294   11959118.33947   9277166.02346                  22784650.3654
        21.7504         19.7504
  21795857.0644   -5710288.26847  -4402468.11947                  21795863.2054
        22.7504         28.0004
  21861744.2444    3394916.68848   2667837.01647                  21861751.4554
        31.7504         27.0004
  23079850.3614   -7493309.96647  -5696040.57946                  23079859.8814
        21.5004         21.2504
  24061767.5494   13164767.21346  10178405.71746                  24061779.2834
        18.5004         13.2504
  21438406.1664    2372954.74647   1876719.72847                  21438412.3184
        20.5004         28.7504
 00  5  9 20 15 45.0020000  0  6G 5G 6G10G17G24G30
  22796107.1274   12019374.93647   9324119.11546                  22796116.7874
        21.2504         19.5004
  21793591.2994   -5722193.76047  -4411745.11947                  21793597.3114
        21.2504         28.0004
  21868788.6664    3431935.86048   2696683.10147                  21868795.7484
        32.2504         27.0004
  23076991.3074   -7508332.53847  -5707746.45046                  23077000.6394
        21.5004         21.5004
  24071764.1584   13217299.44146  10219339.83246                  24071775.9514
        17.7504         13.2504
  21444677.7684    2405912.06146   1902400.71047                  21444683.8384
        18.0004         28.7504
 00  5  9 20 16  0.0020000  0  6G 5G 6G10G17G24G30
  22807591.3224   12079725.58247   9371145.48246                  22807601.2994
        20.7504         19.5004
  21791339.9244   -5734026.04247  -4420965.07247                  21791346.1824
        24.7504         28.2504
  21875864.0184    3469115.87848   2725654.51747                  21875871.1824
        32.2504         27.2504
  23074148.5804   -7523273.07447  -5719388.38546                  23074158.1464
        22.7504         22.2504
  24081764.5494   13269854.18946  10260291.47346                  24081777.0104
        15.7504         13.0004
  21450980.9324    2439034.55046   1928210.39847                  21450986.8264
        18.5004         29.0004
 00  5  9 20 16 15.0020000  0  6G 5G 6G10G17G24G30
  22819093.2444   12140167.81847   9418243.22946                  22819103.1044
        21.0004         19.2504
  21789101.6894   -5745787.04448  -4430129.48247                  21789107.9364
        30.5004         28.2504
  21882969.0414    3506454.27148   2754749.34947                  21882976.3574
        32.0004         27.2504
  23071320.8144   -7538133.73947  -5730968.09846                  23071330.1824
        24.2504         23.0004
  24091769.7364   13322429.17546  10301258.89046                  24091780.8504
        16.7504         12.7504
  21457314.6824    2472319.80446   1954146.91647                  21457320.7754
        18.0004         28.7504
 00  5  9 20 16 30.0020000  0  6G 5G 6G10G17G24G30
  22830613.5414   12200706.30347   9465415.97446                  22830623.4714
        21.2504         19.0004
  21786878.2914   -5757471.57647  -4439234.30647                  21786884.5024
        27.0004         28.0004
  21890105.3774    3543955.80448   2783971.30247                  21890113.0574
        31.5004         27.2504
  23068508.9324   -7552909.55047  -5742481.68846                  23068518.3694
        24.5004         23.0004
  24101779.5964   13375029.30046  10342245.91746                  24101790.1234
        17.0004         13.0004
  21463680.7364    2505772.71046   1980214.07847                  21463686.7364
        18.0004         28.7504
 00  5  9 20 16 45.0020000  0  6G 5G 6G10G17G24G30
  22842152.0334   12261340.08147   9512662.96546                  22842161.6354
        21.5004         19.0004
  21784669.3144   -5769080.11647  -4448279.91947                  21784675.4204
        27.5004         28.0004
  21897272.5724    3581619.74548   2813319.80347                  21897280.0064
        32.2504         27.2504
  23065713.0724   -7567601.14547  -5753929.65146                  23065722.2404
        25.0004         22.5004
  24111793.6194   13427653.88746  10383252.01446                  24111804.1584
        17.5004         13.0004
  21470078.2754    2539392.36946   2006411.16947                  21470084.3694
        19.2504         28.5004
 00  5  9 20 17  0.0020000  0  6G 5G 6G10G17G24G30
  22853708.8694   12322071.12447   9559985.74546                  22853718.6354
        21.0004         19.0004
  21782475.2294   -5780610.12648  -4457264.33947                  21782481.2874
        29.2504         28.0004
  21904471.1584    3619448.00648   2842796.35247                  21904478.5454
        32.0004         27.2504
  23062933.8384   -7582206.28447  -5765310.23746                  23062943.1824
        26.2504         22.5004
  24121812.7524   13480304.95446  10424278.70646                  24121823.6074
        18.0004         13.5004
  21476508.0724    2573180.96147   2032739.89447                  21476514.1194
        21.2504         28.2504
 00  5  9 20 17 15.0020000  0  6G 5G 6G10G17G24G30
  22865283.1044   12382893.83647   9607379.95546                  22865292.6464
        21.0004         18.7504
  21780295.1274   -5792066.64047  -4466191.48647                  21780301.2214
        27.0004         28.2504
  21911699.7834    3657435.10448   2872396.65647                  21911707.1234
        31.2504         27.2504
  23060170.2524   -7596730.15247  -5776627.50146                  23060179.2794
        26.2504         22.7504
  24131835.7134   13532977.32346  10465322.03146                  24131847.0374
        17.5004         13.0004
  21482968.9474    2607133.02147   2059196.00447                  21482975.1004
        27.7504         28.2504
 00  5  9 20 17 30.0020000  0  6G 5G 6G10G17G24G30
  22876874.8224   12443807.45147   9654844.99646                  22876884.7294
        20.5004         19.0004
  21778128.6044   -5803449.92348  -4475061.57147                  21778134.6624
        30.5004         28.0004
  21918958.6504    3695580.31948   2902120.17347                  21918966.3184
        30.7504         27.0004
  23057421.3774   -7611173.23547  -5787881.81746                  23057430.4164
        25.0004         21.5004
  24141863.0414   13585670.42246  10506381.48746                  24141874.7644
        16.7504         12.7504
  21489460.7524    2641247.87047   2085778.97347                  21489466.8694
        25.5004         28.7504
 00  5  9 20 17 45.0020000  0  6G 5G 6G10G17G24G30
  22888483.5644   12504811.53947   9702380.53846                  22888493.4594
        20.2504         19.2504
  21775976.5804   -5814759.83548  -4483874.49447                  21775982.5574
        28.5004         28.0004
  21926247.4324    3733883.31048   2931966.63447                  21926255.1934
        30.7504         27.2504
  23054688.3464   -7625535.69947  -5799073.30546                  23054697.5254
        23.7504         20.7504
  24151894.0804   13638383.99146  10547456.90346                  24151905.8734
        16.2504         12.5004
  21495983.6824    2675525.30347   2112488.62147                  21495990.0104
        24.7504         29.0004
 00  5  9 20 18  0.0020000  0  6G 5G 6G10G17G24G30
  22900109.9944   12565908.46847   9749988.42046                  22900120.2174
        20.7504         19.2504
  21773839.0184   -5825993.41948  -4492627.92947                  21773845.0294
        28.5004         28.0004
  21933566.6504    3772346.60748   2961938.01047                  21933574.0844
        31.5004         27.0004
  23051971.1194   -7639814.72947  -5810199.77746                  23051979.9124
        24.2504         20.0004
  24161929.5334   13691120.75446  10588550.38546                  24161942.1114
        15.0004         12.2504
  21502537.9164    2709967.85546   2139326.93147                  21502544.3504
        19.7504         29.2504
 00  5  9 20 18 15.0020000  0  6G 5G 6G10G17G24G30
  22911753.8224   12627097.88847   9797668.37746                  22911764.1504
        20.2504         19.2504
  21771715.7444   -5837150.51748  -4501321.76347                  21771721.7914
        31.5004         28.0004
  21940916.7834    3810970.01148   2992034.13747                  21940924.0064
        32.0004         27.2504
  23049269.6974   -7654010.30047  -5821261.23046                  23049278.5144
        23.5004         19.7504
  24171969.4864   13743880.56646  10629661.83746                  24171981.7604
        15.0004         12.0004
  21509123.5104    2744575.32846   2166293.75247                  21509129.9434
        18.2504         29.5004
 00  5  9 20 18 30.0020000  0  6G 5G 6G10G17G24G30
  22923415.1194   12688377.28346   9845418.45146                  22923425.6354
        19.5004         19.2504
  21769606.7604   -5848233.14848  -4509957.57447                  21769612.8304
        30.5004         28.2504
  21948296.5644    3849750.98748   3022253.04847                  21948303.7294
        32.5004         27.2504
  23046583.7754   -7668124.76647  -5832259.47946                  23046592.5924
        21.5004         19.2504
  24182013.4714   13796661.13946  10670789.48246                  24182025.1584
        15.5004         12.0004
  21515740.3074    2779345.29846   2193387.19147                  21515746.5064
        18.0004         29.5004
 00  5  9 20 18 45.0020000  0  6G 5G 6G10G17G24G30
  22935093.3854   12749747.57047   9893239.35046                  22935104.0184
        20.2504         18.7504
  21767512.3854   -5859239.83348  -4518534.21247                  21767518.4324
        31.5004         28.0004
  21955706.5574    3888690.60248   3052595.58347                  21955713.9674
        30.7504         26.7504
  23043913.4244   -7682156.83647  -5843193.51646                  23043922.5334
        21.2504         18.2504
  24192061.3074   13849463.69046  10711934.23046                  24192072.6194
        15.7504         12.2504
  21522387.9634    2814278.96046   2220608.18847                  21522394.1394
        18.5004         29.0004
 00  5  9 20 19  0.0020000  0  6G 5G 6G10G17G24G30
  22946789.5574   12811209.24347   9941131.44946                  22946799.1824
        21.2504         18.7504
  21765432.3854   -5870169.54048  -4527050.86147                  21765438.4554
        30.2504         28.2504
  21963146.6504    3927789.23648   3083062.01747                  21963154.1544
        31.2504         27.0004
  23041259.1354   -7696105.69447  -5854062.72346                  23041268.0804
        21.7504         18.7504
  24202113.9324   13902288.74946  10753096.54046                  24202124.8934
        16.0004         12.2504
  21529066.7994    2849376.77546   2247957.09547                  21529072.9514
        18.2504         29.5004
 00  5  9 20 19 15.0020000  0  6G 5G 6G10G17G24G30
  22958502.1824   12872760.13447   9989093.06946                  22958512.0884
        21.2504         19.0004
  21763366.9394   -5881023.95048  -4535508.83447                  21763373.1744
        29.5004         28.5004
  21970616.6354    3967044.83748   3113650.77047                  21970624.5724
        31.7504         27.2504
  23038619.9944   -7709973.26147  -5864868.59546                  23038628.7294
        21.7504         19.0004
  24212170.2444   13955134.42946  10794274.87546                  24212182.3544
        15.5004         12.0004
  21535776.4714    2884636.72546   2275432.34447                  21535782.6704
        18.0004         29.5004
 00  5  9 20 19 30.0020000  0  6G 5G 6G10G17G24G30
  22970232.2214   12934400.39647  10037124.32946                  22970241.0254
        21.5004         18.7504
  21761315.7524   -5891802.28048  -4543907.52547                  21761322.0924
        31.7504         28.5004
  21978116.7994    4006457.73648   3144362.08547                  21978124.6314
        31.7504         27.2504
  23035996.8774   -7723758.94747  -5875610.65646                  23036005.7874
        22.0004         19.7504
  24222230.4164   14008001.31646  10835469.76946                  24222243.4164
        15.7504         12.5004
  21542517.0414    2920059.18746   2303034.21347                  21542523.4284
        19.5004         29.5004
 00  5  9 20 19 45.0020000  0  6G 5G 6G10G17G24G30
  22981978.6044   12996126.97747  10085222.84246                  22981987.7134
        22.0004         18.5004
  21759278.9084   -5902507.11348  -4552248.95047                  21759285.1434
        31.2504         28.5004
  21985646.1504    4046024.88748   3175193.59647                  21985653.6074
        31.5004         27.0004
  23033388.7294   -7737465.50147  -5886291.06246                  23033397.7794
        23.0004         20.5004
  24232293.7834   14060886.55546  10876678.95445                  24232306.1394
        15.2504         11.7504
  21549288.1584    2955641.22247   2330760.42547                  21549294.6154
        21.5004         29.2504
 00  5  9 20 20  0.0020000  0  6G 5G 6G10G17G24G30
  22993741.9164   13057941.17647  10133389.62846                  22993750.8964
        22.0004         18.2504
  21757256.1114   -5913136.60148  -4560531.66247                  21757262.4284
        30.7504         28.5004
  21993205.3074    4085747.69048   3206146.39847                  21993212.9514
        31.2504         27.0004
  23030795.8074   -7751091.26947  -5896908.50846                  23030805.1154
        24.0004         21.5004
  24242361.2914   14113791.53146  10917903.50945                  24242372.6744
        15.0004         11.5004
  21556090.0574    2991384.31247   2358612.13247                  21556096.5964
        25.7504         28.7504
 00  5  9 20 20 15.0020000  0  6G 5G 6G10G17G24G30
  23005521.5334   13119844.81647  10181626.11146                  23005530.5614
        21.5004         18.2504
  21755248.1114   -5923688.40248  -4568753.84147                  21755254.4044
        32.0004         28.5004
  22000794.2834    4125628.05448   3237221.97447                  22000801.7054
        31.7504         27.0004
  23028218.7364   -7764634.23547  -5907461.44846                  23028227.8814
        24.7504         22.2504
  24252433.6354   14166718.37346  10959145.09845                  24252445.1354
        16.2504         11.7504
  21562922.6504    3027290.38547   2386590.84447                  21562928.6864
        23.7504         28.2504
 00  5  9 20 20 30.0020000  0  6G 5G 6G10G17G24G30
  23017318.2054   13181838.30947  10229932.61146                  23017327.1744
        20.2504         17.5004
  21753255.0884   -5934161.52748  -4576914.71747                  21753261.2994
        32.2504         28.5004
  22008413.5024    4165666.38148   3268420.64047                  22008420.9244
        32.2504         27.2504
  23025657.4324   -7778093.71947  -5917949.33546                  23025666.4364
        26.2504         23.2504
  24262510.0884   14219667.82146  11000404.35946                  24262521.5764
        16.7504         12.0004
  21569786.5334    3063359.96447   2414696.97147                  21569792.5214
        27.0004         27.7504
 00  5  9 20 20 45.0020000  0  6G 5G 6G10G17G24G30
  23029132.4944   13243921.62347  10278309.09846                  23029142.0614
        20.0004         17.5004
  21751277.2214   -5944555.47748  -4585013.89547                  21751283.5844
        32.2504         28.5004
  22016062.4634    4205862.82348   3299742.50847                  22016069.8734
        32.2504         27.0004
  23023112.2684   -7791469.37747  -5928371.89546                  23023121.2254
        26.7504         23.7504
  24272590.4084   14272639.94846  11041681.24845                  24272601.7684
        15.7504         11.7504
  21576681.3384    3099593.09748   2442930.54547                  21576687.5374
        30.7504         27.7504
 00  5  9 20 21  0.0020000  0  6G 5G 6G10G17G24G30
  23040962.3304   13306090.37646  10326752.17446                  23040972.7294
        18.7504         17.7504
  21749313.7754   -5954874.06048  -4593054.34347                  21749319.9984
        31.7504         28.5004
  22023740.9554    4246213.11648   3331184.25947                  22023748.4364
        31.7504         27.0004
  23020581.9244   -7804765.23847  -5938732.27046                  23020590.8814
        27.0004         23.7504
  24282673.8694   14325630.77346  11082972.70346                  24282685.3814
        16.0004         12.0004
  21583606.7834    3135985.76448   2471288.42447                  21583613.1354
        30.2504         28.0004
 00  5  9 20 21 15.0020000  0  6G 5G 6G10G17G24G30
  23052809.7054   13368346.70546  10375263.48446                  23052819.9514
        18.7504         17.7504
  21747364.8694   -5965114.59748  -4601033.97947                  21747371.1504
        32.2504         28.5004
  22031449.1584    4286719.46348   3362747.61047                  22031456.6044
        31.7504         26.5004
  23018067.4324   -7817978.77848  -5949028.50446                  23018076.1314
        28.0004         24.2504
  24292761.6504   14378642.59646  11124280.54646                  24292772.9864
        15.7504         12.5004
  21590562.6824    3172540.04647   2499772.23147                  21590569.2324
        22.2504         28.5004
 00  5  9 20 21 30.0020000  0  6G 5G 6G10G17G24G30
  23064672.2054   13430684.70146  10423838.43646                  23064683.1314
        18.7504         17.5004
  21745430.1504   -5975282.43448  -4608956.97047                  21745436.5024
        32.2504         28.5004
  22039185.7754    4327375.99648   3394427.99247                  22039193.1274
        32.0004         26.5004
  23015567.6114   -7831115.66147  -5959265.00746                  23015576.6154
        27.0004         24.0004
  24302852.2914   14431669.78546  11165600.33846                  24302864.5644
        15.5004         12.2504
  21597548.6974    3209250.19846   2528377.49647                  21597555.2714
        18.0004         29.2504
 00  5  9 20 21 45.0020000  0  6G 5G 6G10G17G24G30
  23076551.7994   13493109.87746  10472481.30246                  23076562.1044
        19.2504         17.7504
  21743510.0574   -5985371.50648  -4616818.58247                  21743516.5614
        32.2504         28.5004
  22046952.2444    4368188.20448   3426229.67947                  22046959.5724
        32.2504         26.7504
  23013083.3384   -7844170.07647  -5969437.24446                  23013092.3184
        26.2504         23.7504
  24312947.5414   14484718.17346  11206936.65846                  24312961.1744
        15.2504         12.0004
  21604565.2134    3246121.87946   2557108.63047                  21604571.6114
        18.0004         29.7504
 00  5  9 20 22  0.0020000  0  6G 5G 6G10G17G24G30
  23088446.8544   13555620.43346  10521190.70746                  23088457.2644
        19.7504         17.7504
  21741604.8144   -5995383.14348  -4624619.84247                  21741611.4004
        31.2504         28.2504
  22054747.9474    4409154.38948   3458151.34847                  22054755.2054
        32.0004         26.7504
  23010614.5184   -7857143.49547  -5979546.35946                  23010623.5214
        25.2504         23.2504
  24323046.4474   14537786.09246  11248288.15846                  24323059.5644
        16.2504         12.0004
  21611612.0724    3283153.35046   2585964.27747                  21611618.3424
        18.0004         29.5004
 00  5  9 20 22 15.0020000  0  6G 5G 6G10G17G24G30
  23100358.9394   13618215.24947  10569965.76846                  23100368.9284
        20.7504         18.0004
  21739714.4714   -6005317.89748  -4632361.20547                  21739721.0574
        32.0004         28.5004
  22062572.7524    4450273.59248   3490192.25047                  22062579.9164
        32.2504         26.5004
  23008160.8224   -7870036.67047  -5989592.96246                  23008169.8144
        24.2504         22.7504
  24333147.4634   14590872.55346  11289654.15046                  24333159.5024
        15.0004         12.0004
  21618689.2914    3320343.78247   2614943.78547                  21618695.6544
        20.2504         29.2504
 00  5  9 20 22 30.0020000  0  6G 5G 6G10G17G24G30
  23112285.9394   13680893.66547  10618805.96146                  23112296.2564
        20.0004         18.0004
  21737838.6584   -6015175.90248  -4640042.76547                  21737844.9864
        31.5004         28.2504
  22070426.3614    4491545.10148   3522351.83647                  22070433.6074
        32.0004         26.2504
  23005722.5414   -7882849.99347  -5999577.33846                  23005731.6504
        22.5004         21.7504
  24343253.8934   14643977.49046  11331034.54446                  24343265.2294
        15.5004         12.0004
  21625796.3544    3357692.55046   2644046.67647                  21625802.6824
        19.7504         29.0004
 00  5  9 20 22 45.0020000  0  6G 5G 6G10G17G24G30
  23124229.2994   13743655.30147  10667710.99846                  23124239.0764
        20.5004         18.0004
  21735977.2134   -6024956.92148  -4647664.33547                  21735983.6354
        30.2504         28.5004
  22078308.7914    4532968.63448   3554629.87947                  22078316.1664
        31.2504         25.7504
  23003299.3224   -7895583.50547  -6009499.52246                  23003308.4084
        21.5004         20.7504
  24353362.5254   14697100.57046  11372429.05046                  24353373.5574
        14.7504         12.2504
  21632933.7214    3395199.39247   2673272.74347                  21632940.0374
        22.2504         28.7504
 00  5  9 20 23  0.0020000  0  6G 5G 6G10G17G24G30
  23136189.1504   13806502.84247  10716682.98146                  23136199.6194
        20.5004         17.7504
  21734131.1434   -6034657.71248  -4655223.38947                  21734137.5534
        32.0004         28.5004
  22086220.9944    4574547.05848   3587028.61447                  22086228.2874
        31.5004         25.7504
  23000891.9944   -7908234.13847  -6019357.12246                  23000901.1624
        21.5004         20.2504
  24363475.6744   14750244.76346  11413840.01146                  24363488.3934
        15.0004         12.2504
  21640101.5724    3432867.13648   2702624.19047                  21640108.0644
        31.0004         28.5004
 00  5  9 20 23 15.0020000  0  6G 5G 6G10G17G24G30
  23148164.2604   13869432.32846  10765718.81246                  23148174.3074
        19.7504         17.5004
  21732299.9324   -6044281.66948  -4662722.57247                  21732306.3544
        31.0004         28.7504
  22094161.9394    4616276.51248   3619545.03247                  22094169.2324
        31.7504         25.7504
  22998499.6584   -7920805.51447  -6029152.97746                  22998508.8144
        20.2504         19.7504
  24373591.9324   14803406.50946  11455264.66646                  24373604.4284
        14.2504         12.0004
  21647299.2684    3470692.00948   2732098.07347                  21647306.0184
        32.0004         28.2504
 00  5  9 20 23 30.0020000  0  6G 5G 6G10G17G24G30
  23160154.8774   13932445.65446  10814819.98946                  23160165.4634
        19.0004         17.2504
  21730483.5024   -6053826.35848  -4670159.98347                  21730489.9824
        30.5004         28.5004
  22102132.0254    4658158.90048   3652180.62147                  22102139.1894
        31.7504         25.7504
  22996122.7754   -7933295.48547  -6038885.38446                  22996131.9204
        21.0004         19.2504
  24383712.9164   14856587.86846  11496704.56945                  24383726.0334
        13.7504         11.5004
  21654527.6974    3508676.01548   2761695.94647                  21654534.3184
        32.2504         28.0004
 00  5  9 20 23 45.0020000  0  6G 5G 6G10G17G24G30
  23172161.6894   13995541.91946  10863985.78846                  23172172.5684
        18.7504         17.0004
  21728682.4244   -6063292.22847  -4677535.98447                  21728688.7524
        26.2504         28.5004
  22110130.8694    4700193.35648   3684934.71347                  22110138.3384
        31.7504         25.7504
  22993761.5334   -7945704.73147  -6048554.89646                  22993770.5254
        21.7504         19.2504
  24393835.8614   14909788.10446  11538159.21245                  24393849.0254
        14.0004         11.7504
  21661785.7524    3546818.12848   2791417.02647                  21661792.3854
        28.0004         28.0004
 00  5  9 20 24  0.0020000  0  6G 5G 6G10G17G24G30
  23184184.7294   14058720.90246  10913216.04146                  23184195.5964
        18.7504         17.0004
  21726896.2054   -6072678.99147  -4684850.34047                  21726902.3224
        20.0004         28.5004
  22118158.7054    4742379.63648   3717807.10346                  22118166.1394
        32.0004         25.5004
  22991415.5104   -7958033.08547  -6058161.37646                  22991424.5024
        23.0004         20.0004
  24403963.5334   14963007.21646  11579628.57445                  24403975.2914
        15.7504         11.7504
  21669074.3464    3585118.58447   2821261.48747                  21669080.7444
        23.2504         28.0004
 00  5  9 20 24 15.0020000  0  7G26G 5G 6G10G17G24G30
  25070533.0184     -14785.53655
         9.5004
  23196223.5804   14121985.02946  10962512.64746                  23196234.2484
        18.5004         16.7504
  21725125.5494   -6081983.62046  -4692100.69547                  21725131.5494
        19.2504         28.5004
  22126215.8544    4784720.23348   3750799.73846                  22126223.0534
        31.7504         25.2504
  22989085.4394   -7970277.89047  -6067702.73346                  22989094.1504
        23.7504         20.5004
  24414094.8774   15016247.93246  11621114.74546                  24414107.9594
        15.0004         12.0004
  21676393.3854    3623579.78446   2851231.21047                  21676399.6784
        18.7504         28.2504
 00  5  9 20 24 30.0020000  0  6G 5G 6G10G17G24G30
  23208278.1274   14185332.32146  11011874.05146                  23208289.3464
        18.5004         17.0004
  21723370.3144   -6091207.58346  -4699288.18947                  21723376.2914
        18.5004         28.7504
  22134301.8854    4827213.13448   3783911.05346                  22134309.2014
        31.2504         25.2504
  22986770.9244   -7982440.81647  -6077180.29146                  22986779.3894
        25.2504         21.0004
  24424230.2054   15069508.42046  11662616.33645                  24424242.7954
        14.5004         11.0004
  21683742.5104    3662199.71346   2881324.60747                  21683748.8144
        18.0004         28.5004
 00  5  9 20 24 45.0020000  0  7G26G 5G 6G10G17G24G30
  25059991.5884     -25838.59645
         9.5004
  23220348.9714   14248762.60946  11061300.11646                  23220360.0844
        19.7504         17.2504
  21721630.5884   -6100350.40546  -4706412.45947                  21721636.6584
        18.2504         28.2504
  22142417.0254    4869858.39648   3817141.08746                  22142424.5184
        30.7504         25.0004
  22984472.0884   -7994521.63947  -6086593.88146                  22984480.1074
        27.0004         21.2504
  24434369.0644   15122788.99146  11704133.57345                  24434380.4594
        14.7504         10.7504
  21691121.9944    3700978.50246   2911541.79147                  21691128.4634
        18.0004         28.7504
 00  5  9 20 25  0.0020000  0  7G26G 5G 6G10G17G24G30
  25054726.4084     -53505.13745
         8.7504
  23232434.6354   14312271.78847  11110787.65446                  23232445.5614
        20.0004         17.5004
  21719905.4944   -6109415.64046  -4713476.27447                  21719911.7874
        19.0004         28.5004
  22150560.2834    4912651.94048   3850486.66546                  22150567.7994
        30.5004         25.2504
  22982188.0024   -8006524.10547  -6095946.41446                  22982196.2094
        26.7504         22.0004
  24444511.3074   15176085.64246  11745663.36145                  24444522.6434
        15.7504         11.2504
  21698530.7524    3739912.24346   2941879.71847                  21698537.2914
        18.0004         29.2504
 00  5  9 20 25 15.0020000  0  7G26G 5G 6G10G17G24G30
  25049465.9864     -81147.77745
         9.0004
  23244535.6824   14375863.31747  11160339.37146                  23244545.6824
        20.0004         17.5004
  21718195.8224   -6118399.27046  -4720476.49847                  21718201.9864
        19.5004         28.5004
  22158732.7444    4955597.26848   3883950.52346                  22158740.3654
        30.2504         25.2504
  22979919.7754   -8018444.36147  -6105234.87746                  22979928.2754
        27.7504         22.5004
  24454656.8224   15229402.40946  11787208.80745                  24454667.0804
        15.5004         10.5004
  21705969.8544    3779004.45746   2972341.13147                  21705976.4394
        17.7504         29.5004
 00  5  9 20 25 30.0020000  0  7G26G 5G 6G10G17G24G30
  25044209.9244    -108768.23045
         9.2504
  23256652.0494   14439534.93947  11209953.48646                  23256662.3424
        20.0004         17.7504
  21716501.4004   -6127303.02247  -4727414.48647                  21716507.4474
        20.5004         28.2504
  22166933.4004    4998692.20648   3917530.95346                  22166941.0924
        30.5004         24.7504
  22977666.5964   -8030284.41048  -6114460.85146                  22977675.3424
        28.5004         23.2504
  24464806.9164   15282737.04646  11828768.18145                  24464818.6154
        15.0004         11.2504
  21713438.6194    3818253.03846   3002924.39347                  21713445.0884
        18.0004         29.2504
 00  5  9 20 25 45.0020000  0  7G26G 5G 6G10G17G24G30
  25038958.8614    -136365.22045     -1432.45955                  25038977.9434
         9.7504          7.7504
  23268783.9084   14503287.23647  11259630.46746                  23268794.4594
        20.0004         17.5004
  21714822.5104   -6136125.68947  -4734289.28647                  21714828.5454
        26.0004         28.5004
  22175162.7214    5041937.42148   3951228.48046                  22175169.8854
        31.2504         25.0004
  22975428.9554   -8042043.39448  -6123623.65646                  22975437.4554
        28.0004         23.5004
  24474959.1434   15336090.42246  11870342.14745                  24474970.9124
        15.0004         10.7504
  21720937.3854    3857658.59146   3033629.97847                  21720944.0644
        18.5004         29.0004
 00  5  9 20 26  0.0020000  0  7G26G 5G 6G10G17G24G30
  25033710.8384    -163937.63445    -22917.29845                  25033728.1744
         8.7504          7.2504
  23280930.9714   14567120.55546  11309370.57246                  23280941.4284
        19.7504         17.0004
  21713159.2444   -6144866.50048  -4741100.30247                  21713165.5144
        30.2504         28.5004
  22183420.8304    5085333.33948   3985043.44346                  22183427.8894
        31.5004         25.0004
  22973206.6974   -8053720.72547  -6132722.84046                  22973215.4674
        27.2504         23.5004
  24485115.9794   15389463.13546  11911931.18045                  24485128.1464
        14.5004         11.0004
  21728465.8144    3897221.58147   3064458.24647                  21728472.4004
        21.5004         29.0004
 00  5  9 20 26 15.0020000  0  7G26G 5G 6G10G17G24G30
  25028469.3614    -191486.44245    -44383.75545                  25028489.5684
         8.5004          7.2504
  23293093.1354   14631033.35546  11359172.63046                  23293103.8614
        19.0004         17.0004
  21711511.2684   -6153526.41648  -4747848.28947                  21711517.5254
        29.2504         28.5004
  22191707.1894    5128878.50048   4018974.69646                  22191714.4244
        31.2504         25.2504
  22970999.8144   -8065317.58347  -6141759.31746                  22971008.2094
        26.7504         23.7504
  24495275.5964   15442853.77546  11953534.19345                  24495288.3504
        14.5004         11.5004
  21736023.8304    3936940.54148   3095408.04947                  21736030.5454
        29.0004         28.7504
 00  5  9 20 26 30.0020000  0  7G26G 5G 6G10G17G24G30
  25023231.4324    -219011.34745    -65831.60845                  25023250.2324
         9.2504          7.2504
  23305270.4944   14695025.00146  11409036.11046                  23305280.7754
        19.2504         16.7504
  21709878.7364   -6162105.55948  -4754533.33347                  21709884.7834
        28.7504         28.2504
  22200021.8384    5172572.15648   4053021.66346                  22200029.4714
        31.5004         25.5004
  22968808.3464   -8076834.31347  -6150733.36646                  22968817.2444
        26.0004         24.0004
  24505439.0334   15496262.19046  11995151.03645                  24505452.5844
        14.0004         11.2504
  21743611.7754    3976815.00748   3126479.01847                  21743618.5494
        32.2504         28.5004
 00  5  9 20 26 45.0020000  0  7G26G 5G 6G10G17G24G30
  25017997.8774    -246514.14145    -87262.25845                  25018016.8654
        10.5004          7.2504
  23317462.1274   14759093.01946  11458959.11246                  23317472.8184
        18.5004         16.7504
  21708261.2364   -6170605.71448  -4761156.82847                  21708267.2834
        31.7504         28.0004
  22208364.4714    5216412.07648   4087182.59946                  22208372.3854
        31.5004         25.5004
  22966631.3544   -8088273.01147  -6159646.60346                  22966640.3344
        24.7504         23.5004
  24515605.5334   15549686.03346  12036779.90646                  24515618.6744
        14.5004         12.0004
  21751228.8614    4016842.70348   3157669.38647                  21751235.9674
        30.7504         28.7504
 00  5  9 20 27  0.0020000  0  7G26G 5G 6G10G17G24G30
  25012768.1664    -273993.22345   -108674.38545                  25012787.2014
         9.5004          6.7504
  23329668.6434   14823238.33646  11508942.34746                  23329679.4754
        18.5004         16.5004
  21706659.0414   -6179025.37548  -4767717.59747                  21706665.0184
        32.2504         28.0004
  22216734.9634    5260399.19048   4121458.23547                  22216742.8424
        31.5004         25.7504
  22964469.4794   -8099632.45047  -6168498.08446                  22964478.2364
        23.7504         23.2504
  24525774.9324   15603126.60346  12078421.81945                  24525786.6074
        15.5004         11.7504
  21758875.4244    4057024.52647   3188979.84647                  21758882.3184
        23.7504         28.7504
 00  5  9 20 27 15.0020000  0  7G26G 5G 6G10G17G24G30
  25007544.8694    -301445.15245   -130065.32845                  25007562.7214
         9.2504          7.7504
  23341890.4164   14887463.47146  11558987.77746                  23341901.2834
        18.5004         16.0004
  21705072.4794   -6187361.51048  -4774213.28647                  21705078.5724
        32.2504         27.7504
  22225133.9324    5304536.09248   4155850.59046                  22225141.5064
        31.2504         25.5004
  22962323.4004   -8110909.67647  -6177285.50946                  22962332.4984
        22.5004         22.2504
  24535948.0964   15656586.56546  12120078.83745                  24535960.1584
        16.0004         11.7504
  21766551.6434    4097363.24246   3220412.56547                  21766558.2754
        18.0004         29.0004
 00  5  9 20 27 30.0020000  0  7G26G 5G 6G10G17G24G30
  25002324.9474    -328871.30845   -151436.30345                  25002342.0144
         8.7504          7.0004
  23354126.8694   14951766.52246  11609093.91846                  23354137.6544
        18.7504         16.5004
  21703501.7834   -6195615.55548  -4780645.00147                  21703507.7954
        32.0004         27.5004
  22233561.0024    5348820.89548   4190358.18446                  22233568.3774
        31.5004         25.2504
  22960192.7524   -8122106.36547  -6186010.18046                  22960201.9434
        22.7504         22.2504
  24546124.8774   15710064.35246  12161749.75645                  24546136.3424
        15.2504         11.7504
  21774257.5804    4137856.83746   3251965.96847                  21774263.9904
        18.0004         28.5004
 00  5  9 20 27 45.0020000  0  7G26G 5G 6G10G17G24G30
  24997112.0644    -356268.95445   -172784.96145                  24997127.8544
         8.2504          7.5004
  23366378.6824   15016149.45046  11659262.30046                  23366389.5024
        18.0004         16.2504
  21701947.1974   -6203785.00448  -4787010.79447                  21701953.1864
        32.0004         28.0004
  22242016.7294    5393255.54448   4224982.54546                  22242024.1394
        31.0004         25.5004
  22958077.9554   -8133220.31047  -6194670.38146                  22958087.1584
        22.0004         21.7504
  24556305.0494   15763562.13446  12203436.23546                  24556317.7684
        15.2504         12.0004
  21781992.9474    4178507.39246   3283641.67447                  21781999.2874
        18.0004         28.2504
 00  5  9 20 28  0.0020000  0  7G26G 5G 6G10G17G24G30
  24991901.4244    -383643.79244   -194115.86845                  24991920.6114
         7.2504          7.0004
  23378644.9794   15080605.93846  11709487.99646                  23378655.9394
        19.0004         16.5004
  21700407.8614   -6211875.60748  -4793315.15547                  21700413.8964
        32.2504         28.0004
  22250499.7914    5437833.80648   4259718.81046                  22250507.4714
        30.2504         25.5004
  22955977.2524   -8144257.52647  -6203270.78546                  22955986.5614
        21.0004         21.5004
  24566487.8304   15817073.97846  12245133.68746                  24566501.8144
        13.5004         12.0004
  21789757.2684    4219308.76746   3315434.90147                  21789763.7954
        18.2504         28.5004
 00  5  9 20 28 15.0020000  0  7G26G 5G 6G10G17G24G30
  24986698.3074    -410989.19644   -215423.85745                  24986716.7794
         7.2504          7.2504
  23390925.6584   15145141.74246  11759775.49246                  23390936.5144
        19.2504         16.5004
  21698884.4244   -6219881.00148  -4799553.12147                  21698890.4824
        32.0004         28.2504
  22259011.0184    5482561.53248   4294571.54146                  22259018.8964
        30.5004         25.5004
  22953892.9324   -8155211.91947  -6211806.64746                  22953901.9594
        21.7504         21.0004
  24576675.4244   15870605.79346  12286846.65746                  24576689.0104
        14.7504         12.0004
  21797551.5104    4260266.85946   3347350.24147                  21797557.9554
        18.2504         28.7504
 00  5  9 20 28 30.0020000  0  7G26G 5G 6G10G17G24G30
  24981499.0024    -438308.58845   -236711.55645                  24981516.0104
         7.7504          7.0004
  23403220.4634   15209752.75546  11810121.60446                  23403231.4944
        17.7504         16.5004
  21697376.6044   -6227804.76548  -4805727.48047                  21697382.7094
        31.5004         28.2504
  22267550.0644    5527434.64748   4329537.56546                  22267557.8614
        30.5004         25.5004
  22951823.7134   -8166087.20047  -6220280.87846                  22951832.4004
        23.0004         21.2504
  24586865.2684   15924153.75146  12328572.25846                  24586878.3034
        16.0004         12.5004
  21805374.6974    4301377.68746   3379384.59247                  21805381.3544
        19.7504         29.0004
 00  5  9 20 28 45.0020000  0  7G26G 5G 6G10G17G24G30
  24976307.2134    -465597.67745   -257975.60245                  24976324.3504
         8.5004          7.2504
  23415531.0104   15274442.42746  11860528.99546                  23415542.6744
        17.7504         16.2504
  21695885.0574   -6235642.86348  -4811835.08447                  21695891.1744
        32.2504         28.5004
  22276117.5254    5572456.70648   4364619.64146                  22276125.3114
        30.5004         25.2504
  22949770.0104   -8176879.60047  -6228690.52246                  22949778.4514
        23.5004         21.0004
  24597059.0254   15977721.66046  12370313.38746                  24597071.4634
        16.2504         12.0004
  21813227.4474    4342644.87948   3411540.79147                  21813234.3304
        28.7504         29.0004
 00  5  9 20 29  0.0020000  0  7G26G 5G 6G10G17G24G30
  24971118.4244    -492864.39845   -279222.28745                  24971135.9364
         9.0004          8.0004
  23427854.7684   15339202.28046  11910991.08146                  23427865.7754
        18.2504         16.5004
  21694408.0804   -6243403.34748  -4817882.21347                  21694414.3144
        32.2504         28.5004
  22284711.8934    5617619.13348   4399811.10246                  22284719.5374
        30.5004         25.5004
  22947730.4164   -8187597.45047  -6237042.07246                  22947739.0214
        23.7504         21.0004
  24607254.9084   16031301.21146  12412063.61945                  24607266.6784
        15.2504         11.5004
  21821108.4244    4384059.80448   3443812.11147                  21821115.4364
        29.7504         28.7504
 00  5  9 20 29 15.0020000  0  7G26G 5G 6G10G17G24G30
  24965934.4794    -520105.57045   -300449.04145                  24965953.6544
         8.7504          7.2504
  23440191.3384   15404034.52546  11961509.57746                  23440202.2524
        18.0004         16.2504
  21692946.7914   -6251083.27148  -4823866.55947                  21692953.1434
        30.0004         28.5004
  22293333.1584    5662924.23648   4435113.72746                  22293340.9904
        30.2504         25.2504
  22945705.4474   -8198238.12447  -6245333.47246                  22945713.9474
        25.5004         21.2504
  24617453.3224   16084894.93446  12453824.88045                  24617465.9594
        14.7504         11.0004
  21829018.1434    4425624.96648   3476200.50547                  21829025.2484
        29.7504         28.5004
 00  5  9 20 29 30.0020000  0  7G26G 5G 6G10G17G24G30
  24960756.0254    -547317.14945   -321652.72045                  24960771.6974
         9.2504          7.7504
  23452543.3224   15468942.51346  12012087.09446                  23452555.0454
        17.2504         16.0004
  21691501.4164   -6258678.72048  -4829785.08347                  21691507.5454
        30.0004         28.5004
  22301982.1434    5708375.45948   4470530.22946                  22301989.6704
        30.2504         25.2504
  22943696.2834   -8208797.84747  -6253561.80246                  22943704.6894
        27.2504         21.5004
  24627654.4864   16138506.53246  12495600.05845                  24627666.9594
        12.7504         10.2504
  21836956.8074    4467343.73648   3508708.59147                  21836963.9244
        28.7504         28.5004
 00  5  9 20 29 45.0020000  0  7G26G 5G 6G10G17G24G30
  24955582.7134    -574501.23345   -342834.94045                  24955598.7484
         8.2504          7.5004
  23464908.8614   15533923.48846  12062721.48046                  23464920.9124
        16.5004         15.7504
  21690071.6044   -6266191.93347  -4835639.53247                  21690077.9434
        27.2504         28.7504
  22310658.4164    5753970.11448   4506058.49446                  22310666.3304
        29.7504         25.0004
  22941701.4944   -8219279.12747  -6261729.01346                  22941709.7254
        27.0004         21.7504
  24637859.7914   16192133.42646  12537387.17045                  24637872.4394
        13.2504         11.2504
  21844924.3304    4509213.52547   3541334.35147                  21844931.5764
        21.0004         29.0004
 00  5  9 20 30  0.0020000  0  7G26G 5G 6G10G17G24G30
  24950415.0884    -601655.08045   -363993.61645                  24950431.1584
         8.5004          7.7504
  23477288.0104   15598979.42246  12113414.26946                  23477299.4984
        16.7504         16.0004
  21688658.0964   -6273620.36248  -4841427.91247                  21688664.4004
        28.0004         28.7504
  22319362.5494    5799710.22348   4541700.09346                  22319370.7094
        29.0004         25.0004
  22939722.3774   -8229679.71547  -6269833.33146                  22939730.8424
        27.7504         21.7504
  24648067.8464   16245777.94846  12579188.00945                  24648080.5534
        12.2504          9.7504
  21852921.0414    4551236.44047   3574079.42247                  21852928.3574
        26.7504         29.2504
 00  5  9 20 30 15.0020000  0  6G 5G 6G10G17G24G30
  23489682.3854   15664107.63446  12164163.38046                  23489694.3424
        18.5004         16.2504
  21687260.1744   -6280966.12548  -4847151.87947                  21687266.3264
        29.5004         28.5004
  22328093.7834    5845593.20848   4577453.02746                  22328102.0844
        28.7504         25.0004
  22937758.2214   -8240001.98848  -6277876.62646                  22937766.6974
        28.5004         22.5004
  24658278.9554   16299437.66645  12621000.68445                  24658292.6234
        11.5004          9.0004
  21860946.6744    4593409.86747   3606941.77847                  21860953.8034
        20.0004         29.2504
 00  5  9 20 30 30.0020000  0  8G26G 5G 6G23G10G17G24G30
  24940096.7754      -1804.49655
         7.5004
  23502090.2134   15729308.87146  12214969.40246                  23502101.7014
        18.2504         15.7504
  21685878.5724   -6288227.88348  -4852810.39247                  21685884.6664
        30.5004         28.5004
  25225659.0644     -12395.07953
         5.7504
  22336852.5024    5891619.89248   4613317.93046                  22336860.9674
        28.5004         24.7504
  22935809.1584   -8250244.82948  -6285858.03646                  22935817.6584
        28.7504         22.7504
  24668493.1114   16353113.62146  12662826.00545                  24668504.8814
        12.0004          9.5004
  21869001.0804    4635734.61546   3639922.04247                  21869007.9754
        17.7504         29.5004
 00  5  9 20 30 45.0020000  0  8G26G 5G 6G23G10G17G24G30
  24934944.6824     -28872.46745
         7.7504
  23514510.8224   15794580.46946  12265830.23946                  23514522.3934
        18.0004         16.2504
  21684512.0964   -6295407.78348  -4858405.11347                  21684518.1434
        31.7504         28.7504
  25218587.1584     -49555.06244
         6.2504
  22345637.9554    5937787.54448   4649292.68646                  22345646.5374
        28.5004         24.7504
  22933874.4714   -8260410.57948  -6293779.37746                  22933882.6544
        28.0004         22.5004
  24678710.4474   16406803.34446  12704662.06345                  24678721.9244
        12.5004         10.0004
  21877083.3934    4678208.03446   3673018.15847                  21877090.1784
        18.2504         29.2504
 00  5  9 20 31  0.0020000  0  8G26G 5G 6G23G10G17G24G30
  24929800.0724     -55913.16545
         8.2504
  23526945.1354   15859921.12846  12316744.88946                  23526956.3894
        18.7504         16.0004
  21683161.4794   -6302506.53648  -4863936.61047                  21683167.4904
        28.7504         28.5004
  25211524.9944     -86669.92044
         6.2504
  22354449.7754    5984094.97147   4685376.34946                  22354458.1934
        27.7504         24.7504
  22931954.3304   -8270500.25947  -6301641.43746                  22931962.7834
        27.5004         22.5004
  24688929.3304   16460505.83645  12746508.08645                  24688940.8894
        11.7504          9.5004
  21885194.0024    4720828.90846   3706229.17347                  21885200.7404
        18.0004         29.2504
 00  5  9 20 31 15.0020000  0  8G26G 5G 6G23G10G17G24G30
  24924661.0644     -82919.64645
         8.5004
  23539392.9794   15925337.08246  12367718.21346                  23539403.6704
        18.7504         16.5004
  21681827.2684   -6309517.41947  -4869399.63247                  21681833.3384
        22.7504         28.2504
  25204471.8384    -123732.80543
         6.0004
  22363289.6824    6030548.32048   4721573.72146                  22363297.6544
        28.7504         24.5004
  22930050.2754   -8280507.33947  -6309439.14046                  22930058.7874
        27.7504         23.5004
  24699152.0804   16514227.61345  12788369.14845                  24699164.7404
        11.0004          9.5004
  21893333.7054    4763603.67546   3739560.10447                  21893340.7174
        18.7504         28.7504
 00  5  9 20 31 30.0020000  0  8G26G 5G 6G23G10G17G24G30
  24919527.9714    -109894.10245    -19615.81555                  24919545.6114
         9.0004          8.2504
  23551855.2214   15990825.33946  12418747.87046                  23551866.4984
        19.2504         16.2504
  21680509.3224   -6316442.81147  -4874796.03947                  21680515.3694
        23.7504         28.2504
  25197427.9084    -160746.04844
         6.5004
  22372156.6974    6077144.69148   4757882.54246                  22372164.5884
        28.5004         24.5004
  22928161.1504   -8290434.46047  -6317174.53346                  22928169.9084
        26.2504         23.2504
  24709379.1824   16567966.03246  12830243.12645                  24709392.6624
        12.2504          9.7504
  21901502.2444    4806529.36247   3773008.63247                  21901509.5614
        26.7504         28.7504
 00  5  9 20 31 45.0020000  0  8G26G 5G 6G23G10G17G24G30
  24914400.4394    -136840.13345    -40612.58945                  24914418.8184
         9.2504          8.0004
  23564330.5024   16056381.56046  12469830.50346                  23564340.9714
        18.7504         16.2504
  21679206.9944   -6323286.45947  -4880128.74847                  21679213.1354
        26.2504         28.5004
  25190393.2444    -197713.43244     -5757.05955                  25190412.0684
         6.5004          7.2504
  22381050.2054    6123879.87648   4794299.52346                  22381058.0724
        29.2504         24.7504
  22926286.3854   -8300285.64747  -6324850.75946                  22926295.2254
        25.2504         23.2504
  24719607.3694   16621716.97046  12872126.90745                  24719620.7214
        13.2504         10.5004
  21909698.6584    4849601.83748   3806571.53247                  21909706.3144
        32.0004         28.7504
 00  5  9 20 32  0.0020000  0  8G26G 5G 6G23G10G17G24G30
  24909277.9244    -163757.02445    -61586.60945                  24909294.4164
         9.5004          8.2504
  23576818.1194   16122005.78946  12520966.11046                  23576829.6784
        17.5004         16.0004
  21677920.2834   -6330047.76748  -4885397.28647                  21677926.5764
        31.2504         28.2504
  25183367.4794    -234634.21845    -34526.38045                  25183385.3074
         7.7504          8.5004
  22389969.9394    6170753.92748   4830824.71146                  22389977.7014
        28.7504         24.2504
  22924426.1894   -8310060.60647  -6332467.58946                  22924434.9364
        25.2504         23.5004
  24729838.6194   16675480.69746  12914020.63345                  24729851.9124
        12.7504         10.7504
  21917922.9474    4892821.03448   3840248.77247                  21917930.1934
        29.2504         28.5004
 00  5  9 20 32 15.0020000  0  8G26G 5G 6G23G10G17G24G30
  24904161.2214    -190642.98045    -82536.55645                  24904178.3934
         9.5004          9.0004
  23589319.4394   16187699.04346  12572155.52746                  23589330.7874
        17.7504         16.0004
  21676649.5024   -6336725.19848  -4890600.47947                  21676655.7364
        32.2504         28.2504
  25176351.4164    -271506.89545    -63258.10845                  25176369.4204
         9.2504          8.0004
  22398916.5254    6217767.83148   4867458.88446                  22398924.4394
        28.2504         24.5004
  22922580.9164   -8319757.96947  -6340023.95746                  22922589.6504
        25.0004         23.5004
  24740072.5024   16729258.47646  12955925.30145                  24740086.1464
        14.2504         11.0004
  21926175.5024    4936188.13547   3874041.26647                  21926182.4204
        25.0004         28.5004
 00  5  9 20 32 30.0020000  0  8G26G 5G 6G23G10G17G24G30
  24899050.5574    -217496.17245   -103460.98345                  24899068.5494
         8.5004          7.7504
  23601833.9864   16253462.42646  12623399.56646                  23601845.8504
        17.7504         16.0004
  21675395.2994   -6343317.06148  -4895736.99547                  21675401.6504
        32.2504         27.7504
  25169343.6044    -308329.67645    -91951.01945                  25169361.2794
         8.7504          8.7504
  22407889.9474    6264922.81648   4904202.97546                  22407897.8614
        29.2504         24.7504
  22920750.6354   -8329376.32147  -6347518.76046                  22920759.4754
        24.2504         23.5004
  24750309.1664   16783051.87946  12997842.16945                  24750324.2524
        14.0004         11.0004
  21934456.2444    4979704.33947   3907949.94547                  21934463.1974
        22.2504         28.7504
 00  5  9 20 32 45.0020000  0  8G26G 5G 6G23G10G17G24G30
  24893946.5414    -244317.56145   -124360.59545                  24893964.5804
         8.2504          7.7504
  23614361.2364   16319294.21846  12674696.93046                  23614373.6744
        16.7504         15.5004
  21674156.8304   -6349824.53248  -4900807.74547                  21674163.3814
        32.0004         27.7504
  25162346.4324    -345103.57145   -120605.81145                  25162363.5454
        10.0004          8.7504
  22416889.6584    6312217.11348   4941055.63346                  22416897.4904
        29.2504         24.7504
  22918934.9864   -8338917.07647  -6354953.09146                  22918943.9904
        23.7504         23.2504
  24760548.4554   16836859.30246  13039769.93845                  24760561.5964
        15.0004         11.5004
  21942765.4864    5023368.04946   3941973.56547                  21942772.4164
        18.2504         29.2504
 00  5  9 20 33  0.0020000  0  8G26G 5G 6G23G10G17G24G30
  24888848.1974    -271108.05545   -145236.12645                  24888865.9674
         8.2504          8.2504
  23626901.0804   16385192.75246  12726046.28646                  23626913.2364
        16.2504         15.7504
  21672934.3934   -6356248.63848  -4905813.53947                  21672940.6624
        31.7504         27.7504
  25155357.4634    -381829.66845   -149223.35545                  25155376.2994
        11.0004          9.7504
  22425915.8934    6359649.20748   4978015.65846                  22425924.0644
        29.2504         24.7504
  22917133.8224   -8348381.53247  -6362327.98146                  22917142.3344
        25.0004         23.5004
  24770789.9944   16890679.55946  13081707.76345                  24770803.7094
        14.7504         11.2504
  21951102.2294    5067177.69546   3976110.89247                  21951109.2754
        17.7504         30.0004
 00  5  9 20 33 15.0020000  0  8G26G 5G 6G23G10G17G24G30
  24883757.0574    -297867.70345   -166087.67945                  24883775.8574
         9.0004          8.2504
  23639453.8074   16451157.26846  12777447.04646                  23639466.2214
        16.5004         15.5004
  21671727.8144   -6362589.78548  -4910754.69247                  21671734.1314
        32.0004         27.7504
  25148377.1114    -418508.20545   -177803.82245                  25148395.7954
        10.5004          9.5004
  22434967.9794    6407218.15748   5015082.32746                  22434976.0334
        29.7504         24.7504
  22915347.2994   -8357770.32647  -6369643.90846                  22915355.9284
        25.0004         23.7504
  24781033.3774   16944511.79646  13123654.89545                  24781046.7644
        12.5004         11.0004
  21959466.8464    5111132.49246   4010361.32247                  21959474.1864
        18.0004         30.2504
 00  5  9 20 33 30.0020000  0  8G26G 5G 6G23G10G17G24G30
  24878671.2214    -324592.73145   -186912.23245                  24878689.9984
         9.2504          7.7504
  23652020.2444   16517190.80946  12828901.61346                  23652032.1784
        17.0004         15.2504
  21670537.6584   -6368844.35348  -4915628.37747                  21670543.7404
        32.2504         27.7504
  25141407.1354    -455135.47545   -206344.38145                  25141427.3304
        10.5004          9.7504
  22444046.7754    6454927.11648   5052258.09546                  22444054.7604
        29.5004         24.7504
  22913575.7444   -8367080.06947  -6376898.23046                  22913584.4554
        25.0004         24.5004
  24791280.5574   16998359.55946  13165614.07845                  24791294.2714
        14.0004         10.5004
  21967859.4554    5155235.59446   4044727.31447                  21967866.9364
        18.0004         30.2504
 00  5  9 20 33 45.0020000  0  8G26G 5G 6G23G10G17G24G30
  24873591.9714    -351285.50345   -207711.68745                  24873608.8854
         9.7504          8.5004
  23664598.5334   16583290.26646  12880407.53346                  23664610.4794
        17.0004         15.7504
  21669363.4794   -6375014.75048  -4920436.48047                  21669369.4434
        32.0004         27.5004
  25134446.4554    -491713.83745   -234846.78345                  25134463.6624
         9.7504          8.5004
  22453151.7294    6502773.16548   5089540.67946                  22453159.4554
        30.5004         24.7504
  22911818.7524   -8376313.40847  -6384093.00746                  22911827.7914
        26.0004         24.2504
  24801529.7134   17052220.15846  13207583.31345                  24801544.5534
        12.2504         10.0004
  21976279.4944    5199484.06446   4079206.58147                  21976286.9514
        18.0004         30.0004
 00  5  9 20 34  0.0020000  0  8G26G 5G 6G23G10G17G24G30
  24868519.0104    -377940.58145   -228481.67045                  24868536.5104
        10.0004          8.7504
  23677190.5184   16649460.33346  12931968.46346                  23677201.7364
        17.5004         15.2504
  21668206.3774   -6381095.75648  -4925174.91947                  21668212.4474
        31.5004         27.7504
  25127495.6744    -528237.95545   -263306.96045                  25127514.8384
         9.7504          9.5004
  22462283.4084    6550760.95848   5126933.73146                  22462291.1234
        30.2504         24.7504
  22910077.1894   -8385465.28547  -6391224.32246                  22910085.6784
        27.5004         24.5004
  24811782.5494   17106098.42646  13249566.30945                  24811795.0924
        13.2504         10.7504
  21984728.4084    5243882.61047   4113802.78647                  21984735.9474
        22.0004         29.5004
 00  5  9 20 34 15.0020000  0  8G26G 5G 6G23G10G17G24G30
  24863453.4554    -404561.35345   -249225.01045                  24863469.5144
         9.5004          8.5004
  23689794.9864   16715696.78446  12983581.11946                  23689806.0294
        18.5004         15.5004
  21667065.2754   -6387091.03148  -4929846.57047                  21667071.2994
        32.5004         27.5004
  25120554.7994    -564711.48945   -291727.69845                  25120572.8964
        11.0004          9.0004
  22471441.3934    6598886.29048   5164433.94546                  22471449.2134
        30.5004         25.0004
  22908350.3774   -8394539.67147  -6398295.25146                  22908358.8894
        27.2504         24.7504
  24822038.1044   17159990.54546  13291560.10945                  24822052.2054
        12.0004          9.7504
  21993204.8854    5288426.97947   4148512.62547                  21993211.8264
        21.2504         28.2504
 00  5  9 20 34 30.0020000  0  8G26G 5G 6G23G10G17G24G30
  24858394.3774    -431142.06645   -269937.07645                  24858410.8114
         9.2504          8.5004
  23702413.2994   16782004.68246  13035249.45046                  23702424.3304
        18.2504         15.5004
  21665941.9244   -6392994.94948  -4934447.01847                  21665947.9714
        32.2504         27.5004
  25113624.4554    -601128.82145   -320104.61145                  25113643.4084
        10.0004          9.7504
  22480626.6434    6647154.17448   5202045.24246                  22480634.5104
        30.7504         25.0004
  22906639.2364   -8403531.28948  -6405301.67446                  22906647.9364
        28.2504         25.0004
  24832296.6354   17213901.64045  13333568.65145                  24832309.7754
        10.7504          9.0004
  22001710.1824    5333122.44547   4183340.20947                  22001716.8264
        23.7504         28.0004
 00  5  9 20 34 45.0020000  0  8G26G 5G 6G23G10G17G24G30
  24853343.8384    -457685.82845   -290620.41345                  24853363.1194
         9.5004          8.7504
  23715043.8384   16848380.10346  13086970.40846                  23715054.6704
        17.0004         14.7504
  21664835.0104   -6398810.80948  -4938978.85047                  21664841.0924
        32.0004         27.7504
  25106705.0494    -637493.10445   -348440.26045                  25106722.3264
         9.7504          8.7504
  22489837.9164    6695560.93848   5239764.75846                  22489845.4794
        31.2504         24.7504
  22904943.3384   -8412443.65848  -6412246.33846                  22904951.8734
        28.5004         24.7504
  24842559.1824   17267828.26246  13375589.28245                  24842575.0294
        13.0004          9.5004
  22010243.4794    5377965.18547   4218282.55347                  22010249.9244
        24.5004         27.7504
 00  5  9 20 35  0.0020000  0  8G26G 5G 6G23G10G17G24G30
  24848299.1824    -484192.01445   -311274.41845                  24848315.8264
         9.5004          9.0004
  23727687.5964   16914823.04246  13138743.96446                  23727699.1074
        17.7504         15.0004
  21663745.3544   -6404538.15348  -4943441.71347                  21663751.5294
        32.2504         27.7504
  25099795.1434    -673803.78945   -376734.09445                  25099812.9474
        10.2504          9.2504
  22499075.9554    6744106.37648   5277592.32546                  22499083.5414
        31.2504         24.7504
  22903262.4864   -8421276.55548  -6419129.09046                  22903271.1044
        28.7504         24.5004
  24852824.1664   17321770.53446  13417622.18445                  24852835.6074
        12.5004          9.7504
  22018804.7684    5422955.17048   4253339.62447                  22018811.6504
        32.0004         27.7504
 00  5  9 20 35 15.0020000  0  8G26G 5G 6G23G10G17G24G30
  24843262.6274    -510659.07645   -331897.96045                  24843281.1824
         8.2504          7.7504
  23740344.4794   16981334.27346  13190570.74646                  23740355.5924
        18.0004         15.0004
  21662672.5024   -6410175.47048  -4947834.42847                  21662678.6664
        32.0004         27.5004
  25092896.0884    -710059.37545   -404985.04245                  25092915.4284
        10.2504          8.5004
  22508340.5184    6792791.42448   5315528.68046                  22508348.1744
        31.5004         25.0004
  22901596.7604   -8430028.75448  -6425948.96246                  22901605.1434
        28.7504         24.5004
  24863091.1974   17375729.68245  13459668.19745                  24863101.9004
        11.0004          9.2504
  22027394.2054    5468093.42148   4288512.22447                  22027401.2054
        32.5004         28.0004
 00  5  9 20 35 30.0020000  0  8G26G 5G 6G23G10G17G24G30
  24838233.6824    -537085.73445   -352490.06745                  24838251.3464
         8.2504          8.2504
  23753014.3774   17047914.15246  13242451.01746                  23753027.0254
        16.5004         15.5004
  21661617.1114   -6415721.84748  -4952156.27947                  21661623.3934
        32.0004         27.5004
  25086006.8614    -746258.89645   -433192.23145                  25086026.3774
        10.5004          8.5004
  22517631.4864    6841616.59848   5353574.22746                  22517639.1544
        30.0004         25.0004
  22899946.9164   -8438699.56748  -6432705.40646                  22899955.4754
        29.0004         24.2504
  24873363.0334   17429706.39945  13501727.89545                  24873376.1044
        10.7504          8.7504
  22036012.1744    5513380.33748   4323800.66547                  22036019.3264
        31.5004         28.0004
 00  5  9 20 35 45.0030000  0  8G26G 5G 6G23G10G17G24G30
  24833211.5154    -563476.08245   -373053.80945                  24833229.2144
         8.2504          7.7504
  23765697.5074   17114564.19846  13294385.96646                  23765710.0154
        16.7504         15.2504
  21660578.3824   -6421180.09948  -4956409.46347                  21660584.3824
        32.2504         27.5004
  25079127.8584    -782407.05545   -461359.47145                  25079147.3274
        10.0004          8.5004
  22526949.4684    6890582.22248   5391729.20946                  22526957.4404
        30.2504         25.2504
  22898311.7414   -8447292.23048  -6439400.96046                  22898320.5344
        28.5004         24.0004
  24883637.6554   17483701.58545  13543801.97645                  24883651.8744
        10.0004          9.0004
  22044658.2804    5558816.09047   4359205.08347                  22044665.3514
        22.2504         28.2504
 00  5  9 20 36  0.0030000  0  8G26G 5G 6G23G10G17G24G30
  24828197.1874    -589824.39045   -393584.83245                  24828216.4684
         8.0004          7.7504
  23778392.5774   17181277.04946  13346369.85346                  23778405.3784
        17.2504         15.2504
  21659557.0464   -6426547.49748  -4960591.85147                  21659563.0224
        32.5004         27.5004
  25072260.8744    -818496.98845   -489481.26245                  25072278.2924
        10.7504          8.5004
  22536293.3044    6939683.15648   5429989.62946                  22536301.3824
        30.5004         25.0004
  22896691.9684   -8455803.89047  -6446033.38746                  22896700.5854
        27.7504         23.2504
  24893916.4444   17537709.78245  13585886.17745                  24893932.1984
        11.5004         10.2504
  22053332.0774    5604395.93946   4394721.79147                  22053339.0424
        17.7504         29.0004
 00  5  9 20 36 15.0030000  0  8G26G 5G 6G23G10G17G24G30
  24823191.7024    -616132.44445   -414084.43445                  24823211.1124
         8.2504          8.0004
  23791100.6714   17248056.27346  13398405.45746                  23791113.4374
        17.0004         15.5004
  21658552.7104   -6431824.75248  -4964703.99247                  21658558.8974
        32.5004         27.5004
  25065403.1014    -854531.37345   -517559.84045                  25065419.8044
        10.5004          8.7504
  22545663.0774    6988921.84548   5468357.39046                  22545671.2964
        31.2504         25.2504
  22895087.4214   -8464235.69947  -6452603.58946                  22895095.9914
        27.5004         23.0004
  24904196.5544   17591733.86345  13627982.80545                  24904210.4334
        11.5004         10.5004
  22062033.6014    5650122.22846   4430352.60747                  22062040.7534
        18.0004         29.2504
 00  5  9 20 36 30.0030000  0  8G26G 5G 6G23G10G17G24G30
  24818192.9834    -642400.19245   -434552.69645                  24818209.3824
         8.7504          7.7504
  23803820.7024   17314901.33146  13450492.35446                  23803833.7964
        17.0004         15.7504
  21657565.6714   -6437011.80348  -4968745.85047                  21657571.7294
        32.5004         27.7504
  25058556.9134    -890510.14745   -545595.10445                  25058573.6044
         9.7504          8.0004
  22555059.0934    7038297.83848   5506832.13646                  22555066.9604
        31.2504         25.0004
  22893497.9684   -8472587.79247  -6459111.68346                  22893506.4684
        27.0004         22.5004
  24914479.9524   17645773.76545  13670091.70145                  24914493.8544
        11.0004          9.7504
  22070762.8124    5695994.48746   4466097.16147                  22070769.8234
        17.7504         29.5004
 00  5  9 20 36 45.0030000  0  8G26G 5G 6G23G10G17G24G30
  24813202.1474    -668626.27045   -454988.42645                  24813218.9914
         8.7504          9.0004
  23816554.1014   17381812.78146  13502630.98646                  23816566.7724
        18.0004         15.7504
  21656596.1474   -6442107.47748  -4972716.50347                  21656602.2764
        32.2504         27.7504
  25051720.3194    -926432.03945   -573585.97845                  25051736.9764
         9.7504          8.5004
  22564481.2654    7087811.78548   5545414.38246                  22564489.2844
        30.2504         24.7504
  22891923.9374   -8480859.33047  -6465557.01146                  22891932.5304
        26.2504         22.5004
  24924767.0934   17699830.34146  13712213.62745                  24924780.1284
        13.0004         10.2504
  22079519.8274    5742013.50947   4501956.08147                  22079526.8154
        21.0004         29.0004
 00  5  9 20 37  0.0030000  0  8G26G 5G 6G23G10G17G24G30
  24808218.9764    -694810.05245   -475391.21245                  24808236.2294
         8.7504          8.7504
  23829299.6554   17448790.43546  13554821.19146                  23829312.5034
        17.2504         15.7504
  21655643.9374   -6447111.42748  -4976615.68547                  21655650.1834
        28.5004         28.0004
  25044894.6794    -962296.69945   -601532.30445                  25044914.6754
         9.7504          8.2504
  22573929.6714    7137463.49148   5584103.97246                  22573937.5854
        31.5004         25.0004
  22890365.2884   -8489050.27447  -6471939.52846                  22890374.1164
        25.0004         22.0004
  24935056.6014   17753903.51946  13754348.53045                  24935068.7804
        12.7504         10.7504
  22088304.9764    5788179.11247   4537929.21147                  22088312.1634
        27.0004         28.7504
 00  5  9 20 37 15.0030000  0  8G26G 5G 6G23G10G17G24G30
  24803244.9294    -720951.23545   -495760.85945                  24803260.8234
         9.2504          8.2504
  23842057.2104   17515833.88246  13607062.68346                  23842069.1324
        16.7504         15.2504
  21654709.1944   -6452023.44648  -4980443.23547                  21654715.7694
        31.0004         28.0004
  25038081.5074    -998103.87145   -629433.82045                  25038098.1984
         9.2504          7.7504
  22583404.2494    7187252.55248   5622900.59146                  22583412.1404
        31.5004         25.0004
  22888821.6874   -8497160.68347  -6478259.30546                  22888830.4444
        24.5004         21.7504
  24945349.9764   17807993.29246  13796496.32545                  24945362.7534
        14.7504         11.0004
  22097117.8584    5834490.83048   4574016.20047                  22097125.0224
        32.0004         28.5004
 00  5  9 20 37 30.0030000  0  8G26G 5G 6G23G10G17G24G30
  24798277.5154    -747051.26245   -516098.40145                  24798296.1984
         8.5004          8.0004
  23854827.6014   17582940.90246  13659353.69146                  23854839.5584
        17.2504         15.5004
  21653791.6634   -6456845.21248  -4984200.46247                  21653797.9444
        31.7504         28.0004
  25031277.2964   -1033855.09745   -657291.75245                  25031294.9134
         8.2504          7.2504
  22592904.4684    7237176.70248   5661802.48046                  22592912.4054
        31.7504         24.7504
  22887293.2414   -8505192.40447  -6484517.76746                  22887301.9054
        24.0004         21.7504
  24955645.5074   17862097.72346  13838655.55445                  24955659.1164
        12.5004         11.2504
  22105958.1634    5880946.53048   4610215.38647                  22105965.3624
        31.2504         28.5004
 00  5  9 20 37 45.0030000  0  8G26G 5G 6G23G10G17G24G30
  24793317.8274    -773111.13145   -536404.64745                  24793334.6944
         8.5004          8.5004
  23867609.4914   17650109.73446  13711692.87646                  23867622.2694
        16.2504         14.7504
  21652890.9214   -6461577.90148  -4987888.27247                  21652897.2724
        30.0004         28.0004
  25024485.1244   -1069551.44145   -685106.88245                  25024503.3044
         9.0004          7.0004
  22602430.2024    7287234.17648   5700808.25146                  22602438.1284
        31.7504         24.7504
  22885779.7494   -8513146.87947  -6490716.03146                  22885788.7884
        24.5004         21.7504
  24965943.6874   17916215.42946  13880825.08345                  24965958.4564
        12.0004         10.7504
  22114825.4294    5927544.56148   4646525.47947                  22114832.7334
        31.5004         28.0004
 00  5  9 20 38  0.0030000  0  8G26G 5G 6G23G10G17G24G30
  24788367.0624    -799131.49845   -556680.14845                  24788385.8864
         8.7504          8.2504
  23880402.8744   17717339.02646  13764079.17346                  23880415.1834
        15.7504         14.5004
  21652007.3824   -6466222.25948  -4991507.26047                  21652013.4764
        29.5004         28.2504
  25017703.1084   -1105193.76045   -712879.96145                  25017720.4214
         8.7504          7.0004
  22611981.0624    7337423.72748   5739916.93546                  22611988.6474
        30.5004         24.2504
  22884280.4834   -8521025.21947  -6496854.96346                  22884289.3004
        24.7504         22.2504
  24976243.7264   17970345.25545  13923004.07345                  24976259.8784
        11.0004         10.5004
  22123719.6014    5974283.55848   4682945.41547                  22123726.8944
        30.2504         28.0004
 00  5  9 20 38 15.0030000  0  8G26G 5G 6G23G10G17G24G30
  24783423.0624    -825110.66645   -576923.52045                  24783441.7804
         9.2504          8.2504
  23893207.8044   17784629.74246  13816513.32146                  23893219.7024
        16.5004         14.7504
  21651140.6324   -6470776.78948  -4995056.24847                  21651146.7844
        29.7504         28.5004
  25010929.7334   -1140780.47045   -740609.68445                  25010945.9684
         8.2504          7.0004
  22621556.9834    7387746.24548   5779129.23146                  22621564.4054
        30.0004         24.0004
  22882796.1164   -8528826.22047  -6502933.64646                  22882804.9564
        24.0004         22.5004
  24986547.5464   18024488.39746  13965193.47245                  24986560.9794
        12.5004         10.7504
  22132640.8194    6021164.63248   4719476.05547                  22132648.1124
        28.2504         28.0004
 00  5  9 20 38 30.0030000  0  8G26G 5G 6G23G10G17G24G30
  24778487.6014    -851045.98145   -597132.73145                  24778506.1084
         8.2504          8.7504
  23906025.4294   17851983.73246  13868996.77846                  23906037.7374
        16.0004         14.2504
  21650291.3584   -6475239.04947  -4998533.32647                  21650297.4764
        24.2504         28.2504
  25004169.6794   -1176309.07945   -768294.14145                  25004188.0464
         8.5004          7.2504
  22631158.7884    7438203.77848   5818446.74046                  22631166.7724
        29.5004         24.2504
  22881326.7024   -8536547.61647  -6508950.29246                  22881335.3904
        24.5004         22.7504
  24996853.0224   18078647.02145  14007394.95345                  24996868.5074
        11.0004          9.7504
  22141589.6164    6068189.73948   4756118.92747                  22141596.9684
        28.0004         28.2504
 00  5  9 20 38 45.0030000  0  8G26G 5G 6G23G10G17G24G30
  24773561.5854    -876934.33545   -617305.35945                  24773579.3084
         8.7504          8.0004
  23918854.8664   17919403.33946  13921531.38646                  23918867.6444
        15.7504         13.7504
  21649460.3434   -6479606.11148  -5001936.23547                  21649466.3544
        28.5004         28.0004
  24997419.5624   -1211776.50745   -795930.94545                  24997436.4054
         8.7504          6.5004
  22640786.9294    7488798.67248   5857871.27146                  22640794.6204
        30.5004         24.0004
  22879873.2804   -8544186.69547  -6514902.79446                  22879881.5584
        25.2504         23.2504
  25007163.5694   18132823.98946  14049610.65445                  25007178.3274
        13.0004         10.2504
  22150565.9444    6115361.10747   4792875.76547                  22150573.2494
        27.0004         28.2504
 00  5  9 20 39  0.0030000  0  8G26G 5G 6G23G10G17G24G30
  24768643.3904    -902778.95745   -637443.86445                  24768660.1874
         9.7504          8.5004
  23931695.9834   17986884.54746  13974113.97146                  23931707.8004
        16.7504         14.2504
  21648646.7264   -6483881.43948  -5005267.66047                  21648652.9484
        30.2504         28.0004
  24990682.4524   -1247186.18745   -823522.72745                  24990700.3514
         8.7504          7.5004
  22650439.9684    7539526.96948   5897399.76146                  22650447.6714
        30.7504         24.0004
  22878434.1084   -8551747.25347  -6520794.11246                  22878442.4794
        25.7504         23.7504
  25017475.8664   18187015.44446  14091837.71345                  25017490.9174
        13.0004          9.5004
  22159569.6714    6162674.86247   4829743.55247                  22159576.8584
        27.5004         28.2504
 00  5  9 20 39 15.0030000  0  8G26G 5G 6G23G10G17G24G30
  24763733.3194    -928581.15645   -657549.31345                  24763750.8784
        10.0004          8.2504
  23944548.8744   18054425.34546  14026742.99746                  23944561.3354
        16.2504         14.2504
  21647850.1944   -6488066.53948  -5008528.78447                  21647856.3584
        31.5004         28.0004
  24983954.4214   -1282539.56345   -851070.66245                  24983972.2024
         8.5004          6.2504
  22660118.3274    7590386.58548   5937030.58146                  22660126.2184
        30.7504         24.2504
  22877010.2414   -8559231.00347  -6526625.58046                  22877018.7884
        27.0004         24.0004
  25027790.6084   18241219.46446  14134074.51645                  25027803.6794
        13.5004         10.7504
  22168599.8744    6210129.11347   4866720.82047                  22168607.0504
        22.0004         28.2504
 00  5  9 20 39 30.0030000  0  8G26G 5G 6G23G10G17G24G30
  24758831.4764    -954338.50045   -677619.88845                  24758847.8514
         9.7504          8.7504
  23957413.3584   18122027.41546  14079419.76646                  23957426.0774
        16.0004         14.2504
  21647071.4444   -6492159.18248  -5011717.86347                  21647077.6444
        31.5004         28.0004
  24977237.4374   -1317834.27345   -878572.83945                  24977250.8354
         8.2504          7.2504
  22669822.1244    7641379.16848   5976764.99946                  22669830.2494
        31.2504         24.5004
  22875600.8584   -8566635.92947  -6532395.62546                  22875609.4524
        27.7504         24.7504
  25038108.1474   18295438.34346  14176322.92345                  25038121.0544
        12.5004         10.2504
  22177657.3044    6257725.51648   4903808.85847                  22177664.3744
        29.2504         28.5004
 00  5  9 20 39 45.0030000  0  8G26G 5G 6G23G10G17G24G30
  24753939.2264    -980049.91845   -697654.60445                  24753956.1164
        10.7504          9.2504
  23970289.5384   18189690.95746  14132144.43146                  23970302.2454
        16.2504         14.5004
  21646310.4294   -6496158.52948  -5014834.23847                  21646316.6164
        29.7504         28.0004
  24970533.0624   -1353069.47745   -906028.66545                  24970549.0854
         8.0004          7.5004
  22679551.0694    7692505.05848   6016603.30246                  22679559.1124
        31.0004         24.2504
  22874207.2104   -8573961.44748  -6538103.79446                  22874215.8744
        28.5004         25.5004
  25048428.9134   18349672.48046  14218583.22545                  25048442.9334
        13.0004          9.7504
  22186741.7264    6305464.44548   4941007.96147                  22186749.0544
        30.7504         28.7504
 00  5  9 20 40  0.0030000  0  8G26G 5G 6G23G10G17G24G30
  24749053.9374   -1005720.71045   -717657.70145                  24749071.7534
        10.5004          8.5004
  23983176.4294   18257410.05746  14184912.39946                  23983190.3904
        15.7504         14.2504
  21645566.1794   -6500069.87347  -5017882.04647                  21645572.3904
        22.0004         28.0004
  24963837.6164   -1388250.44145   -933442.23745                  24963852.1634
         8.2504          7.2504
  22689304.3274    7743758.28548   6056540.82346                  22689312.3004
        30.5004         24.0004
  22872827.0774   -8581213.15348  -6543754.45146                  22872835.5654
        28.7504         25.5004
  25058750.3904   18403916.32545  14260851.09245                  25058764.3514
        11.0004          9.2504
  22195852.1474    6353340.04848   4978313.56047                  22195859.6874
        32.5004         28.7504
 00  5  9 20 40 15.0030000  0  8G26G 5G 6G23G10G17G24G30
  24744176.5304   -1031348.32745   -737627.15845                  24744193.6904
         9.5004          9.2504
  23996073.0694   18325186.37546  14237724.94146                  23996086.6444
        14.5004         13.7504
  21644839.1474   -6503890.97147  -5020859.52747                  21644845.1944
        24.0004         28.0004
  24957154.3664   -1423374.86945   -960811.76645                  24957171.4564
         8.7504          6.7504
  22699081.9914    7795140.63548   6096578.96446                  22699089.9524
        30.5004         24.0004
  22871461.4914   -8588389.11548  -6549346.08647                  22871470.2144
        29.0004         25.7504
  25069074.3044   18458171.67845  14303127.90645                  25069088.2534
        10.2504          8.7504
  22204988.7574    6401353.93348   5015726.91147                  22204996.7184
        32.0004         28.5004
 00  5  9 20 40 30.0030000  0  8G26G 5G 6G23G10G17G24G30
  24739308.6244   -1056930.91645   -757561.53145                  24739325.5504
        10.0004          9.0004
  24008982.3514   18393021.14346  14290583.01746                  24008995.9014
        15.2504         13.7504
  21644129.4604   -6507620.12547  -5023765.36547                  21644135.5894
        20.7504         28.0004
  24950481.2184   -1458440.96745   -988135.76945                  24950498.1554
         8.7504          7.5004
  22708884.5464    7846653.37448   6136718.70946                  22708892.3194
        30.7504         23.7504
  22870110.6164   -8595487.82348  -6554877.52447                  22870119.3044
        30.0004         26.0004
  25079402.4134   18512440.19346  14345414.99645                  25079416.7264
        12.2504          9.0004
  22214152.0384    6449507.41948   5053249.03547                  22214160.1754
        31.2504         28.0004
 00  5  9 20 40 45.0030000  0  8G26G 5G 6G23G10G17G24G30
  24734449.6634   -1082465.53145   -777458.45945                  24734467.3044
        10.2504          9.0004
  24021902.8124   18460916.55446  14343488.38546                  24021916.5264
        14.7504         14.0004
  21643437.9214   -6511254.59047  -5026597.41547                  21643444.0504
        21.5004         28.0004
  24943818.1404   -1493445.97545  -1015412.29845                  24943835.2294
         7.5004          7.2504
  22718712.5384    7898298.58348   6176961.67246                  22718720.1474
        30.0004         23.5004
  22868775.1404   -8602506.83148  -6560346.86047                  22868783.9334
        29.7504         26.5004
  25089732.8124   18566724.27646  14387714.19045                  25089745.6364
        12.7504          9.7504
  22223342.4294    6497802.67948   5090881.63547                  22223350.3664
        31.5004         28.0004
 00  5  9 20 41  0.0030000  0  8G26G 5G 6G23G10G17G24G30
  24729598.0934   -1107959.11445   -797323.51545                  24729615.4764
         9.7504          8.7504
  24034832.3194   18528864.88646  14396434.95446                  24034846.2924
        14.5004         14.0004
  21642762.8824   -6514801.49147  -5029361.24447                  21642768.9524
        24.2504         28.0004
  24937167.5624   -1528396.96545  -1042646.65245                  24937185.2724
         7.5004          8.0004
  22728564.0224    7950068.49548   6217301.80246                  22728571.7844
        30.7504         23.7504
  22867452.9914   -8609453.52848  -6565759.84047                  22867461.7024
        29.5004         26.0004
  25100063.7804   18621016.45446  14430019.73145                  25100076.3234
        12.2504          9.5004
  22232558.4374    6546232.06548   5128618.75047                  22232566.0934
        32.2504         28.0004
 00  5  9 20 41 15.0030000  0  8G26G 5G 6G23G10G17G24G30
  24724756.4764   -1133403.36845   -817150.07145                  24724772.4294
        10.5004          8.5004
  24047774.3904   18596873.63646  14449428.61946                  24047787.6714
        15.5004         14.0004
  21642106.2804   -6518252.67747  -5032050.48847                  21642112.3974
        21.7504         28.0004
  24930527.9294   -1563285.74345  -1069832.55645                  24930545.8624
         8.2504          7.7504
  22738440.6244    8001970.80048   6257745.10946                  22738448.6674
        29.7504         23.7504
  22866146.4604   -8616320.08048  -6571110.38047                  22866154.7724
        30.0004         26.0004
  25110397.6404   18675324.56545  14472337.66745                  25110411.8474
        11.5004          9.7504
  22241801.2724    6594803.18548   5166466.30847                  22241808.5194
        28.0004         28.0004
 00  5  9 20 41 30.0030000  0  8G26G 5G 6G23G10G17G24G30
  24719923.1874   -1158802.07245   -836941.17545                  24719940.1124
        10.0004          9.0004
  24060726.8904   18664938.29746  14502465.83646                  24060740.4524
        15.7504         14.2504
  21641466.8354   -6521612.17147  -5034668.27847                  21641472.9524
        23.0004         28.0004
  24923900.9374   -1598116.17645  -1096972.97945                  24923918.9874
         9.2504          8.2504
  22748341.5694    8054000.98148   6298288.05546                  22748349.7534
        29.0004         23.5004
  22864854.0774   -8623110.70848  -6576401.76047                  22864862.4374
        30.0004         25.7504
  25120734.8974   18729644.52446  14514664.85745                  25120749.5034
        12.0004          9.5004
  22251070.2964    6643511.60747   5204420.85547                  22251077.4254
        22.0004         28.0004
 00  5  9 20 41 45.0030000  0  8G26G 5G 6G23G10G17G24G30
  24715098.2964   -1184152.62745   -856694.69645                  24715114.8234
         9.5004          8.7504
  24073690.3744   18733060.70746  14555548.07946                  24073703.3744
        16.2504         14.0004
  21640845.5384   -6524877.57247  -5037212.75547                  21640851.6904
        23.0004         28.0004
  24917284.5304   -1632885.79945  -1124066.07145                  24917301.8434
        10.2504          9.0004
  22758267.3354    8106160.80948   6338932.02446                  22758275.8234
        29.0004         23.5004
  22863576.6714   -8629823.28848  -6581632.31447                  22863585.4404
        28.7504         25.7504
  25131073.4764   18783978.39045  14557002.86245                  25131089.0544
         9.7504          9.2504
  22260365.8434    6692359.17247   5242483.81947                  22260373.0074
        21.0004         27.7504
 00  5  9 20 42  0.0030000  0  8G26G 5G 6G23G10G17G24G30
  24710284.1244   -1209452.03945   -876408.43145                  24710301.4374
        10.0004          8.2504
  24086665.3664   18801243.12646  14608677.05746                  24086677.7924
        16.5004         14.0004
  21640242.7494   -6528046.01747  -5039681.68147                  21640248.8084
        20.2504         28.0004
  24910678.8974   -1667591.85745  -1151109.62145                  24910695.2614
         9.5004          9.0004
  22768218.1944    8158452.67648   6379678.87846                  22768226.8584
        28.2504         23.5004
  22862314.5854   -8636455.25948  -6586800.05746                  22862323.2264
        28.5004         25.2504
  25141416.2884   18838328.69645  14599353.69045                  25141434.1044
         8.2504          8.5004
  22269687.9764    6741348.11548   5280656.94347                  22269694.9874
        28.5004         27.5004
 00  5  9 20 42 15.0030000  0  8G26G 5G 6G23G10G17G24G30
  24705479.3044   -1234702.91545   -896084.32545                  24705494.8354
        10.5004          8.7504
  24099650.8044   18869482.10846  14661850.13346                  24099663.0894
        16.7504         14.2504
  21639657.6324   -6531120.40246  -5042077.31247                  21639663.5974
        19.5004         28.2504
  24904086.7724   -1702237.01445  -1178105.69645                  24904104.3314
        10.0004          9.5004
  22778193.5934    8210873.13448   6420525.92646                  22778202.0114
        28.2504         23.5004
  22861067.4914   -8643009.68548  -6591907.37946                  22861075.9564
        29.0004         25.2504
  25151762.3274   18892692.28945  14641714.84645                  25151778.2334
        11.0004          8.7504
  22279036.4294    6790475.09148   5318937.62947                  22279043.5114
        32.2504         27.5004
 00  5  9 20 42 30.0030000  0  8G26G 5G 6G23G10G17G24G30
  24700683.4524   -1259902.60945   -915720.36345                  24700699.1124
         9.5004          9.2504
  24112647.2804   18937779.55746  14715068.72446                  24112659.2144
        17.5004         14.2504
  21639090.9914   -6534098.16946  -5044397.65347                  21639096.9214
        18.0004         28.2504
  24897505.9764   -1736818.76545  -1205052.38645                  24897524.0154
        10.5004          9.5004
  22788193.5774    8263424.16548   6461474.72546                  22788201.8664
        28.0004         23.2504
  22859835.3904   -8649484.30448  -6596952.51946                  22859843.7144
        28.0004         24.5004
  25162109.9524   18947071.55245  14684088.23845                  25162126.3744
        10.2504          8.0004
  22288411.9684    6839742.05148   5357327.39247                  22288419.2724
        32.2504         27.2504
 00  5  9 20 42 45.0030000  0  8G26G 5G 6G23G10G17G24G30
  24695897.3354   -1285052.89145   -935317.84445                  24695913.3944
         8.7504          8.0004
  24125654.8824   19006133.03346  14768331.01446                  24125667.3544
        16.7504         14.2504
  21638542.3274   -6536981.28146  -5046644.24647                  21638548.4094
        18.5004         28.2504
  24890936.9294   -1771338.89245  -1231951.01545                  24890954.4874
        10.7504         10.2504
  22798217.9914    8316103.26347   6502523.31946                  22798226.6904
        27.7504         22.7504
  22858617.7494   -8655881.39047  -6601937.23346                  22858626.1324
        27.2504         24.0004
  25172460.2804   19001464.08045  14726471.99845                  25172475.6834
         8.7504          9.0004
  22297813.3354    6889146.63648   5395824.39747                  22297820.7694
        31.7504         27.5004
